<?xml version="1.0" encoding="UTF-8"?>
<gpx version="1.1" creator="https://www.youtrack.es" xsi:schemaLocation="http://www.topografix.com/GPX/1/1 http://www.topografix.com/GPX/1/1/gpx.xsd http://www.garmin.com/xmlschemas/GpxExtensions/v3 http://www.garmin.com/xmlschemas/GpxExtensionsv3.xsd http://www.garmin.com/xmlschemas/TrackPointExtension/v1 http://www.garmin.com/xmlschemas/TrackPointExtensionv1.xsd" xmlns:gpxtpx="http://www.garmin.com/xmlschemas/TrackPointExtension/v1" xmlns:gpxx="http://www.garmin.com/xmlschemas/GpxExtensions/v3" xmlns:xsi="http://www.w3.org/2001/XMLSchema-instance">
  <metadata>
    <link href="https://www.youtrack.es">
      <text>YouTrack.es</text>
    </link>
    <time>2026-05-08T21:16:35Z</time>
  </metadata>
  <trk>
    <src>https://www.youtrack.es</src>
    <link href="https://www.youtrack.es/ruta/7563-torla">
      <text>YouTrack.es</text>
    </link>
    <trkseg>
      <trkpt lat="42.628021" lon="-0.112762">
        <ele>-</ele>
        <time>2019-08-13T07:22:46Z</time>
      </trkpt>
      <trkpt lat="42.628021" lon="-0.112762">
        <ele>1046.69</ele>
        <time>2019-08-13T07:22:49Z</time>
      </trkpt>
      <trkpt lat="42.627982" lon="-0.112662">
        <ele>1084.75</ele>
        <time>2019-08-13T07:23:20Z</time>
      </trkpt>
      <trkpt lat="42.627945" lon="-0.112535">
        <ele>1085.15</ele>
        <time>2019-08-13T07:23:40Z</time>
      </trkpt>
      <trkpt lat="42.627917" lon="-0.112531">
        <ele>1085.19</ele>
        <time>2019-08-13T07:23:42Z</time>
      </trkpt>
      <trkpt lat="42.627889" lon="-0.112523">
        <ele>1084.62</ele>
        <time>2019-08-13T07:23:44Z</time>
      </trkpt>
      <trkpt lat="42.627817" lon="-0.112432">
        <ele>1084.34</ele>
        <time>2019-08-13T07:23:50Z</time>
      </trkpt>
      <trkpt lat="42.62777" lon="-0.112435">
        <ele>1085.04</ele>
        <time>2019-08-13T07:23:53Z</time>
      </trkpt>
      <trkpt lat="42.627738" lon="-0.112435">
        <ele>1085.13</ele>
        <time>2019-08-13T07:23:56Z</time>
      </trkpt>
      <trkpt lat="42.627708" lon="-0.112387">
        <ele>1084.76</ele>
        <time>2019-08-13T07:23:59Z</time>
      </trkpt>
      <trkpt lat="42.627688" lon="-0.112323">
        <ele>1082.15</ele>
        <time>2019-08-13T07:24:03Z</time>
      </trkpt>
      <trkpt lat="42.627676" lon="-0.11228">
        <ele>1082.74</ele>
        <time>2019-08-13T07:24:05Z</time>
      </trkpt>
      <trkpt lat="42.627664" lon="-0.112239">
        <ele>1083.01</ele>
        <time>2019-08-13T07:24:08Z</time>
      </trkpt>
      <trkpt lat="42.627647" lon="-0.112227">
        <ele>1082.26</ele>
        <time>2019-08-13T07:24:16Z</time>
      </trkpt>
      <trkpt lat="42.627647" lon="-0.112156">
        <ele>1085.18</ele>
        <time>2019-08-13T07:24:21Z</time>
      </trkpt>
      <trkpt lat="42.627646" lon="-0.11212">
        <ele>1085.47</ele>
        <time>2019-08-13T07:24:23Z</time>
      </trkpt>
      <trkpt lat="42.627583" lon="-0.112076">
        <ele>1083.81</ele>
        <time>2019-08-13T07:24:29Z</time>
      </trkpt>
      <trkpt lat="42.627534" lon="-0.112075">
        <ele>1082.91</ele>
        <time>2019-08-13T07:24:39Z</time>
      </trkpt>
      <trkpt lat="42.627478" lon="-0.112083">
        <ele>1083.58</ele>
        <time>2019-08-13T07:24:41Z</time>
      </trkpt>
      <trkpt lat="42.627433" lon="-0.112133">
        <ele>1083.23</ele>
        <time>2019-08-13T07:24:44Z</time>
      </trkpt>
      <trkpt lat="42.6274" lon="-0.11218">
        <ele>1083.85</ele>
        <time>2019-08-13T07:24:48Z</time>
      </trkpt>
      <trkpt lat="42.62735" lon="-0.112019">
        <ele>1084.61</ele>
        <time>2019-08-13T07:24:54Z</time>
      </trkpt>
      <trkpt lat="42.627311" lon="-0.11188">
        <ele>1083.52</ele>
        <time>2019-08-13T07:24:56Z</time>
      </trkpt>
      <trkpt lat="42.627298" lon="-0.111823">
        <ele>1082.85</ele>
        <time>2019-08-13T07:24:59Z</time>
      </trkpt>
      <trkpt lat="42.627244" lon="-0.111778">
        <ele>1082.73</ele>
        <time>2019-08-13T07:25:01Z</time>
      </trkpt>
      <trkpt lat="42.627117" lon="-0.111713">
        <ele>1082.77</ele>
        <time>2019-08-13T07:25:05Z</time>
      </trkpt>
      <trkpt lat="42.627036" lon="-0.111662">
        <ele>1084.11</ele>
        <time>2019-08-13T07:25:10Z</time>
      </trkpt>
      <trkpt lat="42.627145" lon="-0.1119">
        <ele>1081.87</ele>
        <time>2019-08-13T07:25:13Z</time>
      </trkpt>
      <trkpt lat="42.627188" lon="-0.111933">
        <ele>1082.2</ele>
        <time>2019-08-13T07:25:15Z</time>
      </trkpt>
      <trkpt lat="42.627218" lon="-0.111983">
        <ele>1082.35</ele>
        <time>2019-08-13T07:25:17Z</time>
      </trkpt>
      <trkpt lat="42.627235" lon="-0.11201">
        <ele>1083.15</ele>
        <time>2019-08-13T07:25:18Z</time>
      </trkpt>
      <trkpt lat="42.627259" lon="-0.112082">
        <ele>1085.05</ele>
        <time>2019-08-13T07:25:21Z</time>
      </trkpt>
      <trkpt lat="42.627271" lon="-0.112123">
        <ele>1090.95</ele>
        <time>2019-08-13T07:25:24Z</time>
      </trkpt>
      <trkpt lat="42.627265" lon="-0.112186">
        <ele>1090.71</ele>
        <time>2019-08-13T07:25:28Z</time>
      </trkpt>
      <trkpt lat="42.627246" lon="-0.112246">
        <ele>1090.29</ele>
        <time>2019-08-13T07:25:33Z</time>
      </trkpt>
      <trkpt lat="42.627234" lon="-0.112285">
        <ele>1091.78</ele>
        <time>2019-08-13T07:25:36Z</time>
      </trkpt>
      <trkpt lat="42.627218" lon="-0.112337">
        <ele>1090.25</ele>
        <time>2019-08-13T07:25:40Z</time>
      </trkpt>
      <trkpt lat="42.6272" lon="-0.112349">
        <ele>1090.57</ele>
        <time>2019-08-13T07:25:48Z</time>
      </trkpt>
      <trkpt lat="42.627158" lon="-0.112381">
        <ele>1090.02</ele>
        <time>2019-08-13T07:25:59Z</time>
      </trkpt>
      <trkpt lat="42.627108" lon="-0.112404">
        <ele>1085.74</ele>
        <time>2019-08-13T07:26:03Z</time>
      </trkpt>
      <trkpt lat="42.62707" lon="-0.112438">
        <ele>1082.15</ele>
        <time>2019-08-13T07:26:07Z</time>
      </trkpt>
      <trkpt lat="42.627021" lon="-0.112435">
        <ele>1084.77</ele>
        <time>2019-08-13T07:26:13Z</time>
      </trkpt>
      <trkpt lat="42.626977" lon="-0.112432">
        <ele>1085.5</ele>
        <time>2019-08-13T07:26:16Z</time>
      </trkpt>
      <trkpt lat="42.626931" lon="-0.112386">
        <ele>1085.48</ele>
        <time>2019-08-13T07:26:21Z</time>
      </trkpt>
      <trkpt lat="42.626875" lon="-0.112381">
        <ele>1083.99</ele>
        <time>2019-08-13T07:26:24Z</time>
      </trkpt>
      <trkpt lat="42.626844" lon="-0.11238">
        <ele>1082.99</ele>
        <time>2019-08-13T07:26:27Z</time>
      </trkpt>
      <trkpt lat="42.626794" lon="-0.112388">
        <ele>1081.6</ele>
        <time>2019-08-13T07:26:31Z</time>
      </trkpt>
      <trkpt lat="42.626743" lon="-0.112426">
        <ele>1081.07</ele>
        <time>2019-08-13T07:26:35Z</time>
      </trkpt>
      <trkpt lat="42.6267" lon="-0.112447">
        <ele>1079.45</ele>
        <time>2019-08-13T07:26:38Z</time>
      </trkpt>
      <trkpt lat="42.626681" lon="-0.1125">
        <ele>1079.56</ele>
        <time>2019-08-13T07:26:47Z</time>
      </trkpt>
      <trkpt lat="42.626624" lon="-0.112532">
        <ele>1080.35</ele>
        <time>2019-08-13T07:26:59Z</time>
      </trkpt>
      <trkpt lat="42.626554" lon="-0.112552">
        <ele>1077.95</ele>
        <time>2019-08-13T07:27:01Z</time>
      </trkpt>
      <trkpt lat="42.626513" lon="-0.112587">
        <ele>1082.89</ele>
        <time>2019-08-13T07:27:03Z</time>
      </trkpt>
      <trkpt lat="42.626492" lon="-0.112658">
        <ele>1083.65</ele>
        <time>2019-08-13T07:27:07Z</time>
      </trkpt>
      <trkpt lat="42.626454" lon="-0.112696">
        <ele>1081.13</ele>
        <time>2019-08-13T07:27:10Z</time>
      </trkpt>
      <trkpt lat="42.626402" lon="-0.112727">
        <ele>1082.44</ele>
        <time>2019-08-13T07:27:14Z</time>
      </trkpt>
      <trkpt lat="42.626372" lon="-0.112745">
        <ele>1081.09</ele>
        <time>2019-08-13T07:27:16Z</time>
      </trkpt>
      <trkpt lat="42.626323" lon="-0.112814">
        <ele>1080.82</ele>
        <time>2019-08-13T07:27:19Z</time>
      </trkpt>
      <trkpt lat="42.626283" lon="-0.112848">
        <ele>1080.25</ele>
        <time>2019-08-13T07:27:22Z</time>
      </trkpt>
      <trkpt lat="42.626255" lon="-0.112872">
        <ele>1080.59</ele>
        <time>2019-08-13T07:27:24Z</time>
      </trkpt>
      <trkpt lat="42.626206" lon="-0.112919">
        <ele>1084.18</ele>
        <time>2019-08-13T07:27:27Z</time>
      </trkpt>
      <trkpt lat="42.626156" lon="-0.112945">
        <ele>1081.9</ele>
        <time>2019-08-13T07:27:32Z</time>
      </trkpt>
      <trkpt lat="42.626121" lon="-0.112946">
        <ele>1079.33</ele>
        <time>2019-08-13T07:27:40Z</time>
      </trkpt>
      <trkpt lat="42.626075" lon="-0.112959">
        <ele>1078.46</ele>
        <time>2019-08-13T07:27:50Z</time>
      </trkpt>
      <trkpt lat="42.626049" lon="-0.112968">
        <ele>1077.83</ele>
        <time>2019-08-13T07:27:52Z</time>
      </trkpt>
      <trkpt lat="42.626014" lon="-0.112976">
        <ele>1084.57</ele>
        <time>2019-08-13T07:27:54Z</time>
      </trkpt>
      <trkpt lat="42.625979" lon="-0.112986">
        <ele>1078.3</ele>
        <time>2019-08-13T07:27:57Z</time>
      </trkpt>
      <trkpt lat="42.625949" lon="-0.112996">
        <ele>1077.43</ele>
        <time>2019-08-13T07:27:59Z</time>
      </trkpt>
      <trkpt lat="42.625905" lon="-0.113004">
        <ele>1076.05</ele>
        <time>2019-08-13T07:28:02Z</time>
      </trkpt>
      <trkpt lat="42.62586" lon="-0.112991">
        <ele>1074.14</ele>
        <time>2019-08-13T07:28:06Z</time>
      </trkpt>
      <trkpt lat="42.625823" lon="-0.112983">
        <ele>1073.7</ele>
        <time>2019-08-13T07:28:09Z</time>
      </trkpt>
      <trkpt lat="42.625772" lon="-0.112965">
        <ele>1072.55</ele>
        <time>2019-08-13T07:28:13Z</time>
      </trkpt>
      <trkpt lat="42.62575" lon="-0.112958">
        <ele>1071.92</ele>
        <time>2019-08-13T07:28:15Z</time>
      </trkpt>
      <trkpt lat="42.625686" lon="-0.112943">
        <ele>1072.16</ele>
        <time>2019-08-13T07:28:20Z</time>
      </trkpt>
      <trkpt lat="42.625647" lon="-0.112932">
        <ele>1071.89</ele>
        <time>2019-08-13T07:28:23Z</time>
      </trkpt>
      <trkpt lat="42.62562" lon="-0.112923">
        <ele>1071.88</ele>
        <time>2019-08-13T07:28:25Z</time>
      </trkpt>
      <trkpt lat="42.625597" lon="-0.112914">
        <ele>1069.22</ele>
        <time>2019-08-13T07:28:27Z</time>
      </trkpt>
      <trkpt lat="42.62555" lon="-0.112894">
        <ele>1066.61</ele>
        <time>2019-08-13T07:28:31Z</time>
      </trkpt>
      <trkpt lat="42.625518" lon="-0.112883">
        <ele>1067.36</ele>
        <time>2019-08-13T07:28:34Z</time>
      </trkpt>
      <trkpt lat="42.625482" lon="-0.112844">
        <ele>1067.96</ele>
        <time>2019-08-13T07:28:38Z</time>
      </trkpt>
      <trkpt lat="42.62543" lon="-0.112806">
        <ele>1069.43</ele>
        <time>2019-08-13T07:28:43Z</time>
      </trkpt>
      <trkpt lat="42.625389" lon="-0.112774">
        <ele>1069.56</ele>
        <time>2019-08-13T07:28:47Z</time>
      </trkpt>
      <trkpt lat="42.62534" lon="-0.112744">
        <ele>1070.49</ele>
        <time>2019-08-13T07:28:51Z</time>
      </trkpt>
      <trkpt lat="42.625296" lon="-0.112711">
        <ele>1073.17</ele>
        <time>2019-08-13T07:28:55Z</time>
      </trkpt>
      <trkpt lat="42.62526" lon="-0.112685">
        <ele>1074.56</ele>
        <time>2019-08-13T07:28:58Z</time>
      </trkpt>
      <trkpt lat="42.625219" lon="-0.112639">
        <ele>1074.97</ele>
        <time>2019-08-13T07:29:02Z</time>
      </trkpt>
      <trkpt lat="42.625174" lon="-0.112619">
        <ele>1075.28</ele>
        <time>2019-08-13T07:29:06Z</time>
      </trkpt>
      <trkpt lat="42.625121" lon="-0.112618">
        <ele>1074.57</ele>
        <time>2019-08-13T07:29:11Z</time>
      </trkpt>
      <trkpt lat="42.625069" lon="-0.112599">
        <ele>1071.85</ele>
        <time>2019-08-13T07:29:16Z</time>
      </trkpt>
      <trkpt lat="42.625045" lon="-0.112588">
        <ele>1070.84</ele>
        <time>2019-08-13T07:29:19Z</time>
      </trkpt>
      <trkpt lat="42.625004" lon="-0.112547">
        <ele>1070.6</ele>
        <time>2019-08-13T07:29:23Z</time>
      </trkpt>
      <trkpt lat="42.624959" lon="-0.112507">
        <ele>1071.72</ele>
        <time>2019-08-13T07:29:26Z</time>
      </trkpt>
      <trkpt lat="42.624899" lon="-0.112482">
        <ele>1073.16</ele>
        <time>2019-08-13T07:29:30Z</time>
      </trkpt>
      <trkpt lat="42.624844" lon="-0.112488">
        <ele>1075.25</ele>
        <time>2019-08-13T07:29:33Z</time>
      </trkpt>
      <trkpt lat="42.624799" lon="-0.112452">
        <ele>1076.07</ele>
        <time>2019-08-13T07:29:38Z</time>
      </trkpt>
      <trkpt lat="42.624742" lon="-0.112495">
        <ele>1077.0</ele>
        <time>2019-08-13T07:29:47Z</time>
      </trkpt>
      <trkpt lat="42.624697" lon="-0.112462">
        <ele>1077.76</ele>
        <time>2019-08-13T07:29:50Z</time>
      </trkpt>
      <trkpt lat="42.624625" lon="-0.112492">
        <ele>1075.41</ele>
        <time>2019-08-13T07:29:55Z</time>
      </trkpt>
      <trkpt lat="42.624568" lon="-0.112502">
        <ele>1074.65</ele>
        <time>2019-08-13T07:29:59Z</time>
      </trkpt>
      <trkpt lat="42.624518" lon="-0.112496">
        <ele>1070.22</ele>
        <time>2019-08-13T07:30:07Z</time>
      </trkpt>
      <trkpt lat="42.624471" lon="-0.112511">
        <ele>1075.09</ele>
        <time>2019-08-13T07:30:18Z</time>
      </trkpt>
      <trkpt lat="42.624424" lon="-0.112512">
        <ele>1071.85</ele>
        <time>2019-08-13T07:30:36Z</time>
      </trkpt>
      <trkpt lat="42.624378" lon="-0.11253">
        <ele>1072.35</ele>
        <time>2019-08-13T07:30:38Z</time>
      </trkpt>
      <trkpt lat="42.624327" lon="-0.112533">
        <ele>1072.86</ele>
        <time>2019-08-13T07:30:40Z</time>
      </trkpt>
      <trkpt lat="42.624294" lon="-0.112537">
        <ele>1071.87</ele>
        <time>2019-08-13T07:30:42Z</time>
      </trkpt>
      <trkpt lat="42.624247" lon="-0.112563">
        <ele>1074.59</ele>
        <time>2019-08-13T07:30:45Z</time>
      </trkpt>
      <trkpt lat="42.624215" lon="-0.112608">
        <ele>1072.9</ele>
        <time>2019-08-13T07:30:48Z</time>
      </trkpt>
      <trkpt lat="42.624164" lon="-0.112648">
        <ele>1074.71</ele>
        <time>2019-08-13T07:30:52Z</time>
      </trkpt>
      <trkpt lat="42.624136" lon="-0.112667">
        <ele>1073.91</ele>
        <time>2019-08-13T07:30:54Z</time>
      </trkpt>
      <trkpt lat="42.624098" lon="-0.112699">
        <ele>1075.84</ele>
        <time>2019-08-13T07:30:57Z</time>
      </trkpt>
      <trkpt lat="42.624078" lon="-0.112716">
        <ele>1077.09</ele>
        <time>2019-08-13T07:30:59Z</time>
      </trkpt>
      <trkpt lat="42.624057" lon="-0.112773">
        <ele>1079.33</ele>
        <time>2019-08-13T07:31:03Z</time>
      </trkpt>
      <trkpt lat="42.624043" lon="-0.112813">
        <ele>1080.96</ele>
        <time>2019-08-13T07:31:05Z</time>
      </trkpt>
      <trkpt lat="42.623992" lon="-0.112851">
        <ele>1082.98</ele>
        <time>2019-08-13T07:31:11Z</time>
      </trkpt>
      <trkpt lat="42.623946" lon="-0.112855">
        <ele>1082.08</ele>
        <time>2019-08-13T07:31:14Z</time>
      </trkpt>
      <trkpt lat="42.623932" lon="-0.112867">
        <ele>1083.14</ele>
        <time>2019-08-13T07:31:22Z</time>
      </trkpt>
      <trkpt lat="42.623907" lon="-0.112945">
        <ele>1083.34</ele>
        <time>2019-08-13T07:31:41Z</time>
      </trkpt>
      <trkpt lat="42.623894" lon="-0.112997">
        <ele>1082.37</ele>
        <time>2019-08-13T07:31:43Z</time>
      </trkpt>
      <trkpt lat="42.623857" lon="-0.11306">
        <ele>1082.09</ele>
        <time>2019-08-13T07:31:46Z</time>
      </trkpt>
      <trkpt lat="42.623838" lon="-0.113091">
        <ele>1082.5</ele>
        <time>2019-08-13T07:31:48Z</time>
      </trkpt>
      <trkpt lat="42.623816" lon="-0.11313">
        <ele>1081.67</ele>
        <time>2019-08-13T07:31:50Z</time>
      </trkpt>
      <trkpt lat="42.62379" lon="-0.113199">
        <ele>1083.49</ele>
        <time>2019-08-13T07:31:53Z</time>
      </trkpt>
      <trkpt lat="42.623774" lon="-0.11325">
        <ele>1085.53</ele>
        <time>2019-08-13T07:31:56Z</time>
      </trkpt>
      <trkpt lat="42.62374" lon="-0.113291">
        <ele>1085.49</ele>
        <time>2019-08-13T07:31:59Z</time>
      </trkpt>
      <trkpt lat="42.62371" lon="-0.113347">
        <ele>1085.86</ele>
        <time>2019-08-13T07:32:02Z</time>
      </trkpt>
      <trkpt lat="42.623695" lon="-0.113411">
        <ele>1086.9</ele>
        <time>2019-08-13T07:32:05Z</time>
      </trkpt>
      <trkpt lat="42.623676" lon="-0.113469">
        <ele>1087.79</ele>
        <time>2019-08-13T07:32:08Z</time>
      </trkpt>
      <trkpt lat="42.623664" lon="-0.113505">
        <ele>1087.56</ele>
        <time>2019-08-13T07:32:11Z</time>
      </trkpt>
      <trkpt lat="42.62365" lon="-0.113537">
        <ele>1085.85</ele>
        <time>2019-08-13T07:32:12Z</time>
      </trkpt>
      <trkpt lat="42.623615" lon="-0.113585">
        <ele>1085.67</ele>
        <time>2019-08-13T07:32:16Z</time>
      </trkpt>
      <trkpt lat="42.623596" lon="-0.113613">
        <ele>1086.22</ele>
        <time>2019-08-13T07:32:19Z</time>
      </trkpt>
      <trkpt lat="42.623568" lon="-0.113671">
        <ele>1086.12</ele>
        <time>2019-08-13T07:32:22Z</time>
      </trkpt>
      <trkpt lat="42.623545" lon="-0.113732">
        <ele>1085.62</ele>
        <time>2019-08-13T07:32:26Z</time>
      </trkpt>
      <trkpt lat="42.623506" lon="-0.113782">
        <ele>1087.29</ele>
        <time>2019-08-13T07:32:31Z</time>
      </trkpt>
      <trkpt lat="42.623451" lon="-0.113822">
        <ele>1089.25</ele>
        <time>2019-08-13T07:32:36Z</time>
      </trkpt>
      <trkpt lat="42.623401" lon="-0.113851">
        <ele>1090.06</ele>
        <time>2019-08-13T07:32:41Z</time>
      </trkpt>
      <trkpt lat="42.623359" lon="-0.113877">
        <ele>1091.79</ele>
        <time>2019-08-13T07:32:44Z</time>
      </trkpt>
      <trkpt lat="42.623311" lon="-0.113886">
        <ele>1092.84</ele>
        <time>2019-08-13T07:32:48Z</time>
      </trkpt>
      <trkpt lat="42.623287" lon="-0.113893">
        <ele>1092.83</ele>
        <time>2019-08-13T07:32:50Z</time>
      </trkpt>
      <trkpt lat="42.623261" lon="-0.113901">
        <ele>1093.42</ele>
        <time>2019-08-13T07:32:53Z</time>
      </trkpt>
      <trkpt lat="42.62321" lon="-0.113904">
        <ele>1090.91</ele>
        <time>2019-08-13T07:32:59Z</time>
      </trkpt>
      <trkpt lat="42.623153" lon="-0.113879">
        <ele>1092.7</ele>
        <time>2019-08-13T07:33:04Z</time>
      </trkpt>
      <trkpt lat="42.623106" lon="-0.113908">
        <ele>1091.96</ele>
        <time>2019-08-13T07:33:08Z</time>
      </trkpt>
      <trkpt lat="42.623068" lon="-0.11396">
        <ele>1091.44</ele>
        <time>2019-08-13T07:33:11Z</time>
      </trkpt>
      <trkpt lat="42.623017" lon="-0.113954">
        <ele>1091.08</ele>
        <time>2019-08-13T07:33:16Z</time>
      </trkpt>
      <trkpt lat="42.622974" lon="-0.113972">
        <ele>1089.47</ele>
        <time>2019-08-13T07:33:22Z</time>
      </trkpt>
      <trkpt lat="42.622974" lon="-0.113972">
        <ele>1089.47</ele>
        <time>2019-08-13T07:33:30Z</time>
      </trkpt>
      <trkpt lat="42.622974" lon="-0.113972">
        <ele>1089.47</ele>
        <time>2019-08-13T07:33:31Z</time>
      </trkpt>
      <trkpt lat="42.622994" lon="-0.113917">
        <ele>1088.75</ele>
        <time>2019-08-13T07:33:36Z</time>
      </trkpt>
      <trkpt lat="42.623071" lon="-0.113955">
        <ele>1083.7</ele>
        <time>2019-08-13T07:33:44Z</time>
      </trkpt>
      <trkpt lat="42.623142" lon="-0.113927">
        <ele>1081.42</ele>
        <time>2019-08-13T07:33:48Z</time>
      </trkpt>
      <trkpt lat="42.623195" lon="-0.113902">
        <ele>1080.95</ele>
        <time>2019-08-13T07:33:51Z</time>
      </trkpt>
      <trkpt lat="42.623245" lon="-0.113888">
        <ele>1080.6</ele>
        <time>2019-08-13T07:33:55Z</time>
      </trkpt>
      <trkpt lat="42.623297" lon="-0.113879">
        <ele>1079.63</ele>
        <time>2019-08-13T07:33:59Z</time>
      </trkpt>
      <trkpt lat="42.623297" lon="-0.113879">
        <ele>1079.63</ele>
        <time>2019-08-13T07:34:06Z</time>
      </trkpt>
      <trkpt lat="42.623297" lon="-0.113879">
        <ele>1079.63</ele>
        <time>2019-08-13T07:34:07Z</time>
      </trkpt>
      <trkpt lat="42.623345" lon="-0.113846">
        <ele>1082.33</ele>
        <time>2019-08-13T07:34:13Z</time>
      </trkpt>
      <trkpt lat="42.623401" lon="-0.11384">
        <ele>1082.0</ele>
        <time>2019-08-13T07:34:16Z</time>
      </trkpt>
      <trkpt lat="42.623453" lon="-0.113808">
        <ele>1084.36</ele>
        <time>2019-08-13T07:34:19Z</time>
      </trkpt>
      <trkpt lat="42.623494" lon="-0.113749">
        <ele>1085.65</ele>
        <time>2019-08-13T07:34:22Z</time>
      </trkpt>
      <trkpt lat="42.623534" lon="-0.113691">
        <ele>1085.02</ele>
        <time>2019-08-13T07:34:25Z</time>
      </trkpt>
      <trkpt lat="42.623596" lon="-0.113667">
        <ele>1080.4</ele>
        <time>2019-08-13T07:34:29Z</time>
      </trkpt>
      <trkpt lat="42.623627" lon="-0.113656">
        <ele>1077.16</ele>
        <time>2019-08-13T07:34:33Z</time>
      </trkpt>
      <trkpt lat="42.623657" lon="-0.113586">
        <ele>1077.13</ele>
        <time>2019-08-13T07:34:36Z</time>
      </trkpt>
      <trkpt lat="42.62369" lon="-0.113531">
        <ele>1074.16</ele>
        <time>2019-08-13T07:34:41Z</time>
      </trkpt>
      <trkpt lat="42.623707" lon="-0.113502">
        <ele>1074.63</ele>
        <time>2019-08-13T07:34:42Z</time>
      </trkpt>
      <trkpt lat="42.62373" lon="-0.113468">
        <ele>1076.68</ele>
        <time>2019-08-13T07:34:45Z</time>
      </trkpt>
      <trkpt lat="42.623759" lon="-0.113408">
        <ele>1077.98</ele>
        <time>2019-08-13T07:34:50Z</time>
      </trkpt>
      <trkpt lat="42.623776" lon="-0.113371">
        <ele>1076.56</ele>
        <time>2019-08-13T07:34:52Z</time>
      </trkpt>
      <trkpt lat="42.623816" lon="-0.113324">
        <ele>1075.0</ele>
        <time>2019-08-13T07:34:57Z</time>
      </trkpt>
      <trkpt lat="42.623836" lon="-0.113296">
        <ele>1072.89</ele>
        <time>2019-08-13T07:34:58Z</time>
      </trkpt>
      <trkpt lat="42.623816" lon="-0.113324">
        <ele>1075.0</ele>
        <time>2019-08-13T07:35:07Z</time>
      </trkpt>
      <trkpt lat="42.623868" lon="-0.113272">
        <ele>1068.32</ele>
        <time>2019-08-13T07:35:30Z</time>
      </trkpt>
      <trkpt lat="42.623904" lon="-0.113221">
        <ele>1065.52</ele>
        <time>2019-08-13T07:35:33Z</time>
      </trkpt>
      <trkpt lat="42.623942" lon="-0.113153">
        <ele>1065.16</ele>
        <time>2019-08-13T07:35:36Z</time>
      </trkpt>
      <trkpt lat="42.623976" lon="-0.113087">
        <ele>1064.91</ele>
        <time>2019-08-13T07:35:39Z</time>
      </trkpt>
      <trkpt lat="42.623991" lon="-0.113053">
        <ele>1065.83</ele>
        <time>2019-08-13T07:35:41Z</time>
      </trkpt>
      <trkpt lat="42.624019" lon="-0.113003">
        <ele>1065.02</ele>
        <time>2019-08-13T07:35:44Z</time>
      </trkpt>
      <trkpt lat="42.624038" lon="-0.112963">
        <ele>1062.74</ele>
        <time>2019-08-13T07:35:47Z</time>
      </trkpt>
      <trkpt lat="42.624075" lon="-0.11292">
        <ele>1063.53</ele>
        <time>2019-08-13T07:35:51Z</time>
      </trkpt>
      <trkpt lat="42.624105" lon="-0.112869">
        <ele>1060.7</ele>
        <time>2019-08-13T07:35:54Z</time>
      </trkpt>
      <trkpt lat="42.624123" lon="-0.112836">
        <ele>1061.69</ele>
        <time>2019-08-13T07:35:56Z</time>
      </trkpt>
      <trkpt lat="42.624163" lon="-0.112795">
        <ele>1061.54</ele>
        <time>2019-08-13T07:36:00Z</time>
      </trkpt>
      <trkpt lat="42.6242" lon="-0.112744">
        <ele>1064.01</ele>
        <time>2019-08-13T07:36:04Z</time>
      </trkpt>
      <trkpt lat="42.624232" lon="-0.112688">
        <ele>1066.31</ele>
        <time>2019-08-13T07:36:07Z</time>
      </trkpt>
      <trkpt lat="42.624258" lon="-0.112631">
        <ele>1065.18</ele>
        <time>2019-08-13T07:36:10Z</time>
      </trkpt>
      <trkpt lat="42.624274" lon="-0.112598">
        <ele>1065.83</ele>
        <time>2019-08-13T07:36:12Z</time>
      </trkpt>
      <trkpt lat="42.624321" lon="-0.112548">
        <ele>1064.74</ele>
        <time>2019-08-13T07:36:16Z</time>
      </trkpt>
      <trkpt lat="42.624372" lon="-0.112529">
        <ele>1065.52</ele>
        <time>2019-08-13T07:36:21Z</time>
      </trkpt>
      <trkpt lat="42.624419" lon="-0.112511">
        <ele>1067.18</ele>
        <time>2019-08-13T07:36:24Z</time>
      </trkpt>
      <trkpt lat="42.624467" lon="-0.112486">
        <ele>1066.11</ele>
        <time>2019-08-13T07:36:27Z</time>
      </trkpt>
      <trkpt lat="42.624497" lon="-0.112472">
        <ele>1066.81</ele>
        <time>2019-08-13T07:36:30Z</time>
      </trkpt>
      <trkpt lat="42.624542" lon="-0.112489">
        <ele>1066.6</ele>
        <time>2019-08-13T07:36:34Z</time>
      </trkpt>
      <trkpt lat="42.624592" lon="-0.112477">
        <ele>1065.12</ele>
        <time>2019-08-13T07:36:37Z</time>
      </trkpt>
      <trkpt lat="42.624642" lon="-0.112484">
        <ele>1066.89</ele>
        <time>2019-08-13T07:36:41Z</time>
      </trkpt>
      <trkpt lat="42.624668" lon="-0.112491">
        <ele>1068.23</ele>
        <time>2019-08-13T07:36:43Z</time>
      </trkpt>
      <trkpt lat="42.624739" lon="-0.11249">
        <ele>1064.95</ele>
        <time>2019-08-13T07:36:48Z</time>
      </trkpt>
      <trkpt lat="42.624767" lon="-0.112493">
        <ele>1065.43</ele>
        <time>2019-08-13T07:36:50Z</time>
      </trkpt>
      <trkpt lat="42.624813" lon="-0.112436">
        <ele>1065.68</ele>
        <time>2019-08-13T07:36:57Z</time>
      </trkpt>
      <trkpt lat="42.624801" lon="-0.112414">
        <ele>1065.53</ele>
        <time>2019-08-13T07:37:06Z</time>
      </trkpt>
      <trkpt lat="42.624852" lon="-0.112407">
        <ele>1071.96</ele>
        <time>2019-08-13T07:38:59Z</time>
      </trkpt>
      <trkpt lat="42.62491" lon="-0.112432">
        <ele>1072.04</ele>
        <time>2019-08-13T07:39:04Z</time>
      </trkpt>
      <trkpt lat="42.624933" lon="-0.112445">
        <ele>1071.21</ele>
        <time>2019-08-13T07:39:06Z</time>
      </trkpt>
      <trkpt lat="42.624972" lon="-0.112469">
        <ele>1070.88</ele>
        <time>2019-08-13T07:39:10Z</time>
      </trkpt>
      <trkpt lat="42.625017" lon="-0.112476">
        <ele>1073.43</ele>
        <time>2019-08-13T07:39:15Z</time>
      </trkpt>
      <trkpt lat="42.625058" lon="-0.11252">
        <ele>1071.62</ele>
        <time>2019-08-13T07:39:21Z</time>
      </trkpt>
      <trkpt lat="42.625108" lon="-0.112549">
        <ele>1072.57</ele>
        <time>2019-08-13T07:39:25Z</time>
      </trkpt>
      <trkpt lat="42.625136" lon="-0.112567">
        <ele>1072.44</ele>
        <time>2019-08-13T07:39:27Z</time>
      </trkpt>
      <trkpt lat="42.625121" lon="-0.112628">
        <ele>1071.83</ele>
        <time>2019-08-13T07:39:36Z</time>
      </trkpt>
      <trkpt lat="42.625084" lon="-0.11267">
        <ele>1067.35</ele>
        <time>2019-08-13T07:39:43Z</time>
      </trkpt>
      <trkpt lat="42.625059" lon="-0.1127">
        <ele>1068.79</ele>
        <time>2019-08-13T07:39:48Z</time>
      </trkpt>
      <trkpt lat="42.625007" lon="-0.112681">
        <ele>1069.16</ele>
        <time>2019-08-13T07:39:52Z</time>
      </trkpt>
      <trkpt lat="42.624965" lon="-0.112658">
        <ele>1067.01</ele>
        <time>2019-08-13T07:39:55Z</time>
      </trkpt>
      <trkpt lat="42.624933" lon="-0.112644">
        <ele>1068.43</ele>
        <time>2019-08-13T07:39:58Z</time>
      </trkpt>
      <trkpt lat="42.624891" lon="-0.112621">
        <ele>1071.3</ele>
        <time>2019-08-13T07:40:02Z</time>
      </trkpt>
      <trkpt lat="42.624842" lon="-0.112607">
        <ele>1071.89</ele>
        <time>2019-08-13T07:40:06Z</time>
      </trkpt>
      <trkpt lat="42.624817" lon="-0.112599">
        <ele>1071.77</ele>
        <time>2019-08-13T07:40:08Z</time>
      </trkpt>
      <trkpt lat="42.624767" lon="-0.112598">
        <ele>1071.19</ele>
        <time>2019-08-13T07:40:12Z</time>
      </trkpt>
      <trkpt lat="42.624714" lon="-0.112623">
        <ele>1071.98</ele>
        <time>2019-08-13T07:40:17Z</time>
      </trkpt>
      <trkpt lat="42.62466" lon="-0.112616">
        <ele>1070.88</ele>
        <time>2019-08-13T07:40:21Z</time>
      </trkpt>
      <trkpt lat="42.624606" lon="-0.112608">
        <ele>1070.49</ele>
        <time>2019-08-13T07:40:27Z</time>
      </trkpt>
      <trkpt lat="42.624556" lon="-0.112647">
        <ele>1073.52</ele>
        <time>2019-08-13T07:40:31Z</time>
      </trkpt>
      <trkpt lat="42.624535" lon="-0.112663">
        <ele>1075.04</ele>
        <time>2019-08-13T07:40:33Z</time>
      </trkpt>
      <trkpt lat="42.624487" lon="-0.112651">
        <ele>1072.97</ele>
        <time>2019-08-13T07:40:37Z</time>
      </trkpt>
      <trkpt lat="42.624439" lon="-0.112668">
        <ele>1074.39</ele>
        <time>2019-08-13T07:40:41Z</time>
      </trkpt>
      <trkpt lat="42.624392" lon="-0.1127">
        <ele>1074.75</ele>
        <time>2019-08-13T07:40:45Z</time>
      </trkpt>
      <trkpt lat="42.624349" lon="-0.112717">
        <ele>1071.36</ele>
        <time>2019-08-13T07:40:48Z</time>
      </trkpt>
      <trkpt lat="42.624349" lon="-0.112717">
        <ele>1071.36</ele>
        <time>2019-08-13T07:40:54Z</time>
      </trkpt>
      <trkpt lat="42.624349" lon="-0.112717">
        <ele>1071.36</ele>
        <time>2019-08-13T07:40:55Z</time>
      </trkpt>
      <trkpt lat="42.624303" lon="-0.112746">
        <ele>1073.28</ele>
        <time>2019-08-13T07:40:56Z</time>
      </trkpt>
      <trkpt lat="42.62428" lon="-0.112759">
        <ele>1073.11</ele>
        <time>2019-08-13T07:40:59Z</time>
      </trkpt>
      <trkpt lat="42.62426" lon="-0.112773">
        <ele>1074.57</ele>
        <time>2019-08-13T07:41:05Z</time>
      </trkpt>
      <trkpt lat="42.624214" lon="-0.112828">
        <ele>1073.69</ele>
        <time>2019-08-13T07:41:27Z</time>
      </trkpt>
      <trkpt lat="42.624209" lon="-0.112911">
        <ele>1074.99</ele>
        <time>2019-08-13T07:41:30Z</time>
      </trkpt>
      <trkpt lat="42.624203" lon="-0.112957">
        <ele>1074.93</ele>
        <time>2019-08-13T07:41:32Z</time>
      </trkpt>
      <trkpt lat="42.624183" lon="-0.113033">
        <ele>1075.23</ele>
        <time>2019-08-13T07:41:36Z</time>
      </trkpt>
      <trkpt lat="42.624163" lon="-0.113108">
        <ele>1075.94</ele>
        <time>2019-08-13T07:41:40Z</time>
      </trkpt>
      <trkpt lat="42.624132" lon="-0.113163">
        <ele>1075.15</ele>
        <time>2019-08-13T07:41:43Z</time>
      </trkpt>
      <trkpt lat="42.624095" lon="-0.113209">
        <ele>1076.97</ele>
        <time>2019-08-13T07:41:46Z</time>
      </trkpt>
      <trkpt lat="42.624068" lon="-0.113269">
        <ele>1078.74</ele>
        <time>2019-08-13T07:41:51Z</time>
      </trkpt>
      <trkpt lat="42.624028" lon="-0.113307">
        <ele>1076.43</ele>
        <time>2019-08-13T07:41:58Z</time>
      </trkpt>
      <trkpt lat="42.623994" lon="-0.113338">
        <ele>1079.11</ele>
        <time>2019-08-13T07:42:03Z</time>
      </trkpt>
      <trkpt lat="42.623959" lon="-0.113391">
        <ele>1076.11</ele>
        <time>2019-08-13T07:42:07Z</time>
      </trkpt>
      <trkpt lat="42.623928" lon="-0.113456">
        <ele>1074.74</ele>
        <time>2019-08-13T07:42:12Z</time>
      </trkpt>
      <trkpt lat="42.623896" lon="-0.113505">
        <ele>1074.84</ele>
        <time>2019-08-13T07:42:16Z</time>
      </trkpt>
      <trkpt lat="42.623859" lon="-0.113545">
        <ele>1073.51</ele>
        <time>2019-08-13T07:42:19Z</time>
      </trkpt>
      <trkpt lat="42.623836" lon="-0.113623">
        <ele>1070.14</ele>
        <time>2019-08-13T07:42:24Z</time>
      </trkpt>
      <trkpt lat="42.623807" lon="-0.113675">
        <ele>1069.99</ele>
        <time>2019-08-13T07:42:28Z</time>
      </trkpt>
      <trkpt lat="42.623769" lon="-0.11372">
        <ele>1067.47</ele>
        <time>2019-08-13T07:42:32Z</time>
      </trkpt>
      <trkpt lat="42.623736" lon="-0.113759">
        <ele>1071.75</ele>
        <time>2019-08-13T07:42:39Z</time>
      </trkpt>
      <trkpt lat="42.62369" lon="-0.113789">
        <ele>1068.44</ele>
        <time>2019-08-13T07:42:45Z</time>
      </trkpt>
      <trkpt lat="42.623658" lon="-0.11385">
        <ele>1066.47</ele>
        <time>2019-08-13T07:42:50Z</time>
      </trkpt>
      <trkpt lat="42.623614" lon="-0.113877">
        <ele>1068.57</ele>
        <time>2019-08-13T07:42:55Z</time>
      </trkpt>
      <trkpt lat="42.623575" lon="-0.11393">
        <ele>1070.66</ele>
        <time>2019-08-13T07:42:58Z</time>
      </trkpt>
      <trkpt lat="42.623546" lon="-0.113987">
        <ele>1072.01</ele>
        <time>2019-08-13T07:43:02Z</time>
      </trkpt>
      <trkpt lat="42.623526" lon="-0.114043">
        <ele>1069.86</ele>
        <time>2019-08-13T07:43:05Z</time>
      </trkpt>
      <trkpt lat="42.623487" lon="-0.1141">
        <ele>1070.23</ele>
        <time>2019-08-13T07:43:09Z</time>
      </trkpt>
      <trkpt lat="42.623475" lon="-0.114161">
        <ele>1070.83</ele>
        <time>2019-08-13T07:43:17Z</time>
      </trkpt>
      <trkpt lat="42.623465" lon="-0.114198">
        <ele>1069.25</ele>
        <time>2019-08-13T07:43:19Z</time>
      </trkpt>
      <trkpt lat="42.62343" lon="-0.114247">
        <ele>1070.02</ele>
        <time>2019-08-13T07:43:23Z</time>
      </trkpt>
      <trkpt lat="42.623392" lon="-0.114284">
        <ele>1070.1</ele>
        <time>2019-08-13T07:43:27Z</time>
      </trkpt>
      <trkpt lat="42.623335" lon="-0.114276">
        <ele>1068.27</ele>
        <time>2019-08-13T07:43:30Z</time>
      </trkpt>
      <trkpt lat="42.6233" lon="-0.114268">
        <ele>1068.68</ele>
        <time>2019-08-13T07:43:32Z</time>
      </trkpt>
      <trkpt lat="42.623257" lon="-0.114291">
        <ele>1067.62</ele>
        <time>2019-08-13T07:43:36Z</time>
      </trkpt>
      <trkpt lat="42.623213" lon="-0.114314">
        <ele>1067.76</ele>
        <time>2019-08-13T07:43:40Z</time>
      </trkpt>
      <trkpt lat="42.623172" lon="-0.114359">
        <ele>1070.45</ele>
        <time>2019-08-13T07:43:46Z</time>
      </trkpt>
      <trkpt lat="42.623145" lon="-0.114389">
        <ele>1070.15</ele>
        <time>2019-08-13T07:43:53Z</time>
      </trkpt>
      <trkpt lat="42.623123" lon="-0.114444">
        <ele>1071.84</ele>
        <time>2019-08-13T07:43:58Z</time>
      </trkpt>
      <trkpt lat="42.623083" lon="-0.11449">
        <ele>1073.71</ele>
        <time>2019-08-13T07:44:03Z</time>
      </trkpt>
      <trkpt lat="42.623052" lon="-0.114547">
        <ele>1072.85</ele>
        <time>2019-08-13T07:44:08Z</time>
      </trkpt>
      <trkpt lat="42.623034" lon="-0.114604">
        <ele>1075.04</ele>
        <time>2019-08-13T07:44:12Z</time>
      </trkpt>
      <trkpt lat="42.623019" lon="-0.114646">
        <ele>1075.86</ele>
        <time>2019-08-13T07:44:15Z</time>
      </trkpt>
      <trkpt lat="42.623025" lon="-0.114711">
        <ele>1074.57</ele>
        <time>2019-08-13T07:44:18Z</time>
      </trkpt>
      <trkpt lat="42.62297" lon="-0.114743">
        <ele>1077.56</ele>
        <time>2019-08-13T07:44:26Z</time>
      </trkpt>
      <trkpt lat="42.62292" lon="-0.11474">
        <ele>1078.74</ele>
        <time>2019-08-13T07:44:33Z</time>
      </trkpt>
      <trkpt lat="42.622832" lon="-0.114745">
        <ele>1075.58</ele>
        <time>2019-08-13T07:44:39Z</time>
      </trkpt>
      <trkpt lat="42.622786" lon="-0.114755">
        <ele>1076.91</ele>
        <time>2019-08-13T07:44:42Z</time>
      </trkpt>
      <trkpt lat="42.622738" lon="-0.114787">
        <ele>1076.0</ele>
        <time>2019-08-13T07:44:49Z</time>
      </trkpt>
      <trkpt lat="42.622694" lon="-0.114826">
        <ele>1077.19</ele>
        <time>2019-08-13T07:44:54Z</time>
      </trkpt>
      <trkpt lat="42.622648" lon="-0.11483">
        <ele>1078.36</ele>
        <time>2019-08-13T07:44:58Z</time>
      </trkpt>
      <trkpt lat="42.622612" lon="-0.114877">
        <ele>1080.29</ele>
        <time>2019-08-13T07:45:04Z</time>
      </trkpt>
      <trkpt lat="42.622597" lon="-0.114939">
        <ele>1080.77</ele>
        <time>2019-08-13T07:45:08Z</time>
      </trkpt>
      <trkpt lat="42.622555" lon="-0.114983">
        <ele>1084.35</ele>
        <time>2019-08-13T07:45:13Z</time>
      </trkpt>
      <trkpt lat="42.622527" lon="-0.11501">
        <ele>1084.72</ele>
        <time>2019-08-13T07:45:17Z</time>
      </trkpt>
      <trkpt lat="42.622502" lon="-0.115066">
        <ele>1083.28</ele>
        <time>2019-08-13T07:45:23Z</time>
      </trkpt>
      <trkpt lat="42.622424" lon="-0.115076">
        <ele>1085.16</ele>
        <time>2019-08-13T07:45:30Z</time>
      </trkpt>
      <trkpt lat="42.622375" lon="-0.115059">
        <ele>1087.42</ele>
        <time>2019-08-13T07:45:36Z</time>
      </trkpt>
      <trkpt lat="42.622343" lon="-0.115046">
        <ele>1092.41</ele>
        <time>2019-08-13T07:45:43Z</time>
      </trkpt>
      <trkpt lat="42.622308" lon="-0.11509">
        <ele>1094.59</ele>
        <time>2019-08-13T07:45:51Z</time>
      </trkpt>
      <trkpt lat="42.622288" lon="-0.115149">
        <ele>1095.07</ele>
        <time>2019-08-13T07:45:59Z</time>
      </trkpt>
      <trkpt lat="42.622273" lon="-0.115222">
        <ele>1094.81</ele>
        <time>2019-08-13T07:46:04Z</time>
      </trkpt>
      <trkpt lat="42.622218" lon="-0.115223">
        <ele>1096.66</ele>
        <time>2019-08-13T07:46:08Z</time>
      </trkpt>
      <trkpt lat="42.622181" lon="-0.115228">
        <ele>1096.47</ele>
        <time>2019-08-13T07:46:11Z</time>
      </trkpt>
      <trkpt lat="42.622138" lon="-0.115252">
        <ele>1095.73</ele>
        <time>2019-08-13T07:46:17Z</time>
      </trkpt>
      <trkpt lat="42.622115" lon="-0.115265">
        <ele>1097.25</ele>
        <time>2019-08-13T07:46:21Z</time>
      </trkpt>
      <trkpt lat="42.622072" lon="-0.115307">
        <ele>1098.62</ele>
        <time>2019-08-13T07:46:27Z</time>
      </trkpt>
      <trkpt lat="42.622029" lon="-0.115339">
        <ele>1097.74</ele>
        <time>2019-08-13T07:46:31Z</time>
      </trkpt>
      <trkpt lat="42.621973" lon="-0.115353">
        <ele>1094.84</ele>
        <time>2019-08-13T07:46:36Z</time>
      </trkpt>
      <trkpt lat="42.621936" lon="-0.115358">
        <ele>1092.99</ele>
        <time>2019-08-13T07:46:38Z</time>
      </trkpt>
      <trkpt lat="42.621898" lon="-0.115393">
        <ele>1091.05</ele>
        <time>2019-08-13T07:46:44Z</time>
      </trkpt>
      <trkpt lat="42.621872" lon="-0.115444">
        <ele>1093.44</ele>
        <time>2019-08-13T07:46:52Z</time>
      </trkpt>
      <trkpt lat="42.621827" lon="-0.115461">
        <ele>1091.51</ele>
        <time>2019-08-13T07:47:00Z</time>
      </trkpt>
      <trkpt lat="42.621789" lon="-0.115474">
        <ele>1091.16</ele>
        <time>2019-08-13T07:47:06Z</time>
      </trkpt>
      <trkpt lat="42.621736" lon="-0.115468">
        <ele>1092.74</ele>
        <time>2019-08-13T07:47:11Z</time>
      </trkpt>
      <trkpt lat="42.621701" lon="-0.115468">
        <ele>1094.39</ele>
        <time>2019-08-13T07:47:14Z</time>
      </trkpt>
      <trkpt lat="42.621658" lon="-0.115514">
        <ele>1096.94</ele>
        <time>2019-08-13T07:47:21Z</time>
      </trkpt>
      <trkpt lat="42.621609" lon="-0.115489">
        <ele>1097.62</ele>
        <time>2019-08-13T07:47:26Z</time>
      </trkpt>
      <trkpt lat="42.621561" lon="-0.115517">
        <ele>1096.37</ele>
        <time>2019-08-13T07:47:30Z</time>
      </trkpt>
      <trkpt lat="42.621509" lon="-0.115541">
        <ele>1096.35</ele>
        <time>2019-08-13T07:47:33Z</time>
      </trkpt>
      <trkpt lat="42.62145" lon="-0.115551">
        <ele>1100.19</ele>
        <time>2019-08-13T07:47:39Z</time>
      </trkpt>
      <trkpt lat="42.621435" lon="-0.115621">
        <ele>1101.28</ele>
        <time>2019-08-13T07:47:42Z</time>
      </trkpt>
      <trkpt lat="42.621444" lon="-0.115684">
        <ele>1101.34</ele>
        <time>2019-08-13T07:47:44Z</time>
      </trkpt>
      <trkpt lat="42.62144" lon="-0.115756">
        <ele>1102.76</ele>
        <time>2019-08-13T07:47:49Z</time>
      </trkpt>
      <trkpt lat="42.621371" lon="-0.115753">
        <ele>1106.03</ele>
        <time>2019-08-13T07:47:55Z</time>
      </trkpt>
      <trkpt lat="42.621315" lon="-0.115743">
        <ele>1107.34</ele>
        <time>2019-08-13T07:48:00Z</time>
      </trkpt>
      <trkpt lat="42.621268" lon="-0.115727">
        <ele>1107.75</ele>
        <time>2019-08-13T07:48:04Z</time>
      </trkpt>
      <trkpt lat="42.62124" lon="-0.115718">
        <ele>1110.4</ele>
        <time>2019-08-13T07:48:08Z</time>
      </trkpt>
      <trkpt lat="42.621193" lon="-0.115702">
        <ele>1110.54</ele>
        <time>2019-08-13T07:48:13Z</time>
      </trkpt>
      <trkpt lat="42.62115" lon="-0.115724">
        <ele>1110.73</ele>
        <time>2019-08-13T07:48:17Z</time>
      </trkpt>
      <trkpt lat="42.62111" lon="-0.115743">
        <ele>1113.26</ele>
        <time>2019-08-13T07:48:21Z</time>
      </trkpt>
      <trkpt lat="42.62108" lon="-0.11579">
        <ele>1116.16</ele>
        <time>2019-08-13T07:48:25Z</time>
      </trkpt>
      <trkpt lat="42.621033" lon="-0.115825">
        <ele>1119.11</ele>
        <time>2019-08-13T07:48:31Z</time>
      </trkpt>
      <trkpt lat="42.621033" lon="-0.115825">
        <ele>1119.11</ele>
        <time>2019-08-13T07:48:38Z</time>
      </trkpt>
      <trkpt lat="42.621005" lon="-0.11585">
        <ele>1123.83</ele>
        <time>2019-08-13T07:48:39Z</time>
      </trkpt>
      <trkpt lat="42.620998" lon="-0.115916">
        <ele>1124.05</ele>
        <time>2019-08-13T07:48:45Z</time>
      </trkpt>
      <trkpt lat="42.620969" lon="-0.115966">
        <ele>1126.05</ele>
        <time>2019-08-13T07:48:51Z</time>
      </trkpt>
      <trkpt lat="42.620926" lon="-0.115984">
        <ele>1124.63</ele>
        <time>2019-08-13T07:48:58Z</time>
      </trkpt>
      <trkpt lat="42.620898" lon="-0.116044">
        <ele>1123.97</ele>
        <time>2019-08-13T07:49:05Z</time>
      </trkpt>
      <trkpt lat="42.620876" lon="-0.116116">
        <ele>1123.87</ele>
        <time>2019-08-13T07:49:10Z</time>
      </trkpt>
      <trkpt lat="42.62086" lon="-0.116172">
        <ele>1125.54</ele>
        <time>2019-08-13T07:49:15Z</time>
      </trkpt>
      <trkpt lat="42.620816" lon="-0.116204">
        <ele>1125.07</ele>
        <time>2019-08-13T07:49:20Z</time>
      </trkpt>
      <trkpt lat="42.620781" lon="-0.116249">
        <ele>1127.93</ele>
        <time>2019-08-13T07:49:29Z</time>
      </trkpt>
      <trkpt lat="42.620785" lon="-0.11632">
        <ele>1127.1</ele>
        <time>2019-08-13T07:49:37Z</time>
      </trkpt>
      <trkpt lat="42.620749" lon="-0.116372">
        <ele>1126.35</ele>
        <time>2019-08-13T07:49:42Z</time>
      </trkpt>
      <trkpt lat="42.620715" lon="-0.116413">
        <ele>1128.8</ele>
        <time>2019-08-13T07:49:47Z</time>
      </trkpt>
      <trkpt lat="42.620698" lon="-0.116474">
        <ele>1130.43</ele>
        <time>2019-08-13T07:49:51Z</time>
      </trkpt>
      <trkpt lat="42.620652" lon="-0.116518">
        <ele>1130.87</ele>
        <time>2019-08-13T07:49:56Z</time>
      </trkpt>
      <trkpt lat="42.620606" lon="-0.116481">
        <ele>1130.06</ele>
        <time>2019-08-13T07:50:01Z</time>
      </trkpt>
      <trkpt lat="42.620563" lon="-0.116516">
        <ele>1127.6</ele>
        <time>2019-08-13T07:50:07Z</time>
      </trkpt>
      <trkpt lat="42.620538" lon="-0.116539">
        <ele>1127.45</ele>
        <time>2019-08-13T07:50:09Z</time>
      </trkpt>
      <trkpt lat="42.620504" lon="-0.116593">
        <ele>1126.14</ele>
        <time>2019-08-13T07:50:13Z</time>
      </trkpt>
      <trkpt lat="42.620442" lon="-0.116581">
        <ele>1129.25</ele>
        <time>2019-08-13T07:50:19Z</time>
      </trkpt>
      <trkpt lat="42.620399" lon="-0.116621">
        <ele>1132.54</ele>
        <time>2019-08-13T07:50:24Z</time>
      </trkpt>
      <trkpt lat="42.620387" lon="-0.116688">
        <ele>1136.3</ele>
        <time>2019-08-13T07:50:28Z</time>
      </trkpt>
      <trkpt lat="42.620379" lon="-0.116721">
        <ele>1135.27</ele>
        <time>2019-08-13T07:50:30Z</time>
      </trkpt>
      <trkpt lat="42.620372" lon="-0.116757">
        <ele>1136.76</ele>
        <time>2019-08-13T07:50:34Z</time>
      </trkpt>
      <trkpt lat="42.620351" lon="-0.116821">
        <ele>1136.08</ele>
        <time>2019-08-13T07:50:39Z</time>
      </trkpt>
      <trkpt lat="42.620306" lon="-0.116857">
        <ele>1138.65</ele>
        <time>2019-08-13T07:50:44Z</time>
      </trkpt>
      <trkpt lat="42.620268" lon="-0.116888">
        <ele>1138.98</ele>
        <time>2019-08-13T07:50:50Z</time>
      </trkpt>
      <trkpt lat="42.620243" lon="-0.116944">
        <ele>1137.15</ele>
        <time>2019-08-13T07:50:54Z</time>
      </trkpt>
      <trkpt lat="42.62022" lon="-0.117001">
        <ele>1138.33</ele>
        <time>2019-08-13T07:50:59Z</time>
      </trkpt>
      <trkpt lat="42.620148" lon="-0.116956">
        <ele>1140.64</ele>
        <time>2019-08-13T07:51:06Z</time>
      </trkpt>
      <trkpt lat="42.620102" lon="-0.116976">
        <ele>1138.74</ele>
        <time>2019-08-13T07:51:12Z</time>
      </trkpt>
      <trkpt lat="42.620052" lon="-0.117017">
        <ele>1140.29</ele>
        <time>2019-08-13T07:51:16Z</time>
      </trkpt>
      <trkpt lat="42.620052" lon="-0.117017">
        <ele>1140.29</ele>
        <time>2019-08-13T07:51:24Z</time>
      </trkpt>
      <trkpt lat="42.620052" lon="-0.117017">
        <ele>1140.29</ele>
        <time>2019-08-13T07:51:25Z</time>
      </trkpt>
      <trkpt lat="42.620005" lon="-0.117033">
        <ele>1140.96</ele>
        <time>2019-08-13T07:51:28Z</time>
      </trkpt>
      <trkpt lat="42.619947" lon="-0.117043">
        <ele>1145.14</ele>
        <time>2019-08-13T07:51:37Z</time>
      </trkpt>
      <trkpt lat="42.619899" lon="-0.11704">
        <ele>1145.6</ele>
        <time>2019-08-13T07:51:40Z</time>
      </trkpt>
      <trkpt lat="42.619853" lon="-0.117053">
        <ele>1148.89</ele>
        <time>2019-08-13T07:51:43Z</time>
      </trkpt>
      <trkpt lat="42.619807" lon="-0.117088">
        <ele>1149.79</ele>
        <time>2019-08-13T07:51:47Z</time>
      </trkpt>
      <trkpt lat="42.619786" lon="-0.117104">
        <ele>1151.4</ele>
        <time>2019-08-13T07:51:49Z</time>
      </trkpt>
      <trkpt lat="42.619744" lon="-0.117131">
        <ele>1150.51</ele>
        <time>2019-08-13T07:51:54Z</time>
      </trkpt>
      <trkpt lat="42.619719" lon="-0.117151">
        <ele>1152.01</ele>
        <time>2019-08-13T07:51:56Z</time>
      </trkpt>
      <trkpt lat="42.619665" lon="-0.117139">
        <ele>1150.94</ele>
        <time>2019-08-13T07:52:00Z</time>
      </trkpt>
      <trkpt lat="42.619622" lon="-0.117099">
        <ele>1150.8</ele>
        <time>2019-08-13T07:52:06Z</time>
      </trkpt>
      <trkpt lat="42.61957" lon="-0.117111">
        <ele>1150.47</ele>
        <time>2019-08-13T07:52:14Z</time>
      </trkpt>
      <trkpt lat="42.619532" lon="-0.117068">
        <ele>1149.58</ele>
        <time>2019-08-13T07:52:18Z</time>
      </trkpt>
      <trkpt lat="42.619484" lon="-0.117071">
        <ele>1148.88</ele>
        <time>2019-08-13T07:52:22Z</time>
      </trkpt>
      <trkpt lat="42.619449" lon="-0.117116">
        <ele>1143.18</ele>
        <time>2019-08-13T07:52:27Z</time>
      </trkpt>
      <trkpt lat="42.619396" lon="-0.117134">
        <ele>1139.0</ele>
        <time>2019-08-13T07:52:31Z</time>
      </trkpt>
      <trkpt lat="42.619344" lon="-0.117156">
        <ele>1137.08</ele>
        <time>2019-08-13T07:52:36Z</time>
      </trkpt>
      <trkpt lat="42.61929" lon="-0.117145">
        <ele>1137.37</ele>
        <time>2019-08-13T07:52:41Z</time>
      </trkpt>
      <trkpt lat="42.619249" lon="-0.117095">
        <ele>1138.09</ele>
        <time>2019-08-13T07:52:44Z</time>
      </trkpt>
      <trkpt lat="42.619203" lon="-0.117094">
        <ele>1139.67</ele>
        <time>2019-08-13T07:52:48Z</time>
      </trkpt>
      <trkpt lat="42.619165" lon="-0.117153">
        <ele>1140.02</ele>
        <time>2019-08-13T07:52:54Z</time>
      </trkpt>
      <trkpt lat="42.619137" lon="-0.117191">
        <ele>1141.67</ele>
        <time>2019-08-13T07:52:57Z</time>
      </trkpt>
      <trkpt lat="42.619068" lon="-0.117246">
        <ele>1145.34</ele>
        <time>2019-08-13T07:53:03Z</time>
      </trkpt>
      <trkpt lat="42.619032" lon="-0.117296">
        <ele>1147.38</ele>
        <time>2019-08-13T07:53:07Z</time>
      </trkpt>
      <trkpt lat="42.619008" lon="-0.117326">
        <ele>1146.85</ele>
        <time>2019-08-13T07:53:10Z</time>
      </trkpt>
      <trkpt lat="42.618989" lon="-0.117386">
        <ele>1147.14</ele>
        <time>2019-08-13T07:53:13Z</time>
      </trkpt>
      <trkpt lat="42.61898" lon="-0.117423">
        <ele>1146.82</ele>
        <time>2019-08-13T07:53:15Z</time>
      </trkpt>
      <trkpt lat="42.618971" lon="-0.117464">
        <ele>1148.17</ele>
        <time>2019-08-13T07:53:17Z</time>
      </trkpt>
      <trkpt lat="42.618921" lon="-0.117472">
        <ele>1151.87</ele>
        <time>2019-08-13T07:53:23Z</time>
      </trkpt>
      <trkpt lat="42.61888" lon="-0.11742">
        <ele>1149.66</ele>
        <time>2019-08-13T07:53:26Z</time>
      </trkpt>
      <trkpt lat="42.618824" lon="-0.117406">
        <ele>1147.18</ele>
        <time>2019-08-13T07:53:31Z</time>
      </trkpt>
      <trkpt lat="42.61879" lon="-0.117452">
        <ele>1146.78</ele>
        <time>2019-08-13T07:53:36Z</time>
      </trkpt>
      <trkpt lat="42.618753" lon="-0.117497">
        <ele>1146.85</ele>
        <time>2019-08-13T07:53:40Z</time>
      </trkpt>
      <trkpt lat="42.618705" lon="-0.117527">
        <ele>1145.59</ele>
        <time>2019-08-13T07:53:44Z</time>
      </trkpt>
      <trkpt lat="42.618641" lon="-0.117539">
        <ele>1147.2</ele>
        <time>2019-08-13T07:53:49Z</time>
      </trkpt>
      <trkpt lat="42.618604" lon="-0.117575">
        <ele>1148.45</ele>
        <time>2019-08-13T07:53:54Z</time>
      </trkpt>
      <trkpt lat="42.61855" lon="-0.117555">
        <ele>1151.81</ele>
        <time>2019-08-13T07:54:01Z</time>
      </trkpt>
      <trkpt lat="42.618515" lon="-0.117542">
        <ele>1150.59</ele>
        <time>2019-08-13T07:54:03Z</time>
      </trkpt>
      <trkpt lat="42.618464" lon="-0.117534">
        <ele>1150.33</ele>
        <time>2019-08-13T07:54:07Z</time>
      </trkpt>
      <trkpt lat="42.618423" lon="-0.117575">
        <ele>1145.99</ele>
        <time>2019-08-13T07:54:14Z</time>
      </trkpt>
      <trkpt lat="42.61837" lon="-0.117595">
        <ele>1145.23</ele>
        <time>2019-08-13T07:54:19Z</time>
      </trkpt>
      <trkpt lat="42.618341" lon="-0.117605">
        <ele>1145.23</ele>
        <time>2019-08-13T07:54:21Z</time>
      </trkpt>
      <trkpt lat="42.618291" lon="-0.11763">
        <ele>1145.54</ele>
        <time>2019-08-13T07:54:25Z</time>
      </trkpt>
      <trkpt lat="42.61826" lon="-0.117677">
        <ele>1145.05</ele>
        <time>2019-08-13T07:54:28Z</time>
      </trkpt>
      <trkpt lat="42.618265" lon="-0.117692">
        <ele>1148.08</ele>
        <time>2019-08-13T07:54:36Z</time>
      </trkpt>
      <trkpt lat="42.618197" lon="-0.117723">
        <ele>1150.07</ele>
        <time>2019-08-13T07:56:32Z</time>
      </trkpt>
      <trkpt lat="42.618154" lon="-0.117739">
        <ele>1151.05</ele>
        <time>2019-08-13T07:56:35Z</time>
      </trkpt>
      <trkpt lat="42.618105" lon="-0.117773">
        <ele>1149.29</ele>
        <time>2019-08-13T07:56:38Z</time>
      </trkpt>
      <trkpt lat="42.618078" lon="-0.117828">
        <ele>1147.25</ele>
        <time>2019-08-13T07:56:40Z</time>
      </trkpt>
      <trkpt lat="42.618053" lon="-0.117887">
        <ele>1146.32</ele>
        <time>2019-08-13T07:56:42Z</time>
      </trkpt>
      <trkpt lat="42.618031" lon="-0.117935">
        <ele>1145.06</ele>
        <time>2019-08-13T07:56:44Z</time>
      </trkpt>
      <trkpt lat="42.617997" lon="-0.117992">
        <ele>1147.22</ele>
        <time>2019-08-13T07:56:47Z</time>
      </trkpt>
      <trkpt lat="42.617977" lon="-0.118023">
        <ele>1148.78</ele>
        <time>2019-08-13T07:56:49Z</time>
      </trkpt>
      <trkpt lat="42.617955" lon="-0.118056">
        <ele>1150.28</ele>
        <time>2019-08-13T07:56:51Z</time>
      </trkpt>
      <trkpt lat="42.617924" lon="-0.118112">
        <ele>1149.26</ele>
        <time>2019-08-13T07:56:54Z</time>
      </trkpt>
      <trkpt lat="42.617887" lon="-0.118161">
        <ele>1150.64</ele>
        <time>2019-08-13T07:56:57Z</time>
      </trkpt>
      <trkpt lat="42.617574" lon="-0.118514">
        <ele>-</ele>
        <time>2019-08-13T07:58:53Z</time>
      </trkpt>
      <trkpt lat="42.617574" lon="-0.118514">
        <ele>1158.45</ele>
        <time>2019-08-13T07:58:54Z</time>
      </trkpt>
      <trkpt lat="42.617536" lon="-0.118769">
        <ele>1158.12</ele>
        <time>2019-08-13T07:59:57Z</time>
      </trkpt>
      <trkpt lat="42.617533" lon="-0.118833">
        <ele>1160.45</ele>
        <time>2019-08-13T07:59:59Z</time>
      </trkpt>
      <trkpt lat="42.61754" lon="-0.118914">
        <ele>1160.23</ele>
        <time>2019-08-13T08:00:02Z</time>
      </trkpt>
      <trkpt lat="42.617527" lon="-0.118981">
        <ele>1158.54</ele>
        <time>2019-08-13T08:00:05Z</time>
      </trkpt>
      <trkpt lat="42.617518" lon="-0.119017">
        <ele>1160.26</ele>
        <time>2019-08-13T08:00:07Z</time>
      </trkpt>
      <trkpt lat="42.617519" lon="-0.119113">
        <ele>1157.65</ele>
        <time>2019-08-13T08:00:12Z</time>
      </trkpt>
      <trkpt lat="42.61751" lon="-0.119176">
        <ele>1158.85</ele>
        <time>2019-08-13T08:00:17Z</time>
      </trkpt>
      <trkpt lat="42.617533" lon="-0.119245">
        <ele>1159.21</ele>
        <time>2019-08-13T08:00:23Z</time>
      </trkpt>
      <trkpt lat="42.617528" lon="-0.119309">
        <ele>1159.39</ele>
        <time>2019-08-13T08:00:28Z</time>
      </trkpt>
      <trkpt lat="42.617527" lon="-0.119379">
        <ele>1157.92</ele>
        <time>2019-08-13T08:00:34Z</time>
      </trkpt>
      <trkpt lat="42.617525" lon="-0.119443">
        <ele>1160.84</ele>
        <time>2019-08-13T08:00:38Z</time>
      </trkpt>
      <trkpt lat="42.617521" lon="-0.11949">
        <ele>1161.17</ele>
        <time>2019-08-13T08:00:41Z</time>
      </trkpt>
      <trkpt lat="42.617507" lon="-0.119555">
        <ele>1162.09</ele>
        <time>2019-08-13T08:00:45Z</time>
      </trkpt>
      <trkpt lat="42.617487" lon="-0.119632">
        <ele>1164.92</ele>
        <time>2019-08-13T08:00:51Z</time>
      </trkpt>
      <trkpt lat="42.61748" lon="-0.119664">
        <ele>1163.69</ele>
        <time>2019-08-13T08:00:53Z</time>
      </trkpt>
      <trkpt lat="42.617476" lon="-0.119726">
        <ele>1160.12</ele>
        <time>2019-08-13T08:00:56Z</time>
      </trkpt>
      <trkpt lat="42.617473" lon="-0.119761">
        <ele>1162.02</ele>
        <time>2019-08-13T08:00:58Z</time>
      </trkpt>
      <trkpt lat="42.617461" lon="-0.11983">
        <ele>1159.05</ele>
        <time>2019-08-13T08:01:02Z</time>
      </trkpt>
      <trkpt lat="42.617453" lon="-0.119869">
        <ele>1160.11</ele>
        <time>2019-08-13T08:01:05Z</time>
      </trkpt>
      <trkpt lat="42.617434" lon="-0.119928">
        <ele>1159.93</ele>
        <time>2019-08-13T08:01:09Z</time>
      </trkpt>
      <trkpt lat="42.617431" lon="-0.11999">
        <ele>1158.65</ele>
        <time>2019-08-13T08:01:13Z</time>
      </trkpt>
      <trkpt lat="42.61743" lon="-0.120027">
        <ele>1160.77</ele>
        <time>2019-08-13T08:01:15Z</time>
      </trkpt>
      <trkpt lat="42.617436" lon="-0.120111">
        <ele>1163.89</ele>
        <time>2019-08-13T08:01:19Z</time>
      </trkpt>
      <trkpt lat="42.61742" lon="-0.120177">
        <ele>1163.3</ele>
        <time>2019-08-13T08:01:24Z</time>
      </trkpt>
      <trkpt lat="42.617435" lon="-0.120245">
        <ele>1161.64</ele>
        <time>2019-08-13T08:01:27Z</time>
      </trkpt>
      <trkpt lat="42.617443" lon="-0.120312">
        <ele>1160.33</ele>
        <time>2019-08-13T08:01:32Z</time>
      </trkpt>
      <trkpt lat="42.617399" lon="-0.120366">
        <ele>1161.94</ele>
        <time>2019-08-13T08:01:37Z</time>
      </trkpt>
      <trkpt lat="42.617384" lon="-0.120431">
        <ele>1165.07</ele>
        <time>2019-08-13T08:01:40Z</time>
      </trkpt>
      <trkpt lat="42.617362" lon="-0.120498">
        <ele>1163.81</ele>
        <time>2019-08-13T08:01:43Z</time>
      </trkpt>
      <trkpt lat="42.617352" lon="-0.120533">
        <ele>1164.67</ele>
        <time>2019-08-13T08:01:44Z</time>
      </trkpt>
      <trkpt lat="42.617354" lon="-0.1206">
        <ele>1161.73</ele>
        <time>2019-08-13T08:01:47Z</time>
      </trkpt>
      <trkpt lat="42.617353" lon="-0.120631">
        <ele>1161.07</ele>
        <time>2019-08-13T08:01:48Z</time>
      </trkpt>
      <trkpt lat="42.617351" lon="-0.120671">
        <ele>1159.92</ele>
        <time>2019-08-13T08:01:50Z</time>
      </trkpt>
      <trkpt lat="42.61735" lon="-0.120715">
        <ele>1160.23</ele>
        <time>2019-08-13T08:01:52Z</time>
      </trkpt>
      <trkpt lat="42.617351" lon="-0.120748">
        <ele>1161.17</ele>
        <time>2019-08-13T08:01:54Z</time>
      </trkpt>
      <trkpt lat="42.61735" lon="-0.120786">
        <ele>1161.39</ele>
        <time>2019-08-13T08:01:56Z</time>
      </trkpt>
      <trkpt lat="42.61735" lon="-0.120821">
        <ele>1162.03</ele>
        <time>2019-08-13T08:01:58Z</time>
      </trkpt>
      <trkpt lat="42.617356" lon="-0.120884">
        <ele>1161.32</ele>
        <time>2019-08-13T08:02:02Z</time>
      </trkpt>
      <trkpt lat="42.617336" lon="-0.120948">
        <ele>1162.67</ele>
        <time>2019-08-13T08:02:07Z</time>
      </trkpt>
      <trkpt lat="42.617321" lon="-0.120996">
        <ele>1164.4</ele>
        <time>2019-08-13T08:02:10Z</time>
      </trkpt>
      <trkpt lat="42.617307" lon="-0.121055">
        <ele>1163.05</ele>
        <time>2019-08-13T08:02:13Z</time>
      </trkpt>
      <trkpt lat="42.617294" lon="-0.121133">
        <ele>1162.58</ele>
        <time>2019-08-13T08:02:18Z</time>
      </trkpt>
      <trkpt lat="42.617269" lon="-0.121187">
        <ele>1159.48</ele>
        <time>2019-08-13T08:02:21Z</time>
      </trkpt>
      <trkpt lat="42.617254" lon="-0.121261">
        <ele>1157.08</ele>
        <time>2019-08-13T08:02:26Z</time>
      </trkpt>
      <trkpt lat="42.617246" lon="-0.121307">
        <ele>1156.32</ele>
        <time>2019-08-13T08:02:29Z</time>
      </trkpt>
      <trkpt lat="42.617222" lon="-0.121365">
        <ele>1157.07</ele>
        <time>2019-08-13T08:02:32Z</time>
      </trkpt>
      <trkpt lat="42.617204" lon="-0.121424">
        <ele>1157.16</ele>
        <time>2019-08-13T08:02:35Z</time>
      </trkpt>
      <trkpt lat="42.61717" lon="-0.121472">
        <ele>1159.79</ele>
        <time>2019-08-13T08:02:42Z</time>
      </trkpt>
      <trkpt lat="42.617127" lon="-0.121529">
        <ele>1160.49</ele>
        <time>2019-08-13T08:02:45Z</time>
      </trkpt>
      <trkpt lat="42.617086" lon="-0.12158">
        <ele>1163.78</ele>
        <time>2019-08-13T08:02:51Z</time>
      </trkpt>
      <trkpt lat="42.617074" lon="-0.121647">
        <ele>1165.15</ele>
        <time>2019-08-13T08:02:56Z</time>
      </trkpt>
      <trkpt lat="42.617042" lon="-0.121701">
        <ele>1165.41</ele>
        <time>2019-08-13T08:03:01Z</time>
      </trkpt>
      <trkpt lat="42.617018" lon="-0.121805">
        <ele>1162.93</ele>
        <time>2019-08-13T08:03:07Z</time>
      </trkpt>
      <trkpt lat="42.61698" lon="-0.121845">
        <ele>1165.73</ele>
        <time>2019-08-13T08:03:11Z</time>
      </trkpt>
      <trkpt lat="42.616961" lon="-0.121864">
        <ele>1166.11</ele>
        <time>2019-08-13T08:03:13Z</time>
      </trkpt>
      <trkpt lat="42.616935" lon="-0.121889">
        <ele>1165.38</ele>
        <time>2019-08-13T08:03:16Z</time>
      </trkpt>
      <trkpt lat="42.616914" lon="-0.121964">
        <ele>1162.2</ele>
        <time>2019-08-13T08:03:20Z</time>
      </trkpt>
      <trkpt lat="42.616907" lon="-0.122026">
        <ele>1162.12</ele>
        <time>2019-08-13T08:03:23Z</time>
      </trkpt>
      <trkpt lat="42.616892" lon="-0.122106">
        <ele>1161.37</ele>
        <time>2019-08-13T08:03:27Z</time>
      </trkpt>
      <trkpt lat="42.616888" lon="-0.122175">
        <ele>1160.3</ele>
        <time>2019-08-13T08:03:30Z</time>
      </trkpt>
      <trkpt lat="42.616894" lon="-0.122238">
        <ele>1157.76</ele>
        <time>2019-08-13T08:03:34Z</time>
      </trkpt>
      <trkpt lat="42.61693" lon="-0.122297">
        <ele>1158.48</ele>
        <time>2019-08-13T08:03:38Z</time>
      </trkpt>
      <trkpt lat="42.616964" lon="-0.122345">
        <ele>1160.66</ele>
        <time>2019-08-13T08:03:41Z</time>
      </trkpt>
      <trkpt lat="42.616995" lon="-0.122402">
        <ele>1157.65</ele>
        <time>2019-08-13T08:03:48Z</time>
      </trkpt>
      <trkpt lat="42.617035" lon="-0.122444">
        <ele>1156.17</ele>
        <time>2019-08-13T08:03:52Z</time>
      </trkpt>
      <trkpt lat="42.617043" lon="-0.122509">
        <ele>1154.09</ele>
        <time>2019-08-13T08:03:58Z</time>
      </trkpt>
      <trkpt lat="42.617069" lon="-0.12256">
        <ele>1152.54</ele>
        <time>2019-08-13T08:04:03Z</time>
      </trkpt>
      <trkpt lat="42.617097" lon="-0.12262">
        <ele>1153.29</ele>
        <time>2019-08-13T08:04:07Z</time>
      </trkpt>
      <trkpt lat="42.617127" lon="-0.122665">
        <ele>1153.78</ele>
        <time>2019-08-13T08:04:11Z</time>
      </trkpt>
      <trkpt lat="42.617145" lon="-0.122695">
        <ele>1152.84</ele>
        <time>2019-08-13T08:04:13Z</time>
      </trkpt>
      <trkpt lat="42.617164" lon="-0.122759">
        <ele>1154.35</ele>
        <time>2019-08-13T08:04:17Z</time>
      </trkpt>
      <trkpt lat="42.617202" lon="-0.122802">
        <ele>1153.29</ele>
        <time>2019-08-13T08:04:23Z</time>
      </trkpt>
      <trkpt lat="42.617219" lon="-0.122862">
        <ele>1156.23</ele>
        <time>2019-08-13T08:04:29Z</time>
      </trkpt>
      <trkpt lat="42.617258" lon="-0.122907">
        <ele>1155.1</ele>
        <time>2019-08-13T08:04:34Z</time>
      </trkpt>
      <trkpt lat="42.617327" lon="-0.12293">
        <ele>1154.11</ele>
        <time>2019-08-13T08:04:38Z</time>
      </trkpt>
      <trkpt lat="42.617361" lon="-0.122974">
        <ele>1155.43</ele>
        <time>2019-08-13T08:04:41Z</time>
      </trkpt>
      <trkpt lat="42.617392" lon="-0.123011">
        <ele>1157.46</ele>
        <time>2019-08-13T08:04:45Z</time>
      </trkpt>
      <trkpt lat="42.617412" lon="-0.123078">
        <ele>1159.05</ele>
        <time>2019-08-13T08:04:50Z</time>
      </trkpt>
      <trkpt lat="42.617411" lon="-0.123151">
        <ele>1160.71</ele>
        <time>2019-08-13T08:04:54Z</time>
      </trkpt>
      <trkpt lat="42.61741" lon="-0.1232">
        <ele>1161.38</ele>
        <time>2019-08-13T08:04:56Z</time>
      </trkpt>
      <trkpt lat="42.617392" lon="-0.123278">
        <ele>1161.79</ele>
        <time>2019-08-13T08:05:00Z</time>
      </trkpt>
      <trkpt lat="42.617352" lon="-0.123311">
        <ele>1160.79</ele>
        <time>2019-08-13T08:05:04Z</time>
      </trkpt>
      <trkpt lat="42.617377" lon="-0.123419">
        <ele>1157.97</ele>
        <time>2019-08-13T08:05:12Z</time>
      </trkpt>
      <trkpt lat="42.617324" lon="-0.123472">
        <ele>1160.79</ele>
        <time>2019-08-13T08:05:17Z</time>
      </trkpt>
      <trkpt lat="42.617273" lon="-0.123544">
        <ele>1161.72</ele>
        <time>2019-08-13T08:05:22Z</time>
      </trkpt>
      <trkpt lat="42.617248" lon="-0.123603">
        <ele>1162.04</ele>
        <time>2019-08-13T08:05:26Z</time>
      </trkpt>
      <trkpt lat="42.617209" lon="-0.123667">
        <ele>1163.07</ele>
        <time>2019-08-13T08:05:30Z</time>
      </trkpt>
      <trkpt lat="42.617201" lon="-0.123734">
        <ele>1159.54</ele>
        <time>2019-08-13T08:05:34Z</time>
      </trkpt>
      <trkpt lat="42.617203" lon="-0.123804">
        <ele>1157.61</ele>
        <time>2019-08-13T08:05:37Z</time>
      </trkpt>
      <trkpt lat="42.617203" lon="-0.123837">
        <ele>1160.13</ele>
        <time>2019-08-13T08:05:39Z</time>
      </trkpt>
      <trkpt lat="42.617178" lon="-0.123901">
        <ele>1160.13</ele>
        <time>2019-08-13T08:05:44Z</time>
      </trkpt>
      <trkpt lat="42.617158" lon="-0.123947">
        <ele>1160.38</ele>
        <time>2019-08-13T08:05:48Z</time>
      </trkpt>
      <trkpt lat="42.61712" lon="-0.123975">
        <ele>1160.75</ele>
        <time>2019-08-13T08:05:56Z</time>
      </trkpt>
      <trkpt lat="42.617114" lon="-0.124048">
        <ele>1161.18</ele>
        <time>2019-08-13T08:05:59Z</time>
      </trkpt>
      <trkpt lat="42.617108" lon="-0.124126">
        <ele>1163.25</ele>
        <time>2019-08-13T08:06:02Z</time>
      </trkpt>
      <trkpt lat="42.617102" lon="-0.124188">
        <ele>1159.3</ele>
        <time>2019-08-13T08:06:06Z</time>
      </trkpt>
      <trkpt lat="42.617098" lon="-0.124227">
        <ele>1161.02</ele>
        <time>2019-08-13T08:06:12Z</time>
      </trkpt>
      <trkpt lat="42.617094" lon="-0.12428">
        <ele>1159.58</ele>
        <time>2019-08-13T08:06:48Z</time>
      </trkpt>
      <trkpt lat="42.617073" lon="-0.124349">
        <ele>1157.28</ele>
        <time>2019-08-13T08:06:51Z</time>
      </trkpt>
      <trkpt lat="42.617059" lon="-0.12439">
        <ele>1159.56</ele>
        <time>2019-08-13T08:06:53Z</time>
      </trkpt>
      <trkpt lat="42.617046" lon="-0.124467">
        <ele>1158.43</ele>
        <time>2019-08-13T08:06:57Z</time>
      </trkpt>
      <trkpt lat="42.616982" lon="-0.124551">
        <ele>1160.3</ele>
        <time>2019-08-13T08:07:01Z</time>
      </trkpt>
      <trkpt lat="42.616963" lon="-0.124606">
        <ele>1160.75</ele>
        <time>2019-08-13T08:07:03Z</time>
      </trkpt>
      <trkpt lat="42.616952" lon="-0.124669">
        <ele>1160.03</ele>
        <time>2019-08-13T08:07:06Z</time>
      </trkpt>
      <trkpt lat="42.616922" lon="-0.124729">
        <ele>1160.53</ele>
        <time>2019-08-13T08:07:12Z</time>
      </trkpt>
      <trkpt lat="42.616868" lon="-0.124763">
        <ele>1162.69</ele>
        <time>2019-08-13T08:07:18Z</time>
      </trkpt>
      <trkpt lat="42.616849" lon="-0.124833">
        <ele>1162.87</ele>
        <time>2019-08-13T08:07:24Z</time>
      </trkpt>
      <trkpt lat="42.616861" lon="-0.124894">
        <ele>1160.6</ele>
        <time>2019-08-13T08:07:27Z</time>
      </trkpt>
      <trkpt lat="42.616825" lon="-0.124988">
        <ele>1159.55</ele>
        <time>2019-08-13T08:07:33Z</time>
      </trkpt>
      <trkpt lat="42.616793" lon="-0.125064">
        <ele>1160.69</ele>
        <time>2019-08-13T08:07:36Z</time>
      </trkpt>
      <trkpt lat="42.61675" lon="-0.125128">
        <ele>1164.28</ele>
        <time>2019-08-13T08:07:39Z</time>
      </trkpt>
      <trkpt lat="42.616726" lon="-0.125163">
        <ele>1162.95</ele>
        <time>2019-08-13T08:07:41Z</time>
      </trkpt>
      <trkpt lat="42.616683" lon="-0.125206">
        <ele>1160.37</ele>
        <time>2019-08-13T08:07:45Z</time>
      </trkpt>
      <trkpt lat="42.616658" lon="-0.125235">
        <ele>1163.71</ele>
        <time>2019-08-13T08:07:48Z</time>
      </trkpt>
      <trkpt lat="42.616627" lon="-0.125288">
        <ele>1161.9</ele>
        <time>2019-08-13T08:07:53Z</time>
      </trkpt>
      <trkpt lat="42.616608" lon="-0.125344">
        <ele>1162.13</ele>
        <time>2019-08-13T08:07:57Z</time>
      </trkpt>
      <trkpt lat="42.6166" lon="-0.125377">
        <ele>1160.23</ele>
        <time>2019-08-13T08:08:00Z</time>
      </trkpt>
      <trkpt lat="42.616626" lon="-0.125435">
        <ele>1156.3</ele>
        <time>2019-08-13T08:08:04Z</time>
      </trkpt>
      <trkpt lat="42.616641" lon="-0.125473">
        <ele>1157.42</ele>
        <time>2019-08-13T08:08:07Z</time>
      </trkpt>
      <trkpt lat="42.616651" lon="-0.125502">
        <ele>1156.28</ele>
        <time>2019-08-13T08:08:09Z</time>
      </trkpt>
      <trkpt lat="42.616649" lon="-0.125576">
        <ele>1159.19</ele>
        <time>2019-08-13T08:08:16Z</time>
      </trkpt>
      <trkpt lat="42.616648" lon="-0.12562">
        <ele>1160.84</ele>
        <time>2019-08-13T08:08:19Z</time>
      </trkpt>
      <trkpt lat="42.616648" lon="-0.12562">
        <ele>1160.84</ele>
        <time>2019-08-13T08:08:26Z</time>
      </trkpt>
      <trkpt lat="42.616648" lon="-0.125727">
        <ele>1161.08</ele>
        <time>2019-08-13T08:08:28Z</time>
      </trkpt>
      <trkpt lat="42.616649" lon="-0.125782">
        <ele>1162.59</ele>
        <time>2019-08-13T08:08:30Z</time>
      </trkpt>
      <trkpt lat="42.616649" lon="-0.125828">
        <ele>1161.76</ele>
        <time>2019-08-13T08:08:32Z</time>
      </trkpt>
      <trkpt lat="42.616663" lon="-0.125893">
        <ele>1163.25</ele>
        <time>2019-08-13T08:08:35Z</time>
      </trkpt>
      <trkpt lat="42.616654" lon="-0.125957">
        <ele>1166.1</ele>
        <time>2019-08-13T08:08:39Z</time>
      </trkpt>
      <trkpt lat="42.616628" lon="-0.126007">
        <ele>1169.16</ele>
        <time>2019-08-13T08:08:43Z</time>
      </trkpt>
      <trkpt lat="42.616612" lon="-0.126039">
        <ele>1170.2</ele>
        <time>2019-08-13T08:08:46Z</time>
      </trkpt>
      <trkpt lat="42.616591" lon="-0.126079">
        <ele>1170.86</ele>
        <time>2019-08-13T08:08:49Z</time>
      </trkpt>
      <trkpt lat="42.616576" lon="-0.126103">
        <ele>1171.69</ele>
        <time>2019-08-13T08:08:51Z</time>
      </trkpt>
      <trkpt lat="42.616549" lon="-0.126155">
        <ele>1172.33</ele>
        <time>2019-08-13T08:08:56Z</time>
      </trkpt>
      <trkpt lat="42.616522" lon="-0.126236">
        <ele>1169.93</ele>
        <time>2019-08-13T08:09:02Z</time>
      </trkpt>
      <trkpt lat="42.616461" lon="-0.126297">
        <ele>1171.93</ele>
        <time>2019-08-13T08:09:07Z</time>
      </trkpt>
      <trkpt lat="42.616406" lon="-0.1263">
        <ele>1172.42</ele>
        <time>2019-08-13T08:09:13Z</time>
      </trkpt>
      <trkpt lat="42.616354" lon="-0.126306">
        <ele>1175.25</ele>
        <time>2019-08-13T08:09:19Z</time>
      </trkpt>
      <trkpt lat="42.61634" lon="-0.126374">
        <ele>1174.2</ele>
        <time>2019-08-13T08:09:23Z</time>
      </trkpt>
      <trkpt lat="42.616296" lon="-0.126416">
        <ele>1176.5</ele>
        <time>2019-08-13T08:09:27Z</time>
      </trkpt>
      <trkpt lat="42.616236" lon="-0.126423">
        <ele>1177.74</ele>
        <time>2019-08-13T08:09:30Z</time>
      </trkpt>
      <trkpt lat="42.616189" lon="-0.12646">
        <ele>1174.13</ele>
        <time>2019-08-13T08:09:33Z</time>
      </trkpt>
      <trkpt lat="42.616167" lon="-0.126478">
        <ele>1174.3</ele>
        <time>2019-08-13T08:09:36Z</time>
      </trkpt>
      <trkpt lat="42.616132" lon="-0.126519">
        <ele>1172.52</ele>
        <time>2019-08-13T08:09:39Z</time>
      </trkpt>
      <trkpt lat="42.616075" lon="-0.126538">
        <ele>1170.13</ele>
        <time>2019-08-13T08:09:43Z</time>
      </trkpt>
      <trkpt lat="42.61603" lon="-0.126519">
        <ele>1170.16</ele>
        <time>2019-08-13T08:09:46Z</time>
      </trkpt>
      <trkpt lat="42.615991" lon="-0.126573">
        <ele>1172.15</ele>
        <time>2019-08-13T08:09:49Z</time>
      </trkpt>
      <trkpt lat="42.615962" lon="-0.126632">
        <ele>1173.77</ele>
        <time>2019-08-13T08:09:52Z</time>
      </trkpt>
      <trkpt lat="42.615924" lon="-0.126667">
        <ele>1173.76</ele>
        <time>2019-08-13T08:09:55Z</time>
      </trkpt>
      <trkpt lat="42.61587" lon="-0.126689">
        <ele>1175.54</ele>
        <time>2019-08-13T08:09:58Z</time>
      </trkpt>
      <trkpt lat="42.615818" lon="-0.126694">
        <ele>1178.39</ele>
        <time>2019-08-13T08:10:01Z</time>
      </trkpt>
      <trkpt lat="42.615769" lon="-0.126686">
        <ele>1179.13</ele>
        <time>2019-08-13T08:10:05Z</time>
      </trkpt>
      <trkpt lat="42.615724" lon="-0.126651">
        <ele>1181.74</ele>
        <time>2019-08-13T08:10:09Z</time>
      </trkpt>
      <trkpt lat="42.615688" lon="-0.126605">
        <ele>1182.35</ele>
        <time>2019-08-13T08:10:13Z</time>
      </trkpt>
      <trkpt lat="42.61567" lon="-0.126582">
        <ele>1183.08</ele>
        <time>2019-08-13T08:10:15Z</time>
      </trkpt>
      <trkpt lat="42.615627" lon="-0.126543">
        <ele>1183.03</ele>
        <time>2019-08-13T08:10:19Z</time>
      </trkpt>
      <trkpt lat="42.615587" lon="-0.126511">
        <ele>1184.11</ele>
        <time>2019-08-13T08:10:23Z</time>
      </trkpt>
      <trkpt lat="42.615538" lon="-0.126493">
        <ele>1182.26</ele>
        <time>2019-08-13T08:10:28Z</time>
      </trkpt>
      <trkpt lat="42.615538" lon="-0.126493">
        <ele>1182.26</ele>
        <time>2019-08-13T08:10:37Z</time>
      </trkpt>
      <trkpt lat="42.615538" lon="-0.126493">
        <ele>1182.26</ele>
        <time>2019-08-13T08:10:39Z</time>
      </trkpt>
      <trkpt lat="42.615494" lon="-0.126581">
        <ele>1183.95</ele>
        <time>2019-08-13T08:11:26Z</time>
      </trkpt>
      <trkpt lat="42.615503" lon="-0.126646">
        <ele>1185.55</ele>
        <time>2019-08-13T08:11:31Z</time>
      </trkpt>
      <trkpt lat="42.615511" lon="-0.126716">
        <ele>1188.39</ele>
        <time>2019-08-13T08:11:35Z</time>
      </trkpt>
      <trkpt lat="42.615478" lon="-0.126759">
        <ele>1189.2</ele>
        <time>2019-08-13T08:11:40Z</time>
      </trkpt>
      <trkpt lat="42.615427" lon="-0.126783">
        <ele>1186.87</ele>
        <time>2019-08-13T08:11:47Z</time>
      </trkpt>
      <trkpt lat="42.615408" lon="-0.126854">
        <ele>1188.77</ele>
        <time>2019-08-13T08:11:53Z</time>
      </trkpt>
      <trkpt lat="42.615411" lon="-0.126919">
        <ele>1189.93</ele>
        <time>2019-08-13T08:11:59Z</time>
      </trkpt>
      <trkpt lat="42.615412" lon="-0.126954">
        <ele>1188.32</ele>
        <time>2019-08-13T08:12:03Z</time>
      </trkpt>
      <trkpt lat="42.615454" lon="-0.127004">
        <ele>1189.82</ele>
        <time>2019-08-13T08:12:09Z</time>
      </trkpt>
      <trkpt lat="42.615454" lon="-0.127004">
        <ele>1189.82</ele>
        <time>2019-08-13T08:12:16Z</time>
      </trkpt>
      <trkpt lat="42.615454" lon="-0.127004">
        <ele>1189.82</ele>
        <time>2019-08-13T08:12:17Z</time>
      </trkpt>
      <trkpt lat="42.615473" lon="-0.127099">
        <ele>1189.68</ele>
        <time>2019-08-13T08:12:36Z</time>
      </trkpt>
      <trkpt lat="42.615479" lon="-0.127139">
        <ele>1188.29</ele>
        <time>2019-08-13T08:12:38Z</time>
      </trkpt>
      <trkpt lat="42.6155" lon="-0.127213">
        <ele>1188.28</ele>
        <time>2019-08-13T08:12:41Z</time>
      </trkpt>
      <trkpt lat="42.615512" lon="-0.127264">
        <ele>1188.81</ele>
        <time>2019-08-13T08:12:44Z</time>
      </trkpt>
      <trkpt lat="42.615519" lon="-0.127301">
        <ele>1190.09</ele>
        <time>2019-08-13T08:12:47Z</time>
      </trkpt>
      <trkpt lat="42.615543" lon="-0.127367">
        <ele>1192.13</ele>
        <time>2019-08-13T08:12:51Z</time>
      </trkpt>
      <trkpt lat="42.615563" lon="-0.127434">
        <ele>1195.59</ele>
        <time>2019-08-13T08:12:56Z</time>
      </trkpt>
      <trkpt lat="42.615573" lon="-0.127475">
        <ele>1196.06</ele>
        <time>2019-08-13T08:13:02Z</time>
      </trkpt>
      <trkpt lat="42.615573" lon="-0.127475">
        <ele>1196.06</ele>
        <time>2019-08-13T08:15:02Z</time>
      </trkpt>
      <trkpt lat="42.615621" lon="-0.127664">
        <ele>1202.64</ele>
        <time>2019-08-13T08:15:03Z</time>
      </trkpt>
      <trkpt lat="42.615631" lon="-0.127713">
        <ele>1203.25</ele>
        <time>2019-08-13T08:15:07Z</time>
      </trkpt>
      <trkpt lat="42.615638" lon="-0.127751">
        <ele>1203.35</ele>
        <time>2019-08-13T08:15:10Z</time>
      </trkpt>
      <trkpt lat="42.615631" lon="-0.12782">
        <ele>1203.94</ele>
        <time>2019-08-13T08:15:15Z</time>
      </trkpt>
      <trkpt lat="42.61564" lon="-0.127884">
        <ele>1206.32</ele>
        <time>2019-08-13T08:15:21Z</time>
      </trkpt>
      <trkpt lat="42.615661" lon="-0.127945">
        <ele>1204.87</ele>
        <time>2019-08-13T08:15:26Z</time>
      </trkpt>
      <trkpt lat="42.615657" lon="-0.12801">
        <ele>1205.45</ele>
        <time>2019-08-13T08:15:31Z</time>
      </trkpt>
      <trkpt lat="42.615668" lon="-0.128097">
        <ele>1207.27</ele>
        <time>2019-08-13T08:15:37Z</time>
      </trkpt>
      <trkpt lat="42.615691" lon="-0.12815">
        <ele>1207.73</ele>
        <time>2019-08-13T08:15:40Z</time>
      </trkpt>
      <trkpt lat="42.6157" lon="-0.128218">
        <ele>1209.63</ele>
        <time>2019-08-13T08:15:45Z</time>
      </trkpt>
      <trkpt lat="42.615707" lon="-0.128273">
        <ele>1210.02</ele>
        <time>2019-08-13T08:15:49Z</time>
      </trkpt>
      <trkpt lat="42.615697" lon="-0.128333">
        <ele>1209.53</ele>
        <time>2019-08-13T08:15:55Z</time>
      </trkpt>
      <trkpt lat="42.615695" lon="-0.128399">
        <ele>1211.52</ele>
        <time>2019-08-13T08:15:59Z</time>
      </trkpt>
      <trkpt lat="42.615658" lon="-0.128463">
        <ele>1210.79</ele>
        <time>2019-08-13T08:16:05Z</time>
      </trkpt>
      <trkpt lat="42.615646" lon="-0.128532">
        <ele>1209.58</ele>
        <time>2019-08-13T08:16:09Z</time>
      </trkpt>
      <trkpt lat="42.615661" lon="-0.128636">
        <ele>1207.89</ele>
        <time>2019-08-13T08:16:17Z</time>
      </trkpt>
      <trkpt lat="42.615652" lon="-0.128705">
        <ele>1207.8</ele>
        <time>2019-08-13T08:16:22Z</time>
      </trkpt>
      <trkpt lat="42.615639" lon="-0.12877">
        <ele>1207.78</ele>
        <time>2019-08-13T08:16:29Z</time>
      </trkpt>
      <trkpt lat="42.615667" lon="-0.128835">
        <ele>1205.79</ele>
        <time>2019-08-13T08:16:34Z</time>
      </trkpt>
      <trkpt lat="42.615661" lon="-0.128906">
        <ele>1209.88</ele>
        <time>2019-08-13T08:16:38Z</time>
      </trkpt>
      <trkpt lat="42.615645" lon="-0.128994">
        <ele>1210.83</ele>
        <time>2019-08-13T08:16:43Z</time>
      </trkpt>
      <trkpt lat="42.615634" lon="-0.129073">
        <ele>1212.12</ele>
        <time>2019-08-13T08:16:48Z</time>
      </trkpt>
      <trkpt lat="42.6156" lon="-0.12913">
        <ele>1212.23</ele>
        <time>2019-08-13T08:16:52Z</time>
      </trkpt>
      <trkpt lat="42.615587" lon="-0.129155">
        <ele>1213.55</ele>
        <time>2019-08-13T08:16:54Z</time>
      </trkpt>
      <trkpt lat="42.615587" lon="-0.129155">
        <ele>1213.55</ele>
        <time>2019-08-13T08:17:01Z</time>
      </trkpt>
      <trkpt lat="42.615587" lon="-0.129155">
        <ele>1213.55</ele>
        <time>2019-08-13T08:17:02Z</time>
      </trkpt>
      <trkpt lat="42.615559" lon="-0.12921">
        <ele>1214.59</ele>
        <time>2019-08-13T08:17:05Z</time>
      </trkpt>
      <trkpt lat="42.615575" lon="-0.12928">
        <ele>1216.07</ele>
        <time>2019-08-13T08:17:09Z</time>
      </trkpt>
      <trkpt lat="42.615577" lon="-0.129352">
        <ele>1215.72</ele>
        <time>2019-08-13T08:17:10Z</time>
      </trkpt>
      <trkpt lat="42.615574" lon="-0.129454">
        <ele>1215.93</ele>
        <time>2019-08-13T08:17:12Z</time>
      </trkpt>
      <trkpt lat="42.615572" lon="-0.129486">
        <ele>1215.85</ele>
        <time>2019-08-13T08:17:13Z</time>
      </trkpt>
      <trkpt lat="42.615577" lon="-0.129352">
        <ele>1215.72</ele>
        <time>2019-08-13T08:17:19Z</time>
      </trkpt>
      <trkpt lat="42.615547" lon="-0.129498">
        <ele>1214.18</ele>
        <time>2019-08-13T08:17:55Z</time>
      </trkpt>
      <trkpt lat="42.615526" lon="-0.129554">
        <ele>1209.14</ele>
        <time>2019-08-13T08:18:02Z</time>
      </trkpt>
      <trkpt lat="42.61552" lon="-0.12962">
        <ele>1205.32</ele>
        <time>2019-08-13T08:18:06Z</time>
      </trkpt>
      <trkpt lat="42.615525" lon="-0.1297">
        <ele>1201.39</ele>
        <time>2019-08-13T08:18:10Z</time>
      </trkpt>
      <trkpt lat="42.615518" lon="-0.129777">
        <ele>1204.49</ele>
        <time>2019-08-13T08:18:13Z</time>
      </trkpt>
      <trkpt lat="42.615502" lon="-0.12984">
        <ele>1204.37</ele>
        <time>2019-08-13T08:18:16Z</time>
      </trkpt>
      <trkpt lat="42.615495" lon="-0.129908">
        <ele>1206.45</ele>
        <time>2019-08-13T08:18:19Z</time>
      </trkpt>
      <trkpt lat="42.615498" lon="-0.129984">
        <ele>1203.81</ele>
        <time>2019-08-13T08:18:23Z</time>
      </trkpt>
      <trkpt lat="42.615535" lon="-0.130023">
        <ele>1202.65</ele>
        <time>2019-08-13T08:18:27Z</time>
      </trkpt>
      <trkpt lat="42.615555" lon="-0.130081">
        <ele>1203.52</ele>
        <time>2019-08-13T08:18:31Z</time>
      </trkpt>
      <trkpt lat="42.615549" lon="-0.130141">
        <ele>1206.35</ele>
        <time>2019-08-13T08:18:34Z</time>
      </trkpt>
      <trkpt lat="42.615524" lon="-0.130196">
        <ele>1208.28</ele>
        <time>2019-08-13T08:18:37Z</time>
      </trkpt>
      <trkpt lat="42.615515" lon="-0.130256">
        <ele>1209.42</ele>
        <time>2019-08-13T08:18:41Z</time>
      </trkpt>
      <trkpt lat="42.615513" lon="-0.130289">
        <ele>1209.81</ele>
        <time>2019-08-13T08:18:43Z</time>
      </trkpt>
      <trkpt lat="42.615509" lon="-0.130347">
        <ele>1205.39</ele>
        <time>2019-08-13T08:18:49Z</time>
      </trkpt>
      <trkpt lat="42.615514" lon="-0.130355">
        <ele>1209.35</ele>
        <time>2019-08-13T08:18:58Z</time>
      </trkpt>
      <trkpt lat="42.615529" lon="-0.13048">
        <ele>1212.27</ele>
        <time>2019-08-13T08:20:16Z</time>
      </trkpt>
      <trkpt lat="42.615533" lon="-0.13051">
        <ele>1213.41</ele>
        <time>2019-08-13T08:20:21Z</time>
      </trkpt>
      <trkpt lat="42.615538" lon="-0.13055">
        <ele>1213.68</ele>
        <time>2019-08-13T08:20:24Z</time>
      </trkpt>
      <trkpt lat="42.615545" lon="-0.130588">
        <ele>1213.32</ele>
        <time>2019-08-13T08:20:27Z</time>
      </trkpt>
      <trkpt lat="42.615553" lon="-0.13063">
        <ele>1215.51</ele>
        <time>2019-08-13T08:20:30Z</time>
      </trkpt>
      <trkpt lat="42.61556" lon="-0.130662">
        <ele>1217.13</ele>
        <time>2019-08-13T08:20:32Z</time>
      </trkpt>
      <trkpt lat="42.615566" lon="-0.1307">
        <ele>1218.21</ele>
        <time>2019-08-13T08:20:34Z</time>
      </trkpt>
      <trkpt lat="42.615545" lon="-0.130765">
        <ele>1218.8</ele>
        <time>2019-08-13T08:20:38Z</time>
      </trkpt>
      <trkpt lat="42.615557" lon="-0.130834">
        <ele>1219.28</ele>
        <time>2019-08-13T08:20:45Z</time>
      </trkpt>
      <trkpt lat="42.615587" lon="-0.130904">
        <ele>1219.72</ele>
        <time>2019-08-13T08:20:49Z</time>
      </trkpt>
      <trkpt lat="42.615604" lon="-0.130979">
        <ele>1220.53</ele>
        <time>2019-08-13T08:20:54Z</time>
      </trkpt>
      <trkpt lat="42.615633" lon="-0.131045">
        <ele>1218.39</ele>
        <time>2019-08-13T08:20:59Z</time>
      </trkpt>
      <trkpt lat="42.615648" lon="-0.131117">
        <ele>1218.72</ele>
        <time>2019-08-13T08:21:03Z</time>
      </trkpt>
      <trkpt lat="42.615657" lon="-0.131198">
        <ele>1216.82</ele>
        <time>2019-08-13T08:21:08Z</time>
      </trkpt>
      <trkpt lat="42.615615" lon="-0.131241">
        <ele>1216.26</ele>
        <time>2019-08-13T08:21:16Z</time>
      </trkpt>
      <trkpt lat="42.615626" lon="-0.131322">
        <ele>1214.05</ele>
        <time>2019-08-13T08:21:21Z</time>
      </trkpt>
      <trkpt lat="42.615632" lon="-0.131362">
        <ele>1216.14</ele>
        <time>2019-08-13T08:21:24Z</time>
      </trkpt>
      <trkpt lat="42.615643" lon="-0.131426">
        <ele>1214.47</ele>
        <time>2019-08-13T08:21:31Z</time>
      </trkpt>
      <trkpt lat="42.615652" lon="-0.131471">
        <ele>1215.72</ele>
        <time>2019-08-13T08:21:33Z</time>
      </trkpt>
      <trkpt lat="42.615656" lon="-0.131548">
        <ele>1217.56</ele>
        <time>2019-08-13T08:21:36Z</time>
      </trkpt>
      <trkpt lat="42.615654" lon="-0.13162">
        <ele>1215.62</ele>
        <time>2019-08-13T08:21:39Z</time>
      </trkpt>
      <trkpt lat="42.615623" lon="-0.131696">
        <ele>1216.82</ele>
        <time>2019-08-13T08:21:44Z</time>
      </trkpt>
      <trkpt lat="42.615603" lon="-0.131768">
        <ele>1217.5</ele>
        <time>2019-08-13T08:21:47Z</time>
      </trkpt>
      <trkpt lat="42.615631" lon="-0.131838">
        <ele>1213.65</ele>
        <time>2019-08-13T08:21:52Z</time>
      </trkpt>
      <trkpt lat="42.615662" lon="-0.131889">
        <ele>1216.22</ele>
        <time>2019-08-13T08:21:55Z</time>
      </trkpt>
      <trkpt lat="42.61569" lon="-0.131942">
        <ele>1216.82</ele>
        <time>2019-08-13T08:21:59Z</time>
      </trkpt>
      <trkpt lat="42.61571" lon="-0.132008">
        <ele>1217.89</ele>
        <time>2019-08-13T08:22:03Z</time>
      </trkpt>
      <trkpt lat="42.615739" lon="-0.132064">
        <ele>1219.19</ele>
        <time>2019-08-13T08:22:07Z</time>
      </trkpt>
      <trkpt lat="42.615741" lon="-0.132134">
        <ele>1219.13</ele>
        <time>2019-08-13T08:22:11Z</time>
      </trkpt>
      <trkpt lat="42.615703" lon="-0.132198">
        <ele>1218.8</ele>
        <time>2019-08-13T08:22:15Z</time>
      </trkpt>
      <trkpt lat="42.615679" lon="-0.132243">
        <ele>1220.79</ele>
        <time>2019-08-13T08:22:18Z</time>
      </trkpt>
      <trkpt lat="42.615665" lon="-0.132308">
        <ele>1219.51</ele>
        <time>2019-08-13T08:22:23Z</time>
      </trkpt>
      <trkpt lat="42.615678" lon="-0.132391">
        <ele>1219.8</ele>
        <time>2019-08-13T08:22:28Z</time>
      </trkpt>
      <trkpt lat="42.615685" lon="-0.132448">
        <ele>1219.53</ele>
        <time>2019-08-13T08:22:31Z</time>
      </trkpt>
      <trkpt lat="42.615668" lon="-0.132507">
        <ele>1217.87</ele>
        <time>2019-08-13T08:22:35Z</time>
      </trkpt>
      <trkpt lat="42.615658" lon="-0.132597">
        <ele>1219.46</ele>
        <time>2019-08-13T08:22:39Z</time>
      </trkpt>
      <trkpt lat="42.615636" lon="-0.132653">
        <ele>1220.29</ele>
        <time>2019-08-13T08:22:42Z</time>
      </trkpt>
      <trkpt lat="42.615626" lon="-0.132718">
        <ele>1224.81</ele>
        <time>2019-08-13T08:22:46Z</time>
      </trkpt>
      <trkpt lat="42.615615" lon="-0.132774">
        <ele>1224.38</ele>
        <time>2019-08-13T08:22:49Z</time>
      </trkpt>
      <trkpt lat="42.615609" lon="-0.132805">
        <ele>1223.75</ele>
        <time>2019-08-13T08:22:51Z</time>
      </trkpt>
      <trkpt lat="42.61564" lon="-0.132876">
        <ele>1222.11</ele>
        <time>2019-08-13T08:22:57Z</time>
      </trkpt>
      <trkpt lat="42.615655" lon="-0.132911">
        <ele>1223.58</ele>
        <time>2019-08-13T08:23:00Z</time>
      </trkpt>
      <trkpt lat="42.61565" lon="-0.132982">
        <ele>1223.89</ele>
        <time>2019-08-13T08:23:04Z</time>
      </trkpt>
      <trkpt lat="42.615641" lon="-0.133053">
        <ele>1224.07</ele>
        <time>2019-08-13T08:23:07Z</time>
      </trkpt>
      <trkpt lat="42.615642" lon="-0.13312">
        <ele>1225.52</ele>
        <time>2019-08-13T08:23:10Z</time>
      </trkpt>
      <trkpt lat="42.615621" lon="-0.133179">
        <ele>1223.71</ele>
        <time>2019-08-13T08:23:14Z</time>
      </trkpt>
      <trkpt lat="42.615607" lon="-0.133215">
        <ele>1223.37</ele>
        <time>2019-08-13T08:23:17Z</time>
      </trkpt>
      <trkpt lat="42.615578" lon="-0.133279">
        <ele>1222.75</ele>
        <time>2019-08-13T08:23:21Z</time>
      </trkpt>
      <trkpt lat="42.615594" lon="-0.133344">
        <ele>1221.02</ele>
        <time>2019-08-13T08:23:27Z</time>
      </trkpt>
      <trkpt lat="42.615598" lon="-0.133419">
        <ele>1219.46</ele>
        <time>2019-08-13T08:23:32Z</time>
      </trkpt>
      <trkpt lat="42.615614" lon="-0.133484">
        <ele>1220.32</ele>
        <time>2019-08-13T08:23:38Z</time>
      </trkpt>
      <trkpt lat="42.615612" lon="-0.133581">
        <ele>1221.54</ele>
        <time>2019-08-13T08:23:42Z</time>
      </trkpt>
      <trkpt lat="42.615639" lon="-0.133657">
        <ele>1220.44</ele>
        <time>2019-08-13T08:23:46Z</time>
      </trkpt>
      <trkpt lat="42.615652" lon="-0.133688">
        <ele>1221.8</ele>
        <time>2019-08-13T08:23:48Z</time>
      </trkpt>
      <trkpt lat="42.615669" lon="-0.133735">
        <ele>1221.28</ele>
        <time>2019-08-13T08:23:52Z</time>
      </trkpt>
      <trkpt lat="42.615655" lon="-0.133795">
        <ele>1221.22</ele>
        <time>2019-08-13T08:23:56Z</time>
      </trkpt>
      <trkpt lat="42.615714" lon="-0.133848">
        <ele>1220.62</ele>
        <time>2019-08-13T08:24:01Z</time>
      </trkpt>
      <trkpt lat="42.615714" lon="-0.133929">
        <ele>1221.44</ele>
        <time>2019-08-13T08:24:06Z</time>
      </trkpt>
      <trkpt lat="42.615683" lon="-0.133977">
        <ele>1219.83</ele>
        <time>2019-08-13T08:24:09Z</time>
      </trkpt>
      <trkpt lat="42.615663" lon="-0.134032">
        <ele>1220.89</ele>
        <time>2019-08-13T08:24:12Z</time>
      </trkpt>
      <trkpt lat="42.61567" lon="-0.134094">
        <ele>1220.06</ele>
        <time>2019-08-13T08:24:18Z</time>
      </trkpt>
      <trkpt lat="42.615675" lon="-0.134125">
        <ele>1219.31</ele>
        <time>2019-08-13T08:24:20Z</time>
      </trkpt>
      <trkpt lat="42.615692" lon="-0.134183">
        <ele>1220.91</ele>
        <time>2019-08-13T08:24:23Z</time>
      </trkpt>
      <trkpt lat="42.615697" lon="-0.134253">
        <ele>1219.05</ele>
        <time>2019-08-13T08:24:28Z</time>
      </trkpt>
      <trkpt lat="42.6157" lon="-0.134286">
        <ele>1218.53</ele>
        <time>2019-08-13T08:24:30Z</time>
      </trkpt>
      <trkpt lat="42.615699" lon="-0.134365">
        <ele>1219.7</ele>
        <time>2019-08-13T08:24:35Z</time>
      </trkpt>
      <trkpt lat="42.615697" lon="-0.134401">
        <ele>1219.83</ele>
        <time>2019-08-13T08:24:37Z</time>
      </trkpt>
      <trkpt lat="42.615706" lon="-0.134462">
        <ele>1219.6</ele>
        <time>2019-08-13T08:24:42Z</time>
      </trkpt>
      <trkpt lat="42.615709" lon="-0.134529">
        <ele>1219.63</ele>
        <time>2019-08-13T08:24:48Z</time>
      </trkpt>
      <trkpt lat="42.615727" lon="-0.134585">
        <ele>1215.18</ele>
        <time>2019-08-13T08:24:53Z</time>
      </trkpt>
      <trkpt lat="42.615731" lon="-0.134663">
        <ele>1214.73</ele>
        <time>2019-08-13T08:24:58Z</time>
      </trkpt>
      <trkpt lat="42.615769" lon="-0.134714">
        <ele>1212.91</ele>
        <time>2019-08-13T08:25:01Z</time>
      </trkpt>
      <trkpt lat="42.615752" lon="-0.134777">
        <ele>1214.95</ele>
        <time>2019-08-13T08:25:05Z</time>
      </trkpt>
      <trkpt lat="42.615729" lon="-0.134843">
        <ele>1215.88</ele>
        <time>2019-08-13T08:25:08Z</time>
      </trkpt>
      <trkpt lat="42.615717" lon="-0.134916">
        <ele>1218.97</ele>
        <time>2019-08-13T08:25:11Z</time>
      </trkpt>
      <trkpt lat="42.615717" lon="-0.134997">
        <ele>1218.91</ele>
        <time>2019-08-13T08:25:16Z</time>
      </trkpt>
      <trkpt lat="42.615719" lon="-0.135031">
        <ele>1218.98</ele>
        <time>2019-08-13T08:25:18Z</time>
      </trkpt>
      <trkpt lat="42.615718" lon="-0.135099">
        <ele>1219.65</ele>
        <time>2019-08-13T08:25:26Z</time>
      </trkpt>
      <trkpt lat="42.6157" lon="-0.135159">
        <ele>1217.81</ele>
        <time>2019-08-13T08:25:31Z</time>
      </trkpt>
      <trkpt lat="42.615697" lon="-0.135225">
        <ele>1216.27</ele>
        <time>2019-08-13T08:25:35Z</time>
      </trkpt>
      <trkpt lat="42.615705" lon="-0.135291">
        <ele>1216.41</ele>
        <time>2019-08-13T08:25:38Z</time>
      </trkpt>
      <trkpt lat="42.615709" lon="-0.135332">
        <ele>1218.52</ele>
        <time>2019-08-13T08:25:40Z</time>
      </trkpt>
      <trkpt lat="42.615712" lon="-0.135381">
        <ele>1219.14</ele>
        <time>2019-08-13T08:25:42Z</time>
      </trkpt>
      <trkpt lat="42.615703" lon="-0.135451">
        <ele>1219.43</ele>
        <time>2019-08-13T08:25:45Z</time>
      </trkpt>
      <trkpt lat="42.615713" lon="-0.135516">
        <ele>1219.86</ele>
        <time>2019-08-13T08:25:48Z</time>
      </trkpt>
      <trkpt lat="42.615719" lon="-0.135585">
        <ele>1220.6</ele>
        <time>2019-08-13T08:25:52Z</time>
      </trkpt>
      <trkpt lat="42.615752" lon="-0.135661">
        <ele>1220.7</ele>
        <time>2019-08-13T08:25:56Z</time>
      </trkpt>
      <trkpt lat="42.615768" lon="-0.135729">
        <ele>1221.76</ele>
        <time>2019-08-13T08:26:00Z</time>
      </trkpt>
      <trkpt lat="42.615788" lon="-0.135784">
        <ele>1221.01</ele>
        <time>2019-08-13T08:26:04Z</time>
      </trkpt>
      <trkpt lat="42.615802" lon="-0.13585">
        <ele>1221.73</ele>
        <time>2019-08-13T08:26:08Z</time>
      </trkpt>
      <trkpt lat="42.615822" lon="-0.135914">
        <ele>1222.13</ele>
        <time>2019-08-13T08:26:13Z</time>
      </trkpt>
      <trkpt lat="42.615837" lon="-0.135958">
        <ele>1225.06</ele>
        <time>2019-08-13T08:26:17Z</time>
      </trkpt>
      <trkpt lat="42.615844" lon="-0.136021">
        <ele>1228.2</ele>
        <time>2019-08-13T08:26:23Z</time>
      </trkpt>
      <trkpt lat="42.615849" lon="-0.136052">
        <ele>1228.43</ele>
        <time>2019-08-13T08:26:26Z</time>
      </trkpt>
      <trkpt lat="42.615882" lon="-0.136096">
        <ele>1228.89</ele>
        <time>2019-08-13T08:26:34Z</time>
      </trkpt>
      <trkpt lat="42.615919" lon="-0.136144">
        <ele>1232.57</ele>
        <time>2019-08-13T08:26:38Z</time>
      </trkpt>
      <trkpt lat="42.615918" lon="-0.136224">
        <ele>1233.19</ele>
        <time>2019-08-13T08:26:41Z</time>
      </trkpt>
      <trkpt lat="42.615906" lon="-0.136291">
        <ele>1231.25</ele>
        <time>2019-08-13T08:26:45Z</time>
      </trkpt>
      <trkpt lat="42.615931" lon="-0.136351">
        <ele>1232.93</ele>
        <time>2019-08-13T08:26:50Z</time>
      </trkpt>
      <trkpt lat="42.61597" lon="-0.136406">
        <ele>1234.88</ele>
        <time>2019-08-13T08:26:56Z</time>
      </trkpt>
      <trkpt lat="42.616014" lon="-0.13645">
        <ele>1236.78</ele>
        <time>2019-08-13T08:27:01Z</time>
      </trkpt>
      <trkpt lat="42.616055" lon="-0.136505">
        <ele>1237.28</ele>
        <time>2019-08-13T08:27:05Z</time>
      </trkpt>
      <trkpt lat="42.616055" lon="-0.136572">
        <ele>1237.67</ele>
        <time>2019-08-13T08:27:09Z</time>
      </trkpt>
      <trkpt lat="42.61606" lon="-0.136643">
        <ele>1237.07</ele>
        <time>2019-08-13T08:27:12Z</time>
      </trkpt>
      <trkpt lat="42.616079" lon="-0.136704">
        <ele>1236.94</ele>
        <time>2019-08-13T08:27:17Z</time>
      </trkpt>
      <trkpt lat="42.616123" lon="-0.136762">
        <ele>1234.58</ele>
        <time>2019-08-13T08:27:21Z</time>
      </trkpt>
      <trkpt lat="42.616142" lon="-0.136789">
        <ele>1234.57</ele>
        <time>2019-08-13T08:27:24Z</time>
      </trkpt>
      <trkpt lat="42.616177" lon="-0.136848">
        <ele>1229.11</ele>
        <time>2019-08-13T08:27:31Z</time>
      </trkpt>
      <trkpt lat="42.616226" lon="-0.136866">
        <ele>1228.17</ele>
        <time>2019-08-13T08:27:34Z</time>
      </trkpt>
      <trkpt lat="42.616264" lon="-0.136884">
        <ele>1227.72</ele>
        <time>2019-08-13T08:27:36Z</time>
      </trkpt>
      <trkpt lat="42.616295" lon="-0.136899">
        <ele>1226.22</ele>
        <time>2019-08-13T08:27:38Z</time>
      </trkpt>
      <trkpt lat="42.616317" lon="-0.136975">
        <ele>1225.35</ele>
        <time>2019-08-13T08:27:41Z</time>
      </trkpt>
      <trkpt lat="42.616365" lon="-0.136993">
        <ele>1225.25</ele>
        <time>2019-08-13T08:27:46Z</time>
      </trkpt>
      <trkpt lat="42.616312" lon="-0.137111">
        <ele>1225.5</ele>
        <time>2019-08-13T08:27:52Z</time>
      </trkpt>
      <trkpt lat="42.616289" lon="-0.137154">
        <ele>1226.57</ele>
        <time>2019-08-13T08:27:55Z</time>
      </trkpt>
      <trkpt lat="42.616252" lon="-0.137189">
        <ele>1222.97</ele>
        <time>2019-08-13T08:27:59Z</time>
      </trkpt>
      <trkpt lat="42.616227" lon="-0.137154">
        <ele>1222.71</ele>
        <time>2019-08-13T08:28:09Z</time>
      </trkpt>
      <trkpt lat="42.616181" lon="-0.137172">
        <ele>1222.17</ele>
        <time>2019-08-13T08:28:52Z</time>
      </trkpt>
      <trkpt lat="42.61613" lon="-0.13718">
        <ele>1224.32</ele>
        <time>2019-08-13T08:29:00Z</time>
      </trkpt>
      <trkpt lat="42.616088" lon="-0.137228">
        <ele>1218.27</ele>
        <time>2019-08-13T08:29:12Z</time>
      </trkpt>
      <trkpt lat="42.616047" lon="-0.137264">
        <ele>1218.98</ele>
        <time>2019-08-13T08:29:14Z</time>
      </trkpt>
      <trkpt lat="42.615983" lon="-0.137264">
        <ele>1217.95</ele>
        <time>2019-08-13T08:29:17Z</time>
      </trkpt>
      <trkpt lat="42.61593" lon="-0.137284">
        <ele>1216.13</ele>
        <time>2019-08-13T08:29:21Z</time>
      </trkpt>
      <trkpt lat="42.615893" lon="-0.137348">
        <ele>1211.52</ele>
        <time>2019-08-13T08:29:24Z</time>
      </trkpt>
      <trkpt lat="42.615879" lon="-0.137376">
        <ele>1212.2</ele>
        <time>2019-08-13T08:29:25Z</time>
      </trkpt>
      <trkpt lat="42.615847" lon="-0.137424">
        <ele>1212.05</ele>
        <time>2019-08-13T08:29:28Z</time>
      </trkpt>
      <trkpt lat="42.615828" lon="-0.137452">
        <ele>1211.87</ele>
        <time>2019-08-13T08:29:30Z</time>
      </trkpt>
      <trkpt lat="42.615807" lon="-0.137478">
        <ele>1208.97</ele>
        <time>2019-08-13T08:29:32Z</time>
      </trkpt>
      <trkpt lat="42.615777" lon="-0.137538">
        <ele>1208.34</ele>
        <time>2019-08-13T08:29:35Z</time>
      </trkpt>
      <trkpt lat="42.615729" lon="-0.137581">
        <ele>1207.77</ele>
        <time>2019-08-13T08:29:38Z</time>
      </trkpt>
      <trkpt lat="42.615685" lon="-0.137549">
        <ele>1207.9</ele>
        <time>2019-08-13T08:29:43Z</time>
      </trkpt>
      <trkpt lat="42.615609" lon="-0.137545">
        <ele>1209.3</ele>
        <time>2019-08-13T08:29:48Z</time>
      </trkpt>
      <trkpt lat="42.615559" lon="-0.137576">
        <ele>1209.68</ele>
        <time>2019-08-13T08:29:51Z</time>
      </trkpt>
      <trkpt lat="42.61551" lon="-0.137598">
        <ele>1210.69</ele>
        <time>2019-08-13T08:29:54Z</time>
      </trkpt>
      <trkpt lat="42.615411" lon="-0.137594">
        <ele>1208.85</ele>
        <time>2019-08-13T08:29:59Z</time>
      </trkpt>
      <trkpt lat="42.615363" lon="-0.137591">
        <ele>1209.49</ele>
        <time>2019-08-13T08:30:04Z</time>
      </trkpt>
      <trkpt lat="42.615357" lon="-0.137617">
        <ele>1208.44</ele>
        <time>2019-08-13T08:30:13Z</time>
      </trkpt>
      <trkpt lat="42.615331" lon="-0.13767">
        <ele>1204.94</ele>
        <time>2019-08-13T08:30:28Z</time>
      </trkpt>
      <trkpt lat="42.615281" lon="-0.137711">
        <ele>1206.1</ele>
        <time>2019-08-13T08:30:31Z</time>
      </trkpt>
      <trkpt lat="42.615247" lon="-0.137757">
        <ele>1205.04</ele>
        <time>2019-08-13T08:30:33Z</time>
      </trkpt>
      <trkpt lat="42.615196" lon="-0.137792">
        <ele>1203.73</ele>
        <time>2019-08-13T08:30:37Z</time>
      </trkpt>
      <trkpt lat="42.61515" lon="-0.137818">
        <ele>1204.08</ele>
        <time>2019-08-13T08:30:40Z</time>
      </trkpt>
      <trkpt lat="42.615116" lon="-0.137886">
        <ele>1205.08</ele>
        <time>2019-08-13T08:30:43Z</time>
      </trkpt>
      <trkpt lat="42.615084" lon="-0.137954">
        <ele>1206.13</ele>
        <time>2019-08-13T08:30:46Z</time>
      </trkpt>
      <trkpt lat="42.615055" lon="-0.138008">
        <ele>1207.81</ele>
        <time>2019-08-13T08:30:50Z</time>
      </trkpt>
      <trkpt lat="42.615041" lon="-0.138066">
        <ele>1207.8</ele>
        <time>2019-08-13T08:30:54Z</time>
      </trkpt>
      <trkpt lat="42.615033" lon="-0.138103">
        <ele>1208.92</ele>
        <time>2019-08-13T08:30:56Z</time>
      </trkpt>
      <trkpt lat="42.615023" lon="-0.138166">
        <ele>1208.48</ele>
        <time>2019-08-13T08:31:00Z</time>
      </trkpt>
      <trkpt lat="42.614995" lon="-0.138217">
        <ele>1207.61</ele>
        <time>2019-08-13T08:31:04Z</time>
      </trkpt>
      <trkpt lat="42.614977" lon="-0.138287">
        <ele>1204.69</ele>
        <time>2019-08-13T08:31:10Z</time>
      </trkpt>
      <trkpt lat="42.614966" lon="-0.138322">
        <ele>1205.51</ele>
        <time>2019-08-13T08:31:13Z</time>
      </trkpt>
      <trkpt lat="42.614934" lon="-0.138385">
        <ele>1203.84</ele>
        <time>2019-08-13T08:31:17Z</time>
      </trkpt>
      <trkpt lat="42.614903" lon="-0.138435">
        <ele>1203.37</ele>
        <time>2019-08-13T08:31:20Z</time>
      </trkpt>
      <trkpt lat="42.614881" lon="-0.138472">
        <ele>1203.7</ele>
        <time>2019-08-13T08:31:22Z</time>
      </trkpt>
      <trkpt lat="42.614856" lon="-0.13851">
        <ele>1204.39</ele>
        <time>2019-08-13T08:31:24Z</time>
      </trkpt>
      <trkpt lat="42.614839" lon="-0.138534">
        <ele>1204.55</ele>
        <time>2019-08-13T08:31:26Z</time>
      </trkpt>
      <trkpt lat="42.614816" lon="-0.13857">
        <ele>1203.06</ele>
        <time>2019-08-13T08:31:29Z</time>
      </trkpt>
      <trkpt lat="42.614768" lon="-0.138613">
        <ele>1205.65</ele>
        <time>2019-08-13T08:31:33Z</time>
      </trkpt>
      <trkpt lat="42.614734" lon="-0.138662">
        <ele>1205.6</ele>
        <time>2019-08-13T08:31:36Z</time>
      </trkpt>
      <trkpt lat="42.614715" lon="-0.13869">
        <ele>1206.72</ele>
        <time>2019-08-13T08:31:38Z</time>
      </trkpt>
      <trkpt lat="42.614684" lon="-0.138749">
        <ele>1207.47</ele>
        <time>2019-08-13T08:31:42Z</time>
      </trkpt>
      <trkpt lat="42.614669" lon="-0.138779">
        <ele>1205.7</ele>
        <time>2019-08-13T08:31:45Z</time>
      </trkpt>
      <trkpt lat="42.614667" lon="-0.138843">
        <ele>1204.19</ele>
        <time>2019-08-13T08:31:49Z</time>
      </trkpt>
      <trkpt lat="42.614634" lon="-0.138904">
        <ele>1203.05</ele>
        <time>2019-08-13T08:31:54Z</time>
      </trkpt>
      <trkpt lat="42.614615" lon="-0.138972">
        <ele>1203.14</ele>
        <time>2019-08-13T08:31:58Z</time>
      </trkpt>
      <trkpt lat="42.614559" lon="-0.139015">
        <ele>1201.7</ele>
        <time>2019-08-13T08:32:03Z</time>
      </trkpt>
      <trkpt lat="42.614523" lon="-0.139055">
        <ele>1200.23</ele>
        <time>2019-08-13T08:32:08Z</time>
      </trkpt>
      <trkpt lat="42.614498" lon="-0.139123">
        <ele>1201.04</ele>
        <time>2019-08-13T08:32:12Z</time>
      </trkpt>
      <trkpt lat="42.614484" lon="-0.139189">
        <ele>1201.78</ele>
        <time>2019-08-13T08:32:16Z</time>
      </trkpt>
      <trkpt lat="42.614475" lon="-0.139222">
        <ele>1202.57</ele>
        <time>2019-08-13T08:32:18Z</time>
      </trkpt>
      <trkpt lat="42.614468" lon="-0.139253">
        <ele>1200.93</ele>
        <time>2019-08-13T08:32:20Z</time>
      </trkpt>
      <trkpt lat="42.614469" lon="-0.139325">
        <ele>1199.36</ele>
        <time>2019-08-13T08:32:24Z</time>
      </trkpt>
      <trkpt lat="42.614455" lon="-0.139387">
        <ele>1200.08</ele>
        <time>2019-08-13T08:32:29Z</time>
      </trkpt>
      <trkpt lat="42.614447" lon="-0.139442">
        <ele>1202.95</ele>
        <time>2019-08-13T08:32:37Z</time>
      </trkpt>
      <trkpt lat="42.614442" lon="-0.13948">
        <ele>1203.56</ele>
        <time>2019-08-13T08:32:42Z</time>
      </trkpt>
      <trkpt lat="42.614413" lon="-0.139542">
        <ele>1202.06</ele>
        <time>2019-08-13T08:32:46Z</time>
      </trkpt>
      <trkpt lat="42.6144" lon="-0.139626">
        <ele>1201.94</ele>
        <time>2019-08-13T08:32:49Z</time>
      </trkpt>
      <trkpt lat="42.614397" lon="-0.139693">
        <ele>1201.54</ele>
        <time>2019-08-13T08:32:51Z</time>
      </trkpt>
      <trkpt lat="42.61439" lon="-0.139778">
        <ele>1201.37</ele>
        <time>2019-08-13T08:32:54Z</time>
      </trkpt>
      <trkpt lat="42.614387" lon="-0.139831">
        <ele>1199.22</ele>
        <time>2019-08-13T08:32:56Z</time>
      </trkpt>
      <trkpt lat="42.614372" lon="-0.139902">
        <ele>1199.25</ele>
        <time>2019-08-13T08:32:59Z</time>
      </trkpt>
      <trkpt lat="42.614362" lon="-0.139939">
        <ele>1200.14</ele>
        <time>2019-08-13T08:33:01Z</time>
      </trkpt>
      <trkpt lat="42.614346" lon="-0.140009">
        <ele>1202.35</ele>
        <time>2019-08-13T08:33:05Z</time>
      </trkpt>
      <trkpt lat="42.614336" lon="-0.140059">
        <ele>1199.22</ele>
        <time>2019-08-13T08:33:08Z</time>
      </trkpt>
      <trkpt lat="42.614332" lon="-0.140102">
        <ele>1200.42</ele>
        <time>2019-08-13T08:33:16Z</time>
      </trkpt>
      <trkpt lat="42.6143" lon="-0.140155">
        <ele>1205.61</ele>
        <time>2019-08-13T08:33:27Z</time>
      </trkpt>
      <trkpt lat="42.614283" lon="-0.140232">
        <ele>1208.98</ele>
        <time>2019-08-13T08:33:31Z</time>
      </trkpt>
      <trkpt lat="42.614274" lon="-0.1403">
        <ele>1210.52</ele>
        <time>2019-08-13T08:33:34Z</time>
      </trkpt>
      <trkpt lat="42.614269" lon="-0.140345">
        <ele>1211.72</ele>
        <time>2019-08-13T08:33:36Z</time>
      </trkpt>
      <trkpt lat="42.614283" lon="-0.140425">
        <ele>1213.28</ele>
        <time>2019-08-13T08:33:40Z</time>
      </trkpt>
      <trkpt lat="42.614303" lon="-0.14048">
        <ele>1212.74</ele>
        <time>2019-08-13T08:33:43Z</time>
      </trkpt>
      <trkpt lat="42.614319" lon="-0.140547">
        <ele>1210.09</ele>
        <time>2019-08-13T08:33:48Z</time>
      </trkpt>
      <trkpt lat="42.614335" lon="-0.140605">
        <ele>1209.88</ele>
        <time>2019-08-13T08:33:51Z</time>
      </trkpt>
      <trkpt lat="42.614357" lon="-0.140668">
        <ele>1212.09</ele>
        <time>2019-08-13T08:33:55Z</time>
      </trkpt>
      <trkpt lat="42.614399" lon="-0.140716">
        <ele>1213.48</ele>
        <time>2019-08-13T08:34:00Z</time>
      </trkpt>
      <trkpt lat="42.614445" lon="-0.140747">
        <ele>1213.01</ele>
        <time>2019-08-13T08:34:05Z</time>
      </trkpt>
      <trkpt lat="42.614487" lon="-0.140776">
        <ele>1211.08</ele>
        <time>2019-08-13T08:34:09Z</time>
      </trkpt>
      <trkpt lat="42.6145" lon="-0.140846">
        <ele>1211.27</ele>
        <time>2019-08-13T08:34:13Z</time>
      </trkpt>
      <trkpt lat="42.614515" lon="-0.140905">
        <ele>1209.99</ele>
        <time>2019-08-13T08:34:16Z</time>
      </trkpt>
      <trkpt lat="42.614538" lon="-0.140958">
        <ele>1207.24</ele>
        <time>2019-08-13T08:34:19Z</time>
      </trkpt>
      <trkpt lat="42.614567" lon="-0.141017">
        <ele>1207.46</ele>
        <time>2019-08-13T08:34:22Z</time>
      </trkpt>
      <trkpt lat="42.614577" lon="-0.141086">
        <ele>1208.38</ele>
        <time>2019-08-13T08:34:25Z</time>
      </trkpt>
      <trkpt lat="42.614574" lon="-0.141151">
        <ele>1208.15</ele>
        <time>2019-08-13T08:34:29Z</time>
      </trkpt>
      <trkpt lat="42.614573" lon="-0.141211">
        <ele>1208.34</ele>
        <time>2019-08-13T08:34:33Z</time>
      </trkpt>
      <trkpt lat="42.614568" lon="-0.14129">
        <ele>1206.0</ele>
        <time>2019-08-13T08:34:36Z</time>
      </trkpt>
      <trkpt lat="42.614562" lon="-0.141346">
        <ele>1205.74</ele>
        <time>2019-08-13T08:34:39Z</time>
      </trkpt>
      <trkpt lat="42.614565" lon="-0.141414">
        <ele>1204.02</ele>
        <time>2019-08-13T08:34:43Z</time>
      </trkpt>
      <trkpt lat="42.61456" lon="-0.141475">
        <ele>1201.66</ele>
        <time>2019-08-13T08:34:46Z</time>
      </trkpt>
      <trkpt lat="42.614539" lon="-0.14155">
        <ele>1200.79</ele>
        <time>2019-08-13T08:34:50Z</time>
      </trkpt>
      <trkpt lat="42.614535" lon="-0.141611">
        <ele>1200.29</ele>
        <time>2019-08-13T08:34:53Z</time>
      </trkpt>
      <trkpt lat="42.614531" lon="-0.141653">
        <ele>1198.6</ele>
        <time>2019-08-13T08:34:56Z</time>
      </trkpt>
      <trkpt lat="42.6145" lon="-0.141718">
        <ele>1200.52</ele>
        <time>2019-08-13T08:35:00Z</time>
      </trkpt>
      <trkpt lat="42.614466" lon="-0.141765">
        <ele>1200.53</ele>
        <time>2019-08-13T08:35:03Z</time>
      </trkpt>
      <trkpt lat="42.614421" lon="-0.141773">
        <ele>1194.94</ele>
        <time>2019-08-13T08:35:07Z</time>
      </trkpt>
      <trkpt lat="42.61437" lon="-0.141777">
        <ele>1194.45</ele>
        <time>2019-08-13T08:35:10Z</time>
      </trkpt>
      <trkpt lat="42.614326" lon="-0.141749">
        <ele>1194.47</ele>
        <time>2019-08-13T08:35:14Z</time>
      </trkpt>
      <trkpt lat="42.61427" lon="-0.141737">
        <ele>1194.35</ele>
        <time>2019-08-13T08:35:18Z</time>
      </trkpt>
      <trkpt lat="42.614208" lon="-0.141752">
        <ele>1194.19</ele>
        <time>2019-08-13T08:35:21Z</time>
      </trkpt>
      <trkpt lat="42.61416" lon="-0.141739">
        <ele>1193.67</ele>
        <time>2019-08-13T08:35:25Z</time>
      </trkpt>
      <trkpt lat="42.61411" lon="-0.141723">
        <ele>1193.3</ele>
        <time>2019-08-13T08:35:28Z</time>
      </trkpt>
      <trkpt lat="42.614064" lon="-0.141715">
        <ele>1192.58</ele>
        <time>2019-08-13T08:35:31Z</time>
      </trkpt>
      <trkpt lat="42.61402" lon="-0.141739">
        <ele>1194.5</ele>
        <time>2019-08-13T08:35:34Z</time>
      </trkpt>
      <trkpt lat="42.613986" lon="-0.141757">
        <ele>1192.35</ele>
        <time>2019-08-13T08:35:37Z</time>
      </trkpt>
      <trkpt lat="42.613934" lon="-0.141772">
        <ele>1192.3</ele>
        <time>2019-08-13T08:35:42Z</time>
      </trkpt>
      <trkpt lat="42.613879" lon="-0.141821">
        <ele>1190.15</ele>
        <time>2019-08-13T08:35:47Z</time>
      </trkpt>
      <trkpt lat="42.613824" lon="-0.141821">
        <ele>1190.25</ele>
        <time>2019-08-13T08:35:52Z</time>
      </trkpt>
      <trkpt lat="42.61378" lon="-0.141841">
        <ele>1188.27</ele>
        <time>2019-08-13T08:35:56Z</time>
      </trkpt>
      <trkpt lat="42.613729" lon="-0.141859">
        <ele>1186.13</ele>
        <time>2019-08-13T08:36:00Z</time>
      </trkpt>
      <trkpt lat="42.613682" lon="-0.141884">
        <ele>1186.78</ele>
        <time>2019-08-13T08:36:05Z</time>
      </trkpt>
      <trkpt lat="42.613646" lon="-0.141899">
        <ele>1183.59</ele>
        <time>2019-08-13T08:36:08Z</time>
      </trkpt>
      <trkpt lat="42.613621" lon="-0.141912">
        <ele>1184.5</ele>
        <time>2019-08-13T08:36:11Z</time>
      </trkpt>
      <trkpt lat="42.613572" lon="-0.141916">
        <ele>1180.62</ele>
        <time>2019-08-13T08:36:20Z</time>
      </trkpt>
      <trkpt lat="42.613547" lon="-0.14192">
        <ele>1180.08</ele>
        <time>2019-08-13T08:36:22Z</time>
      </trkpt>
      <trkpt lat="42.613501" lon="-0.141918">
        <ele>1181.15</ele>
        <time>2019-08-13T08:36:25Z</time>
      </trkpt>
      <trkpt lat="42.613455" lon="-0.141974">
        <ele>1181.71</ele>
        <time>2019-08-13T08:36:28Z</time>
      </trkpt>
      <trkpt lat="42.613437" lon="-0.141993">
        <ele>1182.08</ele>
        <time>2019-08-13T08:36:29Z</time>
      </trkpt>
      <trkpt lat="42.613389" lon="-0.142001">
        <ele>1184.64</ele>
        <time>2019-08-13T08:36:32Z</time>
      </trkpt>
      <trkpt lat="42.613352" lon="-0.142009">
        <ele>1182.48</ele>
        <time>2019-08-13T08:36:35Z</time>
      </trkpt>
      <trkpt lat="42.613304" lon="-0.142004">
        <ele>1184.43</ele>
        <time>2019-08-13T08:36:38Z</time>
      </trkpt>
      <trkpt lat="42.613249" lon="-0.142009">
        <ele>1182.46</ele>
        <time>2019-08-13T08:36:42Z</time>
      </trkpt>
      <trkpt lat="42.613202" lon="-0.142002">
        <ele>1182.0</ele>
        <time>2019-08-13T08:36:46Z</time>
      </trkpt>
      <trkpt lat="42.613171" lon="-0.141995">
        <ele>1183.43</ele>
        <time>2019-08-13T08:36:48Z</time>
      </trkpt>
      <trkpt lat="42.613119" lon="-0.142004">
        <ele>1182.93</ele>
        <time>2019-08-13T08:36:51Z</time>
      </trkpt>
      <trkpt lat="42.61307" lon="-0.142">
        <ele>1184.17</ele>
        <time>2019-08-13T08:36:54Z</time>
      </trkpt>
      <trkpt lat="42.613089" lon="-0.14196">
        <ele>1183.48</ele>
        <time>2019-08-13T08:37:03Z</time>
      </trkpt>
      <trkpt lat="42.61303" lon="-0.14193">
        <ele>1182.93</ele>
        <time>2019-08-13T08:37:22Z</time>
      </trkpt>
      <trkpt lat="42.61299" lon="-0.141899">
        <ele>1184.67</ele>
        <time>2019-08-13T08:37:25Z</time>
      </trkpt>
      <trkpt lat="42.612933" lon="-0.14188">
        <ele>1186.46</ele>
        <time>2019-08-13T08:37:28Z</time>
      </trkpt>
      <trkpt lat="42.612933" lon="-0.14188">
        <ele>1186.46</ele>
        <time>2019-08-13T08:37:35Z</time>
      </trkpt>
      <trkpt lat="42.612933" lon="-0.14188">
        <ele>1186.46</ele>
        <time>2019-08-13T08:37:36Z</time>
      </trkpt>
      <trkpt lat="42.612877" lon="-0.141856">
        <ele>1183.93</ele>
        <time>2019-08-13T08:37:49Z</time>
      </trkpt>
      <trkpt lat="42.612846" lon="-0.141844">
        <ele>1183.28</ele>
        <time>2019-08-13T08:37:51Z</time>
      </trkpt>
      <trkpt lat="42.612807" lon="-0.141811">
        <ele>1181.72</ele>
        <time>2019-08-13T08:37:54Z</time>
      </trkpt>
      <trkpt lat="42.612783" lon="-0.141743">
        <ele>1179.16</ele>
        <time>2019-08-13T08:37:58Z</time>
      </trkpt>
      <trkpt lat="42.61277" lon="-0.14168">
        <ele>1179.21</ele>
        <time>2019-08-13T08:38:01Z</time>
      </trkpt>
      <trkpt lat="42.612737" lon="-0.141615">
        <ele>1180.95</ele>
        <time>2019-08-13T08:38:05Z</time>
      </trkpt>
      <trkpt lat="42.612717" lon="-0.141578">
        <ele>1182.37</ele>
        <time>2019-08-13T08:38:09Z</time>
      </trkpt>
      <trkpt lat="42.612694" lon="-0.141542">
        <ele>1183.39</ele>
        <time>2019-08-13T08:38:11Z</time>
      </trkpt>
      <trkpt lat="42.61265" lon="-0.141491">
        <ele>1182.81</ele>
        <time>2019-08-13T08:38:14Z</time>
      </trkpt>
      <trkpt lat="42.612629" lon="-0.141465">
        <ele>1182.8</ele>
        <time>2019-08-13T08:38:17Z</time>
      </trkpt>
      <trkpt lat="42.61265" lon="-0.141491">
        <ele>1182.81</ele>
        <time>2019-08-13T08:38:26Z</time>
      </trkpt>
      <trkpt lat="42.612605" lon="-0.141449">
        <ele>1182.27</ele>
        <time>2019-08-13T08:38:42Z</time>
      </trkpt>
      <trkpt lat="42.612559" lon="-0.141442">
        <ele>1181.7</ele>
        <time>2019-08-13T08:38:45Z</time>
      </trkpt>
      <trkpt lat="42.612513" lon="-0.141463">
        <ele>1178.62</ele>
        <time>2019-08-13T08:38:48Z</time>
      </trkpt>
      <trkpt lat="42.612485" lon="-0.141475">
        <ele>1178.73</ele>
        <time>2019-08-13T08:38:50Z</time>
      </trkpt>
      <trkpt lat="42.612441" lon="-0.141516">
        <ele>1177.24</ele>
        <time>2019-08-13T08:38:54Z</time>
      </trkpt>
      <trkpt lat="42.612393" lon="-0.14155">
        <ele>1175.19</ele>
        <time>2019-08-13T08:38:58Z</time>
      </trkpt>
      <trkpt lat="42.612336" lon="-0.141556">
        <ele>1174.41</ele>
        <time>2019-08-13T08:39:03Z</time>
      </trkpt>
      <trkpt lat="42.612285" lon="-0.141575">
        <ele>1174.7</ele>
        <time>2019-08-13T08:39:06Z</time>
      </trkpt>
      <trkpt lat="42.612229" lon="-0.141582">
        <ele>1177.32</ele>
        <time>2019-08-13T08:39:10Z</time>
      </trkpt>
      <trkpt lat="42.612185" lon="-0.141608">
        <ele>1180.22</ele>
        <time>2019-08-13T08:39:13Z</time>
      </trkpt>
      <trkpt lat="42.612163" lon="-0.141622">
        <ele>1180.73</ele>
        <time>2019-08-13T08:39:15Z</time>
      </trkpt>
      <trkpt lat="42.61213" lon="-0.141683">
        <ele>1178.63</ele>
        <time>2019-08-13T08:39:20Z</time>
      </trkpt>
      <trkpt lat="42.612086" lon="-0.141714">
        <ele>1178.23</ele>
        <time>2019-08-13T08:39:24Z</time>
      </trkpt>
      <trkpt lat="42.612057" lon="-0.141735">
        <ele>1176.3</ele>
        <time>2019-08-13T08:39:27Z</time>
      </trkpt>
      <trkpt lat="42.612012" lon="-0.141748">
        <ele>1175.73</ele>
        <time>2019-08-13T08:39:31Z</time>
      </trkpt>
      <trkpt lat="42.611962" lon="-0.141732">
        <ele>1175.44</ele>
        <time>2019-08-13T08:39:36Z</time>
      </trkpt>
      <trkpt lat="42.611912" lon="-0.141726">
        <ele>1175.74</ele>
        <time>2019-08-13T08:39:39Z</time>
      </trkpt>
      <trkpt lat="42.611867" lon="-0.141746">
        <ele>1176.27</ele>
        <time>2019-08-13T08:39:43Z</time>
      </trkpt>
      <trkpt lat="42.611821" lon="-0.141737">
        <ele>1176.96</ele>
        <time>2019-08-13T08:39:48Z</time>
      </trkpt>
      <trkpt lat="42.611768" lon="-0.141691">
        <ele>1183.66</ele>
        <time>2019-08-13T08:39:53Z</time>
      </trkpt>
      <trkpt lat="42.611718" lon="-0.141696">
        <ele>1184.04</ele>
        <time>2019-08-13T08:39:58Z</time>
      </trkpt>
      <trkpt lat="42.611667" lon="-0.141699">
        <ele>1184.26</ele>
        <time>2019-08-13T08:40:00Z</time>
      </trkpt>
      <trkpt lat="42.611686" lon="-0.141708">
        <ele>1180.02</ele>
        <time>2019-08-13T08:40:09Z</time>
      </trkpt>
      <trkpt lat="42.611644" lon="-0.141676">
        <ele>1176.73</ele>
        <time>2019-08-13T08:40:17Z</time>
      </trkpt>
      <trkpt lat="42.61159" lon="-0.141654">
        <ele>1176.12</ele>
        <time>2019-08-13T08:40:23Z</time>
      </trkpt>
      <trkpt lat="42.61155" lon="-0.141624">
        <ele>1178.09</ele>
        <time>2019-08-13T08:40:25Z</time>
      </trkpt>
      <trkpt lat="42.611478" lon="-0.141608">
        <ele>1177.03</ele>
        <time>2019-08-13T08:40:29Z</time>
      </trkpt>
      <trkpt lat="42.611414" lon="-0.141549">
        <ele>1178.3</ele>
        <time>2019-08-13T08:40:33Z</time>
      </trkpt>
      <trkpt lat="42.611395" lon="-0.14153">
        <ele>1177.08</ele>
        <time>2019-08-13T08:40:34Z</time>
      </trkpt>
      <trkpt lat="42.611347" lon="-0.141539">
        <ele>1174.04</ele>
        <time>2019-08-13T08:40:38Z</time>
      </trkpt>
      <trkpt lat="42.611313" lon="-0.141581">
        <ele>1174.08</ele>
        <time>2019-08-13T08:40:42Z</time>
      </trkpt>
      <trkpt lat="42.611249" lon="-0.141529">
        <ele>1173.95</ele>
        <time>2019-08-13T08:40:45Z</time>
      </trkpt>
      <trkpt lat="42.611215" lon="-0.1415">
        <ele>1174.12</ele>
        <time>2019-08-13T08:40:47Z</time>
      </trkpt>
      <trkpt lat="42.611163" lon="-0.141504">
        <ele>1168.34</ele>
        <time>2019-08-13T08:40:52Z</time>
      </trkpt>
      <trkpt lat="42.611136" lon="-0.141506">
        <ele>1168.39</ele>
        <time>2019-08-13T08:40:56Z</time>
      </trkpt>
      <trkpt lat="42.611081" lon="-0.141509">
        <ele>1169.95</ele>
        <time>2019-08-13T08:41:03Z</time>
      </trkpt>
      <trkpt lat="42.611042" lon="-0.141511">
        <ele>1169.65</ele>
        <time>2019-08-13T08:41:06Z</time>
      </trkpt>
      <trkpt lat="42.610987" lon="-0.141515">
        <ele>1171.56</ele>
        <time>2019-08-13T08:42:44Z</time>
      </trkpt>
      <trkpt lat="42.610921" lon="-0.141482">
        <ele>1170.56</ele>
        <time>2019-08-13T08:42:48Z</time>
      </trkpt>
      <trkpt lat="42.610895" lon="-0.141466">
        <ele>1172.0</ele>
        <time>2019-08-13T08:42:51Z</time>
      </trkpt>
      <trkpt lat="42.610849" lon="-0.14146">
        <ele>1171.42</ele>
        <time>2019-08-13T08:42:56Z</time>
      </trkpt>
      <trkpt lat="42.610849" lon="-0.14146">
        <ele>1171.42</ele>
        <time>2019-08-13T08:43:04Z</time>
      </trkpt>
      <trkpt lat="42.610849" lon="-0.14146">
        <ele>1171.42</ele>
        <time>2019-08-13T08:43:05Z</time>
      </trkpt>
      <trkpt lat="42.610796" lon="-0.141448">
        <ele>1171.12</ele>
        <time>2019-08-13T08:44:20Z</time>
      </trkpt>
      <trkpt lat="42.610769" lon="-0.141439">
        <ele>1171.79</ele>
        <time>2019-08-13T08:44:22Z</time>
      </trkpt>
      <trkpt lat="42.610717" lon="-0.141415">
        <ele>1172.16</ele>
        <time>2019-08-13T08:44:27Z</time>
      </trkpt>
      <trkpt lat="42.61067" lon="-0.141401">
        <ele>1170.79</ele>
        <time>2019-08-13T08:44:31Z</time>
      </trkpt>
      <trkpt lat="42.610625" lon="-0.141378">
        <ele>1169.99</ele>
        <time>2019-08-13T08:44:35Z</time>
      </trkpt>
      <trkpt lat="42.610598" lon="-0.141363">
        <ele>1169.69</ele>
        <time>2019-08-13T08:44:37Z</time>
      </trkpt>
      <trkpt lat="42.610566" lon="-0.141308">
        <ele>1167.8</ele>
        <time>2019-08-13T08:44:41Z</time>
      </trkpt>
      <trkpt lat="42.610548" lon="-0.141274">
        <ele>1166.85</ele>
        <time>2019-08-13T08:44:44Z</time>
      </trkpt>
      <trkpt lat="42.610509" lon="-0.141239">
        <ele>1167.12</ele>
        <time>2019-08-13T08:44:48Z</time>
      </trkpt>
      <trkpt lat="42.61048" lon="-0.141191">
        <ele>1164.74</ele>
        <time>2019-08-13T08:44:52Z</time>
      </trkpt>
      <trkpt lat="42.610459" lon="-0.141162">
        <ele>1165.55</ele>
        <time>2019-08-13T08:44:54Z</time>
      </trkpt>
      <trkpt lat="42.610432" lon="-0.141134">
        <ele>1163.66</ele>
        <time>2019-08-13T08:45:02Z</time>
      </trkpt>
      <trkpt lat="42.610443" lon="-0.141057">
        <ele>1162.93</ele>
        <time>2019-08-13T08:45:07Z</time>
      </trkpt>
      <trkpt lat="42.610426" lon="-0.140988">
        <ele>1163.73</ele>
        <time>2019-08-13T08:45:12Z</time>
      </trkpt>
      <trkpt lat="42.61046" lon="-0.140955">
        <ele>1163.06</ele>
        <time>2019-08-13T08:45:21Z</time>
      </trkpt>
      <trkpt lat="42.610457" lon="-0.140888">
        <ele>1162.58</ele>
        <time>2019-08-13T08:45:28Z</time>
      </trkpt>
      <trkpt lat="42.610433" lon="-0.140818">
        <ele>1162.11</ele>
        <time>2019-08-13T08:45:33Z</time>
      </trkpt>
      <trkpt lat="42.610421" lon="-0.140741">
        <ele>1163.78</ele>
        <time>2019-08-13T08:45:38Z</time>
      </trkpt>
      <trkpt lat="42.610414" lon="-0.140705">
        <ele>1164.0</ele>
        <time>2019-08-13T08:45:41Z</time>
      </trkpt>
      <trkpt lat="42.610414" lon="-0.140705">
        <ele>1164.0</ele>
        <time>2019-08-13T08:45:49Z</time>
      </trkpt>
      <trkpt lat="42.610414" lon="-0.140705">
        <ele>1164.0</ele>
        <time>2019-08-13T08:45:50Z</time>
      </trkpt>
      <trkpt lat="42.610423" lon="-0.140766">
        <ele>1169.88</ele>
        <time>2019-08-13T08:46:47Z</time>
      </trkpt>
      <trkpt lat="42.610427" lon="-0.140821">
        <ele>1169.86</ele>
        <time>2019-08-13T08:46:49Z</time>
      </trkpt>
      <trkpt lat="42.610432" lon="-0.140876">
        <ele>1169.42</ele>
        <time>2019-08-13T08:46:51Z</time>
      </trkpt>
      <trkpt lat="42.610433" lon="-0.140922">
        <ele>1169.67</ele>
        <time>2019-08-13T08:46:53Z</time>
      </trkpt>
      <trkpt lat="42.610432" lon="-0.140961">
        <ele>1169.03</ele>
        <time>2019-08-13T08:46:55Z</time>
      </trkpt>
      <trkpt lat="42.610436" lon="-0.141037">
        <ele>1169.17</ele>
        <time>2019-08-13T08:46:59Z</time>
      </trkpt>
      <trkpt lat="42.610442" lon="-0.141098">
        <ele>1169.5</ele>
        <time>2019-08-13T08:47:04Z</time>
      </trkpt>
      <trkpt lat="42.610442" lon="-0.141155">
        <ele>1169.78</ele>
        <time>2019-08-13T08:47:14Z</time>
      </trkpt>
      <trkpt lat="42.610216" lon="-0.141496">
        <ele>1156.98</ele>
        <time>2019-08-13T08:48:49Z</time>
      </trkpt>
      <trkpt lat="42.610181" lon="-0.141537">
        <ele>1153.69</ele>
        <time>2019-08-13T08:48:54Z</time>
      </trkpt>
      <trkpt lat="42.610181" lon="-0.141537">
        <ele>1153.69</ele>
        <time>2019-08-13T08:49:02Z</time>
      </trkpt>
      <trkpt lat="42.610181" lon="-0.141537">
        <ele>1153.69</ele>
        <time>2019-08-13T08:49:03Z</time>
      </trkpt>
      <trkpt lat="42.610142" lon="-0.141583">
        <ele>1154.49</ele>
        <time>2019-08-13T08:49:38Z</time>
      </trkpt>
      <trkpt lat="42.610082" lon="-0.141588">
        <ele>1151.71</ele>
        <time>2019-08-13T08:49:41Z</time>
      </trkpt>
      <trkpt lat="42.610021" lon="-0.141614">
        <ele>1146.09</ele>
        <time>2019-08-13T08:49:46Z</time>
      </trkpt>
      <trkpt lat="42.609975" lon="-0.141643">
        <ele>1146.81</ele>
        <time>2019-08-13T08:49:51Z</time>
      </trkpt>
      <trkpt lat="42.609944" lon="-0.141663">
        <ele>1145.02</ele>
        <time>2019-08-13T08:49:53Z</time>
      </trkpt>
      <trkpt lat="42.60988" lon="-0.141707">
        <ele>1146.06</ele>
        <time>2019-08-13T08:49:58Z</time>
      </trkpt>
      <trkpt lat="42.609849" lon="-0.141753">
        <ele>1145.23</ele>
        <time>2019-08-13T08:50:02Z</time>
      </trkpt>
      <trkpt lat="42.609804" lon="-0.141764">
        <ele>1142.85</ele>
        <time>2019-08-13T08:50:08Z</time>
      </trkpt>
      <trkpt lat="42.609755" lon="-0.141768">
        <ele>1143.96</ele>
        <time>2019-08-13T08:50:14Z</time>
      </trkpt>
      <trkpt lat="42.609717" lon="-0.141808">
        <ele>1141.57</ele>
        <time>2019-08-13T08:50:18Z</time>
      </trkpt>
      <trkpt lat="42.609669" lon="-0.141847">
        <ele>1142.14</ele>
        <time>2019-08-13T08:50:22Z</time>
      </trkpt>
      <trkpt lat="42.609644" lon="-0.141866">
        <ele>1141.87</ele>
        <time>2019-08-13T08:50:23Z</time>
      </trkpt>
      <trkpt lat="42.609618" lon="-0.141887">
        <ele>1143.67</ele>
        <time>2019-08-13T08:50:24Z</time>
      </trkpt>
      <trkpt lat="42.609578" lon="-0.14185">
        <ele>1142.24</ele>
        <time>2019-08-13T08:50:31Z</time>
      </trkpt>
      <trkpt lat="42.609545" lon="-0.141792">
        <ele>1141.41</ele>
        <time>2019-08-13T08:50:36Z</time>
      </trkpt>
      <trkpt lat="42.609502" lon="-0.141746">
        <ele>1140.75</ele>
        <time>2019-08-13T08:50:42Z</time>
      </trkpt>
      <trkpt lat="42.609477" lon="-0.141714">
        <ele>1139.4</ele>
        <time>2019-08-13T08:50:45Z</time>
      </trkpt>
      <trkpt lat="42.609456" lon="-0.141692">
        <ele>1138.56</ele>
        <time>2019-08-13T08:50:47Z</time>
      </trkpt>
      <trkpt lat="42.609429" lon="-0.141662">
        <ele>1140.57</ele>
        <time>2019-08-13T08:50:49Z</time>
      </trkpt>
      <trkpt lat="42.609405" lon="-0.1416">
        <ele>1140.33</ele>
        <time>2019-08-13T08:50:52Z</time>
      </trkpt>
      <trkpt lat="42.609391" lon="-0.14156">
        <ele>1139.7</ele>
        <time>2019-08-13T08:50:54Z</time>
      </trkpt>
      <trkpt lat="42.609365" lon="-0.141506">
        <ele>1140.82</ele>
        <time>2019-08-13T08:50:57Z</time>
      </trkpt>
      <trkpt lat="42.609345" lon="-0.141442">
        <ele>1140.45</ele>
        <time>2019-08-13T08:51:01Z</time>
      </trkpt>
      <trkpt lat="42.60931" lon="-0.14138">
        <ele>1140.52</ele>
        <time>2019-08-13T08:51:05Z</time>
      </trkpt>
      <trkpt lat="42.609269" lon="-0.141328">
        <ele>1139.98</ele>
        <time>2019-08-13T08:51:09Z</time>
      </trkpt>
      <trkpt lat="42.609236" lon="-0.141275">
        <ele>1139.76</ele>
        <time>2019-08-13T08:51:13Z</time>
      </trkpt>
      <trkpt lat="42.609187" lon="-0.14125">
        <ele>1139.79</ele>
        <time>2019-08-13T08:51:17Z</time>
      </trkpt>
      <trkpt lat="42.609137" lon="-0.141264">
        <ele>1138.08</ele>
        <time>2019-08-13T08:51:21Z</time>
      </trkpt>
      <trkpt lat="42.609148" lon="-0.141297">
        <ele>1136.86</ele>
        <time>2019-08-13T08:51:30Z</time>
      </trkpt>
      <trkpt lat="42.609001" lon="-0.141349">
        <ele>1142.18</ele>
        <time>2019-08-13T08:54:12Z</time>
      </trkpt>
      <trkpt lat="42.608971" lon="-0.141416">
        <ele>1146.69</ele>
        <time>2019-08-13T08:54:17Z</time>
      </trkpt>
      <trkpt lat="42.608963" lon="-0.141487">
        <ele>1147.77</ele>
        <time>2019-08-13T08:54:24Z</time>
      </trkpt>
      <trkpt lat="42.608954" lon="-0.141544">
        <ele>1148.26</ele>
        <time>2019-08-13T08:54:29Z</time>
      </trkpt>
      <trkpt lat="42.608947" lon="-0.141589">
        <ele>1147.41</ele>
        <time>2019-08-13T08:54:32Z</time>
      </trkpt>
      <trkpt lat="42.608897" lon="-0.141616">
        <ele>1145.37</ele>
        <time>2019-08-13T08:54:36Z</time>
      </trkpt>
      <trkpt lat="42.608861" lon="-0.141667">
        <ele>1146.68</ele>
        <time>2019-08-13T08:54:42Z</time>
      </trkpt>
      <trkpt lat="42.608812" lon="-0.14167">
        <ele>1148.08</ele>
        <time>2019-08-13T08:54:46Z</time>
      </trkpt>
      <trkpt lat="42.608786" lon="-0.141674">
        <ele>1147.79</ele>
        <time>2019-08-13T08:54:48Z</time>
      </trkpt>
      <trkpt lat="42.608738" lon="-0.141675">
        <ele>1147.65</ele>
        <time>2019-08-13T08:54:54Z</time>
      </trkpt>
      <trkpt lat="42.608656" lon="-0.141561">
        <ele>1136.25</ele>
        <time>2019-08-13T08:55:50Z</time>
      </trkpt>
      <trkpt lat="42.608609" lon="-0.141463">
        <ele>1140.75</ele>
        <time>2019-08-13T08:55:53Z</time>
      </trkpt>
      <trkpt lat="42.608591" lon="-0.1414">
        <ele>1147.22</ele>
        <time>2019-08-13T08:55:55Z</time>
      </trkpt>
      <trkpt lat="42.608561" lon="-0.141353">
        <ele>1158.84</ele>
        <time>2019-08-13T08:55:57Z</time>
      </trkpt>
      <trkpt lat="42.608536" lon="-0.141311">
        <ele>1155.78</ele>
        <time>2019-08-13T08:55:59Z</time>
      </trkpt>
      <trkpt lat="42.608503" lon="-0.141266">
        <ele>1155.7</ele>
        <time>2019-08-13T08:56:02Z</time>
      </trkpt>
      <trkpt lat="42.608471" lon="-0.141213">
        <ele>1155.31</ele>
        <time>2019-08-13T08:56:06Z</time>
      </trkpt>
      <trkpt lat="42.608449" lon="-0.141146">
        <ele>1153.45</ele>
        <time>2019-08-13T08:56:10Z</time>
      </trkpt>
      <trkpt lat="42.608451" lon="-0.141078">
        <ele>1159.68</ele>
        <time>2019-08-13T08:56:15Z</time>
      </trkpt>
      <trkpt lat="42.608422" lon="-0.14103">
        <ele>1160.58</ele>
        <time>2019-08-13T08:56:18Z</time>
      </trkpt>
      <trkpt lat="42.6084" lon="-0.14099">
        <ele>1159.77</ele>
        <time>2019-08-13T08:56:22Z</time>
      </trkpt>
      <trkpt lat="42.608386" lon="-0.140963">
        <ele>1161.1</ele>
        <time>2019-08-13T08:56:25Z</time>
      </trkpt>
      <trkpt lat="42.608368" lon="-0.140932">
        <ele>1161.04</ele>
        <time>2019-08-13T08:56:28Z</time>
      </trkpt>
      <trkpt lat="42.608316" lon="-0.140936">
        <ele>1165.26</ele>
        <time>2019-08-13T08:56:34Z</time>
      </trkpt>
      <trkpt lat="42.608328" lon="-0.140879">
        <ele>1161.83</ele>
        <time>2019-08-13T08:56:42Z</time>
      </trkpt>
      <trkpt lat="42.608205" lon="-0.140553">
        <ele>1176.27</ele>
        <time>2019-08-13T08:57:59Z</time>
      </trkpt>
      <trkpt lat="42.608229" lon="-0.140463">
        <ele>1173.52</ele>
        <time>2019-08-13T08:58:02Z</time>
      </trkpt>
      <trkpt lat="42.60827" lon="-0.140375">
        <ele>1176.59</ele>
        <time>2019-08-13T08:58:04Z</time>
      </trkpt>
      <trkpt lat="42.608292" lon="-0.140312">
        <ele>1177.36</ele>
        <time>2019-08-13T08:58:06Z</time>
      </trkpt>
      <trkpt lat="42.60831" lon="-0.140265">
        <ele>1181.27</ele>
        <time>2019-08-13T08:58:08Z</time>
      </trkpt>
      <trkpt lat="42.608299" lon="-0.140198">
        <ele>1182.18</ele>
        <time>2019-08-13T08:58:12Z</time>
      </trkpt>
      <trkpt lat="42.608255" lon="-0.140162">
        <ele>1182.85</ele>
        <time>2019-08-13T08:58:15Z</time>
      </trkpt>
      <trkpt lat="42.608193" lon="-0.140141">
        <ele>1184.46</ele>
        <time>2019-08-13T08:58:18Z</time>
      </trkpt>
      <trkpt lat="42.608167" lon="-0.140134">
        <ele>1185.54</ele>
        <time>2019-08-13T08:58:20Z</time>
      </trkpt>
      <trkpt lat="42.608134" lon="-0.140093">
        <ele>1187.58</ele>
        <time>2019-08-13T08:58:26Z</time>
      </trkpt>
      <trkpt lat="42.608134" lon="-0.140093">
        <ele>1187.58</ele>
        <time>2019-08-13T08:58:33Z</time>
      </trkpt>
      <trkpt lat="42.608134" lon="-0.140093">
        <ele>1187.58</ele>
        <time>2019-08-13T08:58:35Z</time>
      </trkpt>
      <trkpt lat="42.608102" lon="-0.140035">
        <ele>1187.81</ele>
        <time>2019-08-13T08:58:41Z</time>
      </trkpt>
      <trkpt lat="42.608083" lon="-0.140001">
        <ele>1186.77</ele>
        <time>2019-08-13T08:58:43Z</time>
      </trkpt>
      <trkpt lat="42.608091" lon="-0.139927">
        <ele>1185.31</ele>
        <time>2019-08-13T08:58:48Z</time>
      </trkpt>
      <trkpt lat="42.608097" lon="-0.139892">
        <ele>1187.11</ele>
        <time>2019-08-13T08:58:51Z</time>
      </trkpt>
      <trkpt lat="42.608063" lon="-0.139842">
        <ele>1187.23</ele>
        <time>2019-08-13T08:58:57Z</time>
      </trkpt>
      <trkpt lat="42.608039" lon="-0.139775">
        <ele>1186.83</ele>
        <time>2019-08-13T08:59:04Z</time>
      </trkpt>
      <trkpt lat="42.608041" lon="-0.139705">
        <ele>1190.6</ele>
        <time>2019-08-13T08:59:08Z</time>
      </trkpt>
      <trkpt lat="42.608044" lon="-0.139632">
        <ele>1192.73</ele>
        <time>2019-08-13T08:59:14Z</time>
      </trkpt>
      <trkpt lat="42.608011" lon="-0.139572">
        <ele>1192.84</ele>
        <time>2019-08-13T08:59:22Z</time>
      </trkpt>
      <trkpt lat="42.608007" lon="-0.139503">
        <ele>1192.86</ele>
        <time>2019-08-13T08:59:26Z</time>
      </trkpt>
      <trkpt lat="42.607967" lon="-0.139443">
        <ele>1195.51</ele>
        <time>2019-08-13T08:59:29Z</time>
      </trkpt>
      <trkpt lat="42.607942" lon="-0.13941">
        <ele>1197.35</ele>
        <time>2019-08-13T08:59:31Z</time>
      </trkpt>
      <trkpt lat="42.607935" lon="-0.13934">
        <ele>1200.09</ele>
        <time>2019-08-13T08:59:37Z</time>
      </trkpt>
      <trkpt lat="42.607899" lon="-0.139343">
        <ele>1199.68</ele>
        <time>2019-08-13T08:59:43Z</time>
      </trkpt>
      <trkpt lat="42.607869" lon="-0.139275">
        <ele>1180.06</ele>
        <time>2019-08-13T09:00:19Z</time>
      </trkpt>
      <trkpt lat="42.607887" lon="-0.139185">
        <ele>1186.62</ele>
        <time>2019-08-13T09:00:22Z</time>
      </trkpt>
      <trkpt lat="42.607844" lon="-0.139117">
        <ele>1186.09</ele>
        <time>2019-08-13T09:00:24Z</time>
      </trkpt>
      <trkpt lat="42.607828" lon="-0.139093">
        <ele>1187.49</ele>
        <time>2019-08-13T09:00:25Z</time>
      </trkpt>
      <trkpt lat="42.607809" lon="-0.139069">
        <ele>1186.38</ele>
        <time>2019-08-13T09:00:26Z</time>
      </trkpt>
      <trkpt lat="42.607772" lon="-0.139013">
        <ele>1187.88</ele>
        <time>2019-08-13T09:00:28Z</time>
      </trkpt>
      <trkpt lat="42.607747" lon="-0.138982">
        <ele>1187.94</ele>
        <time>2019-08-13T09:00:29Z</time>
      </trkpt>
      <trkpt lat="42.607727" lon="-0.138959">
        <ele>1186.8</ele>
        <time>2019-08-13T09:00:30Z</time>
      </trkpt>
      <trkpt lat="42.607709" lon="-0.138891">
        <ele>1188.92</ele>
        <time>2019-08-13T09:00:33Z</time>
      </trkpt>
      <trkpt lat="42.607709" lon="-0.13877">
        <ele>1195.82</ele>
        <time>2019-08-13T09:00:39Z</time>
      </trkpt>
      <trkpt lat="42.607736" lon="-0.138714">
        <ele>1194.86</ele>
        <time>2019-08-13T09:00:42Z</time>
      </trkpt>
      <trkpt lat="42.607726" lon="-0.138641">
        <ele>1195.18</ele>
        <time>2019-08-13T09:00:46Z</time>
      </trkpt>
      <trkpt lat="42.607682" lon="-0.138588">
        <ele>1194.14</ele>
        <time>2019-08-13T09:00:50Z</time>
      </trkpt>
      <trkpt lat="42.607637" lon="-0.138566">
        <ele>1190.93</ele>
        <time>2019-08-13T09:00:53Z</time>
      </trkpt>
      <trkpt lat="42.607637" lon="-0.138566">
        <ele>1190.93</ele>
        <time>2019-08-13T09:01:01Z</time>
      </trkpt>
      <trkpt lat="42.607637" lon="-0.138566">
        <ele>1190.93</ele>
        <time>2019-08-13T09:01:02Z</time>
      </trkpt>
      <trkpt lat="42.607676" lon="-0.138516">
        <ele>1192.12</ele>
        <time>2019-08-13T09:01:04Z</time>
      </trkpt>
      <trkpt lat="42.607674" lon="-0.138436">
        <ele>1192.88</ele>
        <time>2019-08-13T09:01:11Z</time>
      </trkpt>
      <trkpt lat="42.607646" lon="-0.138382">
        <ele>1194.86</ele>
        <time>2019-08-13T09:01:15Z</time>
      </trkpt>
      <trkpt lat="42.607588" lon="-0.138372">
        <ele>1195.37</ele>
        <time>2019-08-13T09:01:19Z</time>
      </trkpt>
      <trkpt lat="42.607561" lon="-0.138316">
        <ele>1195.49</ele>
        <time>2019-08-13T09:01:23Z</time>
      </trkpt>
      <trkpt lat="42.60755" lon="-0.138232">
        <ele>1192.83</ele>
        <time>2019-08-13T09:01:26Z</time>
      </trkpt>
      <trkpt lat="42.607507" lon="-0.138209">
        <ele>1191.06</ele>
        <time>2019-08-13T09:01:31Z</time>
      </trkpt>
      <trkpt lat="42.607458" lon="-0.138185">
        <ele>1191.25</ele>
        <time>2019-08-13T09:01:36Z</time>
      </trkpt>
      <trkpt lat="42.607446" lon="-0.138125">
        <ele>1193.14</ele>
        <time>2019-08-13T09:01:40Z</time>
      </trkpt>
      <trkpt lat="42.607428" lon="-0.138069">
        <ele>1195.96</ele>
        <time>2019-08-13T09:01:46Z</time>
      </trkpt>
      <trkpt lat="42.607427" lon="-0.13799">
        <ele>1199.03</ele>
        <time>2019-08-13T09:01:51Z</time>
      </trkpt>
      <trkpt lat="42.607365" lon="-0.137918">
        <ele>1203.41</ele>
        <time>2019-08-13T09:01:56Z</time>
      </trkpt>
      <trkpt lat="42.60732" lon="-0.137898">
        <ele>1203.04</ele>
        <time>2019-08-13T09:02:05Z</time>
      </trkpt>
      <trkpt lat="42.607291" lon="-0.137872">
        <ele>1203.08</ele>
        <time>2019-08-13T09:02:12Z</time>
      </trkpt>
      <trkpt lat="42.607258" lon="-0.137848">
        <ele>1201.5</ele>
        <time>2019-08-13T09:02:15Z</time>
      </trkpt>
      <trkpt lat="42.607238" lon="-0.13778">
        <ele>1198.62</ele>
        <time>2019-08-13T09:02:23Z</time>
      </trkpt>
      <trkpt lat="42.607229" lon="-0.137741">
        <ele>1197.88</ele>
        <time>2019-08-13T09:02:26Z</time>
      </trkpt>
      <trkpt lat="42.607201" lon="-0.137691">
        <ele>1202.09</ele>
        <time>2019-08-13T09:02:31Z</time>
      </trkpt>
      <trkpt lat="42.60716" lon="-0.137648">
        <ele>1203.58</ele>
        <time>2019-08-13T09:02:35Z</time>
      </trkpt>
      <trkpt lat="42.607134" lon="-0.137578">
        <ele>1206.29</ele>
        <time>2019-08-13T09:02:41Z</time>
      </trkpt>
      <trkpt lat="42.6071" lon="-0.137508">
        <ele>1206.47</ele>
        <time>2019-08-13T09:02:46Z</time>
      </trkpt>
      <trkpt lat="42.607086" lon="-0.137446">
        <ele>1207.14</ele>
        <time>2019-08-13T09:02:49Z</time>
      </trkpt>
      <trkpt lat="42.607074" lon="-0.137369">
        <ele>1205.62</ele>
        <time>2019-08-13T09:02:53Z</time>
      </trkpt>
      <trkpt lat="42.607043" lon="-0.137318">
        <ele>1205.94</ele>
        <time>2019-08-13T09:02:59Z</time>
      </trkpt>
      <trkpt lat="42.607003" lon="-0.137274">
        <ele>1205.15</ele>
        <time>2019-08-13T09:03:05Z</time>
      </trkpt>
      <trkpt lat="42.606958" lon="-0.137239">
        <ele>1204.83</ele>
        <time>2019-08-13T09:03:08Z</time>
      </trkpt>
      <trkpt lat="42.606924" lon="-0.137208">
        <ele>1204.65</ele>
        <time>2019-08-13T09:03:12Z</time>
      </trkpt>
      <trkpt lat="42.606887" lon="-0.13718">
        <ele>1206.84</ele>
        <time>2019-08-13T09:03:15Z</time>
      </trkpt>
      <trkpt lat="42.606878" lon="-0.137119">
        <ele>1210.15</ele>
        <time>2019-08-13T09:03:18Z</time>
      </trkpt>
      <trkpt lat="42.606873" lon="-0.137083">
        <ele>1210.1</ele>
        <time>2019-08-13T09:03:21Z</time>
      </trkpt>
      <trkpt lat="42.60683" lon="-0.13706">
        <ele>1211.3</ele>
        <time>2019-08-13T09:03:25Z</time>
      </trkpt>
      <trkpt lat="42.606804" lon="-0.136999">
        <ele>1212.09</ele>
        <time>2019-08-13T09:03:31Z</time>
      </trkpt>
      <trkpt lat="42.606822" lon="-0.136912">
        <ele>1214.84</ele>
        <time>2019-08-13T09:03:35Z</time>
      </trkpt>
      <trkpt lat="42.606746" lon="-0.136832">
        <ele>1219.36</ele>
        <time>2019-08-13T09:03:49Z</time>
      </trkpt>
      <trkpt lat="42.60671" lon="-0.136791">
        <ele>1219.22</ele>
        <time>2019-08-13T09:03:53Z</time>
      </trkpt>
      <trkpt lat="42.60671" lon="-0.136791">
        <ele>1219.22</ele>
        <time>2019-08-13T09:04:00Z</time>
      </trkpt>
      <trkpt lat="42.60671" lon="-0.136791">
        <ele>1219.22</ele>
        <time>2019-08-13T09:04:01Z</time>
      </trkpt>
      <trkpt lat="42.606655" lon="-0.136762">
        <ele>1220.67</ele>
        <time>2019-08-13T09:04:05Z</time>
      </trkpt>
      <trkpt lat="42.606623" lon="-0.13675">
        <ele>1220.24</ele>
        <time>2019-08-13T09:04:08Z</time>
      </trkpt>
      <trkpt lat="42.606562" lon="-0.13669">
        <ele>1223.25</ele>
        <time>2019-08-13T09:04:13Z</time>
      </trkpt>
      <trkpt lat="42.606554" lon="-0.136626">
        <ele>1222.53</ele>
        <time>2019-08-13T09:04:16Z</time>
      </trkpt>
      <trkpt lat="42.606514" lon="-0.136563">
        <ele>1220.75</ele>
        <time>2019-08-13T09:04:20Z</time>
      </trkpt>
      <trkpt lat="42.606469" lon="-0.136536">
        <ele>1222.08</ele>
        <time>2019-08-13T09:04:22Z</time>
      </trkpt>
      <trkpt lat="42.606435" lon="-0.136514">
        <ele>1221.81</ele>
        <time>2019-08-13T09:04:24Z</time>
      </trkpt>
      <trkpt lat="42.606398" lon="-0.136479">
        <ele>1218.09</ele>
        <time>2019-08-13T09:04:28Z</time>
      </trkpt>
      <trkpt lat="42.60638" lon="-0.1364">
        <ele>1219.24</ele>
        <time>2019-08-13T09:04:33Z</time>
      </trkpt>
      <trkpt lat="42.606324" lon="-0.136346">
        <ele>1217.29</ele>
        <time>2019-08-13T09:04:40Z</time>
      </trkpt>
      <trkpt lat="42.606292" lon="-0.136311">
        <ele>1217.94</ele>
        <time>2019-08-13T09:04:43Z</time>
      </trkpt>
      <trkpt lat="42.606273" lon="-0.136253">
        <ele>1216.43</ele>
        <time>2019-08-13T09:04:48Z</time>
      </trkpt>
      <trkpt lat="42.606288" lon="-0.136195">
        <ele>1213.79</ele>
        <time>2019-08-13T09:04:51Z</time>
      </trkpt>
      <trkpt lat="42.606257" lon="-0.13613">
        <ele>1215.02</ele>
        <time>2019-08-13T09:04:59Z</time>
      </trkpt>
      <trkpt lat="42.606239" lon="-0.136087">
        <ele>1214.45</ele>
        <time>2019-08-13T09:05:04Z</time>
      </trkpt>
      <trkpt lat="42.60619" lon="-0.136096">
        <ele>1216.04</ele>
        <time>2019-08-13T09:05:11Z</time>
      </trkpt>
      <trkpt lat="42.606135" lon="-0.136009">
        <ele>1213.08</ele>
        <time>2019-08-13T09:05:16Z</time>
      </trkpt>
      <trkpt lat="42.60611" lon="-0.135956">
        <ele>1212.97</ele>
        <time>2019-08-13T09:05:19Z</time>
      </trkpt>
      <trkpt lat="42.606079" lon="-0.135872">
        <ele>1212.17</ele>
        <time>2019-08-13T09:05:25Z</time>
      </trkpt>
      <trkpt lat="42.606026" lon="-0.135824">
        <ele>1212.08</ele>
        <time>2019-08-13T09:05:28Z</time>
      </trkpt>
      <trkpt lat="42.605975" lon="-0.1358">
        <ele>1211.76</ele>
        <time>2019-08-13T09:05:30Z</time>
      </trkpt>
      <trkpt lat="42.605947" lon="-0.135783">
        <ele>1211.87</ele>
        <time>2019-08-13T09:05:32Z</time>
      </trkpt>
      <trkpt lat="42.605923" lon="-0.135752">
        <ele>1213.5</ele>
        <time>2019-08-13T09:05:38Z</time>
      </trkpt>
      <trkpt lat="42.6059" lon="-0.135733">
        <ele>1216.58</ele>
        <time>2019-08-13T09:05:43Z</time>
      </trkpt>
      <trkpt lat="42.605845" lon="-0.135692">
        <ele>1214.57</ele>
        <time>2019-08-13T09:05:48Z</time>
      </trkpt>
      <trkpt lat="42.605808" lon="-0.135664">
        <ele>1212.96</ele>
        <time>2019-08-13T09:05:52Z</time>
      </trkpt>
      <trkpt lat="42.60575" lon="-0.135615">
        <ele>1211.44</ele>
        <time>2019-08-13T09:05:59Z</time>
      </trkpt>
      <trkpt lat="42.605708" lon="-0.135543">
        <ele>1210.15</ele>
        <time>2019-08-13T09:06:02Z</time>
      </trkpt>
      <trkpt lat="42.605669" lon="-0.135513">
        <ele>1207.17</ele>
        <time>2019-08-13T09:06:07Z</time>
      </trkpt>
      <trkpt lat="42.605679" lon="-0.135426">
        <ele>1207.47</ele>
        <time>2019-08-13T09:06:13Z</time>
      </trkpt>
      <trkpt lat="42.605684" lon="-0.135394">
        <ele>1207.47</ele>
        <time>2019-08-13T09:06:16Z</time>
      </trkpt>
      <trkpt lat="42.605695" lon="-0.135337">
        <ele>1206.9</ele>
        <time>2019-08-13T09:06:23Z</time>
      </trkpt>
      <trkpt lat="42.605657" lon="-0.13525">
        <ele>1207.77</ele>
        <time>2019-08-13T09:06:27Z</time>
      </trkpt>
      <trkpt lat="42.605646" lon="-0.135222">
        <ele>1207.33</ele>
        <time>2019-08-13T09:06:28Z</time>
      </trkpt>
      <trkpt lat="42.605605" lon="-0.13515">
        <ele>1207.81</ele>
        <time>2019-08-13T09:06:31Z</time>
      </trkpt>
      <trkpt lat="42.605621" lon="-0.135073">
        <ele>1208.34</ele>
        <time>2019-08-13T09:06:38Z</time>
      </trkpt>
      <trkpt lat="42.605586" lon="-0.135024">
        <ele>1202.51</ele>
        <time>2019-08-13T09:06:46Z</time>
      </trkpt>
      <trkpt lat="42.605524" lon="-0.134959">
        <ele>1201.62</ele>
        <time>2019-08-13T09:06:53Z</time>
      </trkpt>
      <trkpt lat="42.60548" lon="-0.134948">
        <ele>1200.85</ele>
        <time>2019-08-13T09:06:57Z</time>
      </trkpt>
      <trkpt lat="42.605468" lon="-0.134885">
        <ele>1198.81</ele>
        <time>2019-08-13T09:07:05Z</time>
      </trkpt>
      <trkpt lat="42.605463" lon="-0.134821">
        <ele>1197.08</ele>
        <time>2019-08-13T09:07:11Z</time>
      </trkpt>
      <trkpt lat="42.605456" lon="-0.134757">
        <ele>1193.48</ele>
        <time>2019-08-13T09:07:16Z</time>
      </trkpt>
      <trkpt lat="42.605451" lon="-0.134704">
        <ele>1181.47</ele>
        <time>2019-08-13T09:07:21Z</time>
      </trkpt>
      <trkpt lat="42.605431" lon="-0.134644">
        <ele>1187.25</ele>
        <time>2019-08-13T09:07:25Z</time>
      </trkpt>
      <trkpt lat="42.605419" lon="-0.134576">
        <ele>1188.83</ele>
        <time>2019-08-13T09:07:30Z</time>
      </trkpt>
      <trkpt lat="42.605391" lon="-0.134522">
        <ele>1187.58</ele>
        <time>2019-08-13T09:07:34Z</time>
      </trkpt>
      <trkpt lat="42.605377" lon="-0.134453">
        <ele>1188.58</ele>
        <time>2019-08-13T09:07:43Z</time>
      </trkpt>
      <trkpt lat="42.605348" lon="-0.134401">
        <ele>1187.97</ele>
        <time>2019-08-13T09:07:48Z</time>
      </trkpt>
      <trkpt lat="42.605323" lon="-0.134363">
        <ele>1185.76</ele>
        <time>2019-08-13T09:07:52Z</time>
      </trkpt>
      <trkpt lat="42.605292" lon="-0.13431">
        <ele>1184.54</ele>
        <time>2019-08-13T09:07:56Z</time>
      </trkpt>
      <trkpt lat="42.605271" lon="-0.134311">
        <ele>1179.27</ele>
        <time>2019-08-13T09:08:05Z</time>
      </trkpt>
      <trkpt lat="42.605287" lon="-0.134247">
        <ele>1180.96</ele>
        <time>2019-08-13T09:08:15Z</time>
      </trkpt>
      <trkpt lat="42.605316" lon="-0.13418">
        <ele>1184.11</ele>
        <time>2019-08-13T09:08:18Z</time>
      </trkpt>
      <trkpt lat="42.605337" lon="-0.134118">
        <ele>1183.58</ele>
        <time>2019-08-13T09:08:20Z</time>
      </trkpt>
      <trkpt lat="42.605339" lon="-0.134038">
        <ele>1182.46</ele>
        <time>2019-08-13T09:08:23Z</time>
      </trkpt>
      <trkpt lat="42.60533" lon="-0.133977">
        <ele>1181.53</ele>
        <time>2019-08-13T09:08:27Z</time>
      </trkpt>
      <trkpt lat="42.605354" lon="-0.133924">
        <ele>1179.72</ele>
        <time>2019-08-13T09:08:33Z</time>
      </trkpt>
      <trkpt lat="42.605296" lon="-0.133867">
        <ele>1173.04</ele>
        <time>2019-08-13T09:08:42Z</time>
      </trkpt>
      <trkpt lat="42.605253" lon="-0.133845">
        <ele>1172.36</ele>
        <time>2019-08-13T09:08:47Z</time>
      </trkpt>
      <trkpt lat="42.60521" lon="-0.133815">
        <ele>1171.84</ele>
        <time>2019-08-13T09:08:50Z</time>
      </trkpt>
      <trkpt lat="42.605184" lon="-0.133799">
        <ele>1171.52</ele>
        <time>2019-08-13T09:08:53Z</time>
      </trkpt>
      <trkpt lat="42.605153" lon="-0.133738">
        <ele>1171.31</ele>
        <time>2019-08-13T09:08:58Z</time>
      </trkpt>
      <trkpt lat="42.605117" lon="-0.133699">
        <ele>1172.97</ele>
        <time>2019-08-13T09:09:03Z</time>
      </trkpt>
      <trkpt lat="42.605117" lon="-0.133699">
        <ele>1172.97</ele>
        <time>2019-08-13T09:09:10Z</time>
      </trkpt>
      <trkpt lat="42.605117" lon="-0.133699">
        <ele>1172.97</ele>
        <time>2019-08-13T09:09:11Z</time>
      </trkpt>
      <trkpt lat="42.604914" lon="-0.133583">
        <ele>1160.37</ele>
        <time>2019-08-13T09:11:56Z</time>
      </trkpt>
      <trkpt lat="42.60488" lon="-0.133564">
        <ele>1159.45</ele>
        <time>2019-08-13T09:12:08Z</time>
      </trkpt>
      <trkpt lat="42.604822" lon="-0.133525">
        <ele>1158.7</ele>
        <time>2019-08-13T09:12:12Z</time>
      </trkpt>
      <trkpt lat="42.604791" lon="-0.133478">
        <ele>1156.75</ele>
        <time>2019-08-13T09:12:15Z</time>
      </trkpt>
      <trkpt lat="42.604764" lon="-0.133422">
        <ele>1158.61</ele>
        <time>2019-08-13T09:12:18Z</time>
      </trkpt>
      <trkpt lat="42.604735" lon="-0.133375">
        <ele>1159.5</ele>
        <time>2019-08-13T09:12:21Z</time>
      </trkpt>
      <trkpt lat="42.604707" lon="-0.133329">
        <ele>1159.0</ele>
        <time>2019-08-13T09:12:24Z</time>
      </trkpt>
      <trkpt lat="42.604658" lon="-0.133289">
        <ele>1158.08</ele>
        <time>2019-08-13T09:12:28Z</time>
      </trkpt>
      <trkpt lat="42.604636" lon="-0.13327">
        <ele>1158.49</ele>
        <time>2019-08-13T09:12:30Z</time>
      </trkpt>
      <trkpt lat="42.604594" lon="-0.133239">
        <ele>1158.21</ele>
        <time>2019-08-13T09:12:33Z</time>
      </trkpt>
      <trkpt lat="42.604566" lon="-0.133221">
        <ele>1158.06</ele>
        <time>2019-08-13T09:12:35Z</time>
      </trkpt>
      <trkpt lat="42.604539" lon="-0.1332">
        <ele>1157.4</ele>
        <time>2019-08-13T09:12:37Z</time>
      </trkpt>
      <trkpt lat="42.604505" lon="-0.13316">
        <ele>1157.26</ele>
        <time>2019-08-13T09:12:40Z</time>
      </trkpt>
      <trkpt lat="42.604487" lon="-0.133083">
        <ele>1156.95</ele>
        <time>2019-08-13T09:12:44Z</time>
      </trkpt>
      <trkpt lat="42.6045" lon="-0.133008">
        <ele>1157.84</ele>
        <time>2019-08-13T09:12:49Z</time>
      </trkpt>
      <trkpt lat="42.604459" lon="-0.132953">
        <ele>1157.16</ele>
        <time>2019-08-13T09:12:53Z</time>
      </trkpt>
      <trkpt lat="42.604428" lon="-0.132908">
        <ele>1159.7</ele>
        <time>2019-08-13T09:12:56Z</time>
      </trkpt>
      <trkpt lat="42.604407" lon="-0.132852">
        <ele>1156.72</ele>
        <time>2019-08-13T09:13:01Z</time>
      </trkpt>
      <trkpt lat="42.604381" lon="-0.132811">
        <ele>1155.6</ele>
        <time>2019-08-13T09:13:10Z</time>
      </trkpt>
      <trkpt lat="42.604321" lon="-0.132791">
        <ele>1152.69</ele>
        <time>2019-08-13T09:13:43Z</time>
      </trkpt>
      <trkpt lat="42.604263" lon="-0.132797">
        <ele>1153.0</ele>
        <time>2019-08-13T09:13:46Z</time>
      </trkpt>
      <trkpt lat="42.604235" lon="-0.13273">
        <ele>1151.46</ele>
        <time>2019-08-13T09:13:50Z</time>
      </trkpt>
      <trkpt lat="42.604222" lon="-0.132656">
        <ele>1151.98</ele>
        <time>2019-08-13T09:13:53Z</time>
      </trkpt>
      <trkpt lat="42.604185" lon="-0.132611">
        <ele>1149.82</ele>
        <time>2019-08-13T09:13:59Z</time>
      </trkpt>
      <trkpt lat="42.604161" lon="-0.132554">
        <ele>1151.06</ele>
        <time>2019-08-13T09:14:02Z</time>
      </trkpt>
      <trkpt lat="42.604131" lon="-0.132498">
        <ele>1149.11</ele>
        <time>2019-08-13T09:14:06Z</time>
      </trkpt>
      <trkpt lat="42.604113" lon="-0.132467">
        <ele>1147.45</ele>
        <time>2019-08-13T09:14:08Z</time>
      </trkpt>
      <trkpt lat="42.604071" lon="-0.132425">
        <ele>1147.54</ele>
        <time>2019-08-13T09:14:12Z</time>
      </trkpt>
      <trkpt lat="42.604043" lon="-0.132399">
        <ele>1146.16</ele>
        <time>2019-08-13T09:14:15Z</time>
      </trkpt>
      <trkpt lat="42.604004" lon="-0.132341">
        <ele>1145.75</ele>
        <time>2019-08-13T09:14:21Z</time>
      </trkpt>
      <trkpt lat="42.603976" lon="-0.132276">
        <ele>1146.62</ele>
        <time>2019-08-13T09:14:26Z</time>
      </trkpt>
      <trkpt lat="42.603969" lon="-0.132201">
        <ele>1146.37</ele>
        <time>2019-08-13T09:14:30Z</time>
      </trkpt>
      <trkpt lat="42.603963" lon="-0.132158">
        <ele>1146.2</ele>
        <time>2019-08-13T09:14:33Z</time>
      </trkpt>
      <trkpt lat="42.603935" lon="-0.13208">
        <ele>1148.97</ele>
        <time>2019-08-13T09:14:38Z</time>
      </trkpt>
      <trkpt lat="42.603922" lon="-0.132041">
        <ele>1148.53</ele>
        <time>2019-08-13T09:14:41Z</time>
      </trkpt>
      <trkpt lat="42.603876" lon="-0.131999">
        <ele>1150.33</ele>
        <time>2019-08-13T09:14:45Z</time>
      </trkpt>
      <trkpt lat="42.603849" lon="-0.131972">
        <ele>1149.85</ele>
        <time>2019-08-13T09:14:47Z</time>
      </trkpt>
      <trkpt lat="42.603844" lon="-0.13195">
        <ele>1149.16</ele>
        <time>2019-08-13T09:14:56Z</time>
      </trkpt>
      <trkpt lat="42.603825" lon="-0.131886">
        <ele>1149.68</ele>
        <time>2019-08-13T09:15:07Z</time>
      </trkpt>
      <trkpt lat="42.603814" lon="-0.131857">
        <ele>1149.15</ele>
        <time>2019-08-13T09:15:08Z</time>
      </trkpt>
      <trkpt lat="42.603806" lon="-0.131788">
        <ele>1145.38</ele>
        <time>2019-08-13T09:15:11Z</time>
      </trkpt>
      <trkpt lat="42.603824" lon="-0.131724">
        <ele>1142.27</ele>
        <time>2019-08-13T09:15:14Z</time>
      </trkpt>
      <trkpt lat="42.603833" lon="-0.131651">
        <ele>1142.02</ele>
        <time>2019-08-13T09:15:17Z</time>
      </trkpt>
      <trkpt lat="42.603808" lon="-0.13157">
        <ele>1144.07</ele>
        <time>2019-08-13T09:15:20Z</time>
      </trkpt>
      <trkpt lat="42.603796" lon="-0.131535">
        <ele>1142.4</ele>
        <time>2019-08-13T09:15:22Z</time>
      </trkpt>
      <trkpt lat="42.603763" lon="-0.131474">
        <ele>1142.83</ele>
        <time>2019-08-13T09:15:26Z</time>
      </trkpt>
      <trkpt lat="42.603747" lon="-0.131413">
        <ele>1140.83</ele>
        <time>2019-08-13T09:15:29Z</time>
      </trkpt>
      <trkpt lat="42.603764" lon="-0.131344">
        <ele>1139.1</ele>
        <time>2019-08-13T09:15:33Z</time>
      </trkpt>
      <trkpt lat="42.603774" lon="-0.13129">
        <ele>1139.34</ele>
        <time>2019-08-13T09:15:35Z</time>
      </trkpt>
      <trkpt lat="42.603779" lon="-0.131225">
        <ele>1140.7</ele>
        <time>2019-08-13T09:15:38Z</time>
      </trkpt>
      <trkpt lat="42.603782" lon="-0.131175">
        <ele>1139.37</ele>
        <time>2019-08-13T09:15:40Z</time>
      </trkpt>
      <trkpt lat="42.603777" lon="-0.131114">
        <ele>1140.07</ele>
        <time>2019-08-13T09:15:46Z</time>
      </trkpt>
      <trkpt lat="42.603792" lon="-0.131038">
        <ele>1139.47</ele>
        <time>2019-08-13T09:15:50Z</time>
      </trkpt>
      <trkpt lat="42.603796" lon="-0.130967">
        <ele>1138.59</ele>
        <time>2019-08-13T09:15:54Z</time>
      </trkpt>
      <trkpt lat="42.603791" lon="-0.130906">
        <ele>1136.5</ele>
        <time>2019-08-13T09:15:59Z</time>
      </trkpt>
      <trkpt lat="42.603801" lon="-0.130824">
        <ele>1135.31</ele>
        <time>2019-08-13T09:16:04Z</time>
      </trkpt>
      <trkpt lat="42.603787" lon="-0.130758">
        <ele>1134.31</ele>
        <time>2019-08-13T09:16:08Z</time>
      </trkpt>
      <trkpt lat="42.603758" lon="-0.130703">
        <ele>1133.98</ele>
        <time>2019-08-13T09:16:13Z</time>
      </trkpt>
      <trkpt lat="42.603744" lon="-0.13068">
        <ele>1135.23</ele>
        <time>2019-08-13T09:16:15Z</time>
      </trkpt>
      <trkpt lat="42.603715" lon="-0.13062">
        <ele>1137.76</ele>
        <time>2019-08-13T09:16:19Z</time>
      </trkpt>
      <trkpt lat="42.603699" lon="-0.130587">
        <ele>1137.3</ele>
        <time>2019-08-13T09:16:24Z</time>
      </trkpt>
      <trkpt lat="42.603682" lon="-0.130607">
        <ele>1136.0</ele>
        <time>2019-08-13T09:16:34Z</time>
      </trkpt>
      <trkpt lat="42.603673" lon="-0.13068">
        <ele>1134.8</ele>
        <time>2019-08-13T09:16:56Z</time>
      </trkpt>
      <trkpt lat="42.603685" lon="-0.130766">
        <ele>1130.96</ele>
        <time>2019-08-13T09:17:01Z</time>
      </trkpt>
      <trkpt lat="42.603694" lon="-0.13081">
        <ele>1128.45</ele>
        <time>2019-08-13T09:17:03Z</time>
      </trkpt>
      <trkpt lat="42.603698" lon="-0.130883">
        <ele>1128.52</ele>
        <time>2019-08-13T09:17:07Z</time>
      </trkpt>
      <trkpt lat="42.603705" lon="-0.130907">
        <ele>1133.04</ele>
        <time>2019-08-13T09:17:13Z</time>
      </trkpt>
      <trkpt lat="42.603664" lon="-0.13087">
        <ele>1134.89</ele>
        <time>2019-08-13T09:17:57Z</time>
      </trkpt>
      <trkpt lat="42.603624" lon="-0.130829">
        <ele>1132.78</ele>
        <time>2019-08-13T09:18:00Z</time>
      </trkpt>
      <trkpt lat="42.603595" lon="-0.130801">
        <ele>1133.76</ele>
        <time>2019-08-13T09:18:02Z</time>
      </trkpt>
      <trkpt lat="42.603572" lon="-0.130776">
        <ele>1131.89</ele>
        <time>2019-08-13T09:18:04Z</time>
      </trkpt>
      <trkpt lat="42.60354" lon="-0.130734">
        <ele>1130.46</ele>
        <time>2019-08-13T09:18:07Z</time>
      </trkpt>
      <trkpt lat="42.603495" lon="-0.130703">
        <ele>1131.9</ele>
        <time>2019-08-13T09:18:10Z</time>
      </trkpt>
      <trkpt lat="42.603436" lon="-0.130695">
        <ele>1134.45</ele>
        <time>2019-08-13T09:18:14Z</time>
      </trkpt>
      <trkpt lat="42.60342" lon="-0.130636">
        <ele>1130.86</ele>
        <time>2019-08-13T09:18:17Z</time>
      </trkpt>
      <trkpt lat="42.60342" lon="-0.130636">
        <ele>1130.86</ele>
        <time>2019-08-13T09:18:24Z</time>
      </trkpt>
      <trkpt lat="42.60342" lon="-0.130636">
        <ele>1130.86</ele>
        <time>2019-08-13T09:18:25Z</time>
      </trkpt>
      <trkpt lat="42.603402" lon="-0.130571">
        <ele>1125.98</ele>
        <time>2019-08-13T09:18:27Z</time>
      </trkpt>
      <trkpt lat="42.603375" lon="-0.130508">
        <ele>1125.13</ele>
        <time>2019-08-13T09:18:35Z</time>
      </trkpt>
      <trkpt lat="42.603338" lon="-0.130457">
        <ele>1126.75</ele>
        <time>2019-08-13T09:18:45Z</time>
      </trkpt>
      <trkpt lat="42.60328" lon="-0.130441">
        <ele>1120.42</ele>
        <time>2019-08-13T09:18:54Z</time>
      </trkpt>
      <trkpt lat="42.603251" lon="-0.130433">
        <ele>1118.88</ele>
        <time>2019-08-13T09:18:57Z</time>
      </trkpt>
      <trkpt lat="42.603208" lon="-0.130401">
        <ele>1118.69</ele>
        <time>2019-08-13T09:19:02Z</time>
      </trkpt>
      <trkpt lat="42.603155" lon="-0.13037">
        <ele>1117.02</ele>
        <time>2019-08-13T09:19:07Z</time>
      </trkpt>
      <trkpt lat="42.60312" lon="-0.130313">
        <ele>1121.32</ele>
        <time>2019-08-13T09:19:11Z</time>
      </trkpt>
      <trkpt lat="42.603103" lon="-0.130283">
        <ele>1121.58</ele>
        <time>2019-08-13T09:19:13Z</time>
      </trkpt>
      <trkpt lat="42.603071" lon="-0.130224">
        <ele>1121.28</ele>
        <time>2019-08-13T09:19:17Z</time>
      </trkpt>
      <trkpt lat="42.603026" lon="-0.130178">
        <ele>1120.6</ele>
        <time>2019-08-13T09:19:20Z</time>
      </trkpt>
      <trkpt lat="42.602993" lon="-0.130145">
        <ele>1118.1</ele>
        <time>2019-08-13T09:19:22Z</time>
      </trkpt>
      <trkpt lat="42.602974" lon="-0.130073">
        <ele>1117.07</ele>
        <time>2019-08-13T09:19:27Z</time>
      </trkpt>
      <trkpt lat="42.602929" lon="-0.130052">
        <ele>1116.18</ele>
        <time>2019-08-13T09:19:31Z</time>
      </trkpt>
      <trkpt lat="42.6029" lon="-0.130038">
        <ele>1115.09</ele>
        <time>2019-08-13T09:19:34Z</time>
      </trkpt>
      <trkpt lat="42.602854" lon="-0.129979">
        <ele>1116.92</ele>
        <time>2019-08-13T09:19:39Z</time>
      </trkpt>
      <trkpt lat="42.602831" lon="-0.129923">
        <ele>1116.92</ele>
        <time>2019-08-13T09:19:43Z</time>
      </trkpt>
      <trkpt lat="42.602818" lon="-0.129852">
        <ele>1114.02</ele>
        <time>2019-08-13T09:19:47Z</time>
      </trkpt>
      <trkpt lat="42.60281" lon="-0.129817">
        <ele>1113.23</ele>
        <time>2019-08-13T09:19:49Z</time>
      </trkpt>
      <trkpt lat="42.602805" lon="-0.129752">
        <ele>1112.86</ele>
        <time>2019-08-13T09:19:55Z</time>
      </trkpt>
      <trkpt lat="42.602735" lon="-0.129744">
        <ele>1111.73</ele>
        <time>2019-08-13T09:20:02Z</time>
      </trkpt>
      <trkpt lat="42.602701" lon="-0.1297">
        <ele>1109.9</ele>
        <time>2019-08-13T09:20:06Z</time>
      </trkpt>
      <trkpt lat="42.602676" lon="-0.129667">
        <ele>1110.5</ele>
        <time>2019-08-13T09:20:09Z</time>
      </trkpt>
      <trkpt lat="42.602649" lon="-0.129612">
        <ele>1111.36</ele>
        <time>2019-08-13T09:20:13Z</time>
      </trkpt>
      <trkpt lat="42.602649" lon="-0.129612">
        <ele>1111.36</ele>
        <time>2019-08-13T09:20:20Z</time>
      </trkpt>
      <trkpt lat="42.602603" lon="-0.129603">
        <ele>1109.83</ele>
        <time>2019-08-13T09:20:21Z</time>
      </trkpt>
      <trkpt lat="42.602558" lon="-0.129553">
        <ele>1110.3</ele>
        <time>2019-08-13T09:20:27Z</time>
      </trkpt>
      <trkpt lat="42.602546" lon="-0.129485">
        <ele>1111.27</ele>
        <time>2019-08-13T09:20:29Z</time>
      </trkpt>
      <trkpt lat="42.602562" lon="-0.129412">
        <ele>1108.74</ele>
        <time>2019-08-13T09:20:34Z</time>
      </trkpt>
      <trkpt lat="42.602585" lon="-0.129479">
        <ele>1107.76</ele>
        <time>2019-08-13T09:20:42Z</time>
      </trkpt>
      <trkpt lat="42.602554" lon="-0.129408">
        <ele>1106.13</ele>
        <time>2019-08-13T09:21:35Z</time>
      </trkpt>
      <trkpt lat="42.60253" lon="-0.129307">
        <ele>1104.16</ele>
        <time>2019-08-13T09:21:39Z</time>
      </trkpt>
      <trkpt lat="42.602521" lon="-0.129266">
        <ele>1103.22</ele>
        <time>2019-08-13T09:21:41Z</time>
      </trkpt>
      <trkpt lat="42.60252" lon="-0.1292">
        <ele>1100.85</ele>
        <time>2019-08-13T09:21:44Z</time>
      </trkpt>
      <trkpt lat="42.602522" lon="-0.129163">
        <ele>1100.29</ele>
        <time>2019-08-13T09:21:46Z</time>
      </trkpt>
      <trkpt lat="42.602461" lon="-0.129174">
        <ele>1102.05</ele>
        <time>2019-08-13T09:21:53Z</time>
      </trkpt>
      <trkpt lat="42.602429" lon="-0.129225">
        <ele>1093.89</ele>
        <time>2019-08-13T09:22:46Z</time>
      </trkpt>
      <trkpt lat="42.602403" lon="-0.129274">
        <ele>1091.07</ele>
        <time>2019-08-13T09:22:51Z</time>
      </trkpt>
      <trkpt lat="42.602368" lon="-0.129323">
        <ele>1090.09</ele>
        <time>2019-08-13T09:22:56Z</time>
      </trkpt>
      <trkpt lat="42.602323" lon="-0.129345">
        <ele>1089.78</ele>
        <time>2019-08-13T09:23:00Z</time>
      </trkpt>
      <trkpt lat="42.602266" lon="-0.129355">
        <ele>1089.05</ele>
        <time>2019-08-13T09:23:04Z</time>
      </trkpt>
      <trkpt lat="42.602225" lon="-0.129327">
        <ele>1090.42</ele>
        <time>2019-08-13T09:23:09Z</time>
      </trkpt>
      <trkpt lat="42.602179" lon="-0.129286">
        <ele>1090.28</ele>
        <time>2019-08-13T09:23:14Z</time>
      </trkpt>
      <trkpt lat="42.602133" lon="-0.129273">
        <ele>1087.97</ele>
        <time>2019-08-13T09:23:17Z</time>
      </trkpt>
      <trkpt lat="42.602082" lon="-0.129285">
        <ele>1087.37</ele>
        <time>2019-08-13T09:23:20Z</time>
      </trkpt>
      <trkpt lat="42.602063" lon="-0.129197">
        <ele>1083.29</ele>
        <time>2019-08-13T09:23:27Z</time>
      </trkpt>
      <trkpt lat="42.602087" lon="-0.129133">
        <ele>1082.94</ele>
        <time>2019-08-13T09:23:32Z</time>
      </trkpt>
      <trkpt lat="42.602049" lon="-0.129078">
        <ele>1080.52</ele>
        <time>2019-08-13T09:23:36Z</time>
      </trkpt>
      <trkpt lat="42.602012" lon="-0.129021">
        <ele>1081.01</ele>
        <time>2019-08-13T09:23:41Z</time>
      </trkpt>
      <trkpt lat="42.601957" lon="-0.128991">
        <ele>1080.67</ele>
        <time>2019-08-13T09:23:45Z</time>
      </trkpt>
      <trkpt lat="42.601919" lon="-0.128975">
        <ele>1080.74</ele>
        <time>2019-08-13T09:23:47Z</time>
      </trkpt>
      <trkpt lat="42.601894" lon="-0.128963">
        <ele>1079.73</ele>
        <time>2019-08-13T09:23:49Z</time>
      </trkpt>
      <trkpt lat="42.601869" lon="-0.128893">
        <ele>1079.04</ele>
        <time>2019-08-13T09:23:54Z</time>
      </trkpt>
      <trkpt lat="42.601854" lon="-0.128828">
        <ele>1076.46</ele>
        <time>2019-08-13T09:23:58Z</time>
      </trkpt>
      <trkpt lat="42.601825" lon="-0.128781">
        <ele>1076.15</ele>
        <time>2019-08-13T09:24:04Z</time>
      </trkpt>
      <trkpt lat="42.601773" lon="-0.12879">
        <ele>1077.32</ele>
        <time>2019-08-13T09:24:12Z</time>
      </trkpt>
      <trkpt lat="42.601773" lon="-0.12879">
        <ele>1077.32</ele>
        <time>2019-08-13T09:26:44Z</time>
      </trkpt>
      <trkpt lat="42.601632" lon="-0.128658">
        <ele>1068.82</ele>
        <time>2019-08-13T09:27:56Z</time>
      </trkpt>
      <trkpt lat="42.601657" lon="-0.128574">
        <ele>1067.64</ele>
        <time>2019-08-13T09:28:02Z</time>
      </trkpt>
      <trkpt lat="42.601665" lon="-0.128545">
        <ele>1064.69</ele>
        <time>2019-08-13T09:28:06Z</time>
      </trkpt>
      <trkpt lat="42.601698" lon="-0.128498">
        <ele>1060.31</ele>
        <time>2019-08-13T09:28:12Z</time>
      </trkpt>
      <trkpt lat="42.601719" lon="-0.128441">
        <ele>1059.58</ele>
        <time>2019-08-13T09:28:15Z</time>
      </trkpt>
      <trkpt lat="42.601734" lon="-0.128396">
        <ele>1060.11</ele>
        <time>2019-08-13T09:28:18Z</time>
      </trkpt>
      <trkpt lat="42.601745" lon="-0.128361">
        <ele>1059.39</ele>
        <time>2019-08-13T09:28:21Z</time>
      </trkpt>
      <trkpt lat="42.601787" lon="-0.128268">
        <ele>1056.58</ele>
        <time>2019-08-13T09:28:27Z</time>
      </trkpt>
      <trkpt lat="42.601805" lon="-0.128202">
        <ele>1067.51</ele>
        <time>2019-08-13T09:28:31Z</time>
      </trkpt>
      <trkpt lat="42.601835" lon="-0.128137">
        <ele>1057.96</ele>
        <time>2019-08-13T09:28:36Z</time>
      </trkpt>
      <trkpt lat="42.601837" lon="-0.128066">
        <ele>1057.33</ele>
        <time>2019-08-13T09:28:40Z</time>
      </trkpt>
      <trkpt lat="42.601809" lon="-0.12799">
        <ele>1055.85</ele>
        <time>2019-08-13T09:28:45Z</time>
      </trkpt>
      <trkpt lat="42.601774" lon="-0.127998">
        <ele>1055.29</ele>
        <time>2019-08-13T09:28:54Z</time>
      </trkpt>
      <trkpt lat="42.601734" lon="-0.128053">
        <ele>1052.82</ele>
        <time>2019-08-13T09:29:02Z</time>
      </trkpt>
      <trkpt lat="42.601686" lon="-0.128096">
        <ele>1053.54</ele>
        <time>2019-08-13T09:29:07Z</time>
      </trkpt>
      <trkpt lat="42.601652" lon="-0.128154">
        <ele>1048.97</ele>
        <time>2019-08-13T09:29:10Z</time>
      </trkpt>
      <trkpt lat="42.60163" lon="-0.128199">
        <ele>1046.91</ele>
        <time>2019-08-13T09:29:12Z</time>
      </trkpt>
      <trkpt lat="42.601593" lon="-0.12825">
        <ele>1049.19</ele>
        <time>2019-08-13T09:29:17Z</time>
      </trkpt>
      <trkpt lat="42.601573" lon="-0.128283">
        <ele>1047.95</ele>
        <time>2019-08-13T09:29:23Z</time>
      </trkpt>
      <trkpt lat="42.601543" lon="-0.128293">
        <ele>1046.06</ele>
        <time>2019-08-13T09:29:31Z</time>
      </trkpt>
      <trkpt lat="42.601383" lon="-0.128471">
        <ele>1045.01</ele>
        <time>2019-08-13T09:30:29Z</time>
      </trkpt>
      <trkpt lat="42.601361" lon="-0.128491">
        <ele>1045.03</ele>
        <time>2019-08-13T09:30:35Z</time>
      </trkpt>
      <trkpt lat="42.60134" lon="-0.128513">
        <ele>1042.32</ele>
        <time>2019-08-13T09:30:37Z</time>
      </trkpt>
      <trkpt lat="42.601298" lon="-0.128538">
        <ele>1040.74</ele>
        <time>2019-08-13T09:30:40Z</time>
      </trkpt>
      <trkpt lat="42.601258" lon="-0.128559">
        <ele>1038.44</ele>
        <time>2019-08-13T09:30:43Z</time>
      </trkpt>
      <trkpt lat="42.601214" lon="-0.128581">
        <ele>1040.08</ele>
        <time>2019-08-13T09:30:46Z</time>
      </trkpt>
      <trkpt lat="42.601186" lon="-0.128599">
        <ele>1041.26</ele>
        <time>2019-08-13T09:30:48Z</time>
      </trkpt>
      <trkpt lat="42.601163" lon="-0.128616">
        <ele>1038.25</ele>
        <time>2019-08-13T09:30:50Z</time>
      </trkpt>
      <trkpt lat="42.60114" lon="-0.128632">
        <ele>1037.52</ele>
        <time>2019-08-13T09:30:52Z</time>
      </trkpt>
      <trkpt lat="42.601097" lon="-0.128654">
        <ele>1038.14</ele>
        <time>2019-08-13T09:30:55Z</time>
      </trkpt>
      <trkpt lat="42.601069" lon="-0.128717">
        <ele>1037.15</ele>
        <time>2019-08-13T09:31:00Z</time>
      </trkpt>
      <trkpt lat="42.601032" lon="-0.128768">
        <ele>1032.77</ele>
        <time>2019-08-13T09:31:05Z</time>
      </trkpt>
      <trkpt lat="42.601011" lon="-0.128797">
        <ele>1030.07</ele>
        <time>2019-08-13T09:31:08Z</time>
      </trkpt>
      <trkpt lat="42.600983" lon="-0.128858">
        <ele>1026.66</ele>
        <time>2019-08-13T09:31:13Z</time>
      </trkpt>
      <trkpt lat="42.600949" lon="-0.128909">
        <ele>1023.44</ele>
        <time>2019-08-13T09:31:17Z</time>
      </trkpt>
      <trkpt lat="42.600908" lon="-0.128934">
        <ele>1025.12</ele>
        <time>2019-08-13T09:31:20Z</time>
      </trkpt>
      <trkpt lat="42.600881" lon="-0.128949">
        <ele>1025.79</ele>
        <time>2019-08-13T09:31:22Z</time>
      </trkpt>
      <trkpt lat="42.600859" lon="-0.128959">
        <ele>1027.19</ele>
        <time>2019-08-13T09:31:24Z</time>
      </trkpt>
      <trkpt lat="42.600831" lon="-0.128976">
        <ele>1027.68</ele>
        <time>2019-08-13T09:31:26Z</time>
      </trkpt>
      <trkpt lat="42.600775" lon="-0.129029">
        <ele>1025.3</ele>
        <time>2019-08-13T09:31:32Z</time>
      </trkpt>
      <trkpt lat="42.60074" lon="-0.12906">
        <ele>1024.92</ele>
        <time>2019-08-13T09:31:35Z</time>
      </trkpt>
      <trkpt lat="42.60069" lon="-0.129091">
        <ele>1025.69</ele>
        <time>2019-08-13T09:31:42Z</time>
      </trkpt>
      <trkpt lat="42.600661" lon="-0.129106">
        <ele>1025.18</ele>
        <time>2019-08-13T09:31:45Z</time>
      </trkpt>
      <trkpt lat="42.600634" lon="-0.129161">
        <ele>1019.49</ele>
        <time>2019-08-13T09:31:52Z</time>
      </trkpt>
      <trkpt lat="42.600634" lon="-0.129161">
        <ele>1019.49</ele>
        <time>2019-08-13T09:33:53Z</time>
      </trkpt>
      <trkpt lat="42.600393" lon="-0.129168">
        <ele>1004.59</ele>
        <time>2019-08-13T09:33:58Z</time>
      </trkpt>
      <trkpt lat="42.600367" lon="-0.129166">
        <ele>1006.61</ele>
        <time>2019-08-13T09:34:02Z</time>
      </trkpt>
      <trkpt lat="42.600321" lon="-0.129146">
        <ele>1005.8</ele>
        <time>2019-08-13T09:34:07Z</time>
      </trkpt>
      <trkpt lat="42.600274" lon="-0.129164">
        <ele>1003.44</ele>
        <time>2019-08-13T09:34:12Z</time>
      </trkpt>
      <trkpt lat="42.60024" lon="-0.129114">
        <ele>1005.22</ele>
        <time>2019-08-13T09:34:36Z</time>
      </trkpt>
      <trkpt lat="42.600219" lon="-0.129078">
        <ele>1003.71</ele>
        <time>2019-08-13T09:34:40Z</time>
      </trkpt>
      <trkpt lat="42.600186" lon="-0.12903">
        <ele>1001.27</ele>
        <time>2019-08-13T09:34:47Z</time>
      </trkpt>
      <trkpt lat="42.600144" lon="-0.128964">
        <ele>995.866</ele>
        <time>2019-08-13T09:34:59Z</time>
      </trkpt>
      <trkpt lat="42.600127" lon="-0.128938">
        <ele>995.306</ele>
        <time>2019-08-13T09:35:00Z</time>
      </trkpt>
      <trkpt lat="42.600092" lon="-0.128873">
        <ele>991.634</ele>
        <time>2019-08-13T09:35:03Z</time>
      </trkpt>
      <trkpt lat="42.600071" lon="-0.128787">
        <ele>993.011</ele>
        <time>2019-08-13T09:35:07Z</time>
      </trkpt>
      <trkpt lat="42.600058" lon="-0.128747">
        <ele>992.149</ele>
        <time>2019-08-13T09:35:11Z</time>
      </trkpt>
      <trkpt lat="42.600048" lon="-0.128719">
        <ele>993.269</ele>
        <time>2019-08-13T09:35:16Z</time>
      </trkpt>
      <trkpt lat="42.600035" lon="-0.128684">
        <ele>993.09</ele>
        <time>2019-08-13T09:35:25Z</time>
      </trkpt>
      <trkpt lat="42.600022" lon="-0.128642">
        <ele>989.763</ele>
        <time>2019-08-13T09:35:28Z</time>
      </trkpt>
      <trkpt lat="42.599995" lon="-0.128586">
        <ele>987.521</ele>
        <time>2019-08-13T09:35:33Z</time>
      </trkpt>
      <trkpt lat="42.599974" lon="-0.128507">
        <ele>983.397</ele>
        <time>2019-08-13T09:35:37Z</time>
      </trkpt>
      <trkpt lat="42.59995" lon="-0.128454">
        <ele>984.188</ele>
        <time>2019-08-13T09:35:40Z</time>
      </trkpt>
      <trkpt lat="42.599931" lon="-0.128399">
        <ele>984.486</ele>
        <time>2019-08-13T09:35:45Z</time>
      </trkpt>
      <trkpt lat="42.599888" lon="-0.128351">
        <ele>983.698</ele>
        <time>2019-08-13T09:35:49Z</time>
      </trkpt>
      <trkpt lat="42.599837" lon="-0.128319">
        <ele>983.056</ele>
        <time>2019-08-13T09:35:53Z</time>
      </trkpt>
      <trkpt lat="42.599813" lon="-0.128303">
        <ele>985.014</ele>
        <time>2019-08-13T09:36:00Z</time>
      </trkpt>
      <trkpt lat="42.599811" lon="-0.12824">
        <ele>985.567</ele>
        <time>2019-08-13T09:36:30Z</time>
      </trkpt>
      <trkpt lat="42.599749" lon="-0.128226">
        <ele>982.4</ele>
        <time>2019-08-13T09:36:38Z</time>
      </trkpt>
      <trkpt lat="42.599727" lon="-0.12822">
        <ele>983.717</ele>
        <time>2019-08-13T09:36:42Z</time>
      </trkpt>
      <trkpt lat="42.599704" lon="-0.128213">
        <ele>981.798</ele>
        <time>2019-08-13T09:36:49Z</time>
      </trkpt>
      <trkpt lat="42.599656" lon="-0.128173">
        <ele>978.958</ele>
        <time>2019-08-13T09:36:58Z</time>
      </trkpt>
      <trkpt lat="42.599612" lon="-0.128122">
        <ele>983.922</ele>
        <time>2019-08-13T09:37:01Z</time>
      </trkpt>
      <trkpt lat="42.599585" lon="-0.128062">
        <ele>981.095</ele>
        <time>2019-08-13T09:37:05Z</time>
      </trkpt>
      <trkpt lat="42.599585" lon="-0.128062">
        <ele>981.095</ele>
        <time>2019-08-13T09:37:12Z</time>
      </trkpt>
      <trkpt lat="42.599534" lon="-0.128058">
        <ele>980.202</ele>
        <time>2019-08-13T09:37:13Z</time>
      </trkpt>
      <trkpt lat="42.599489" lon="-0.128049">
        <ele>977.694</ele>
        <time>2019-08-13T09:37:20Z</time>
      </trkpt>
      <trkpt lat="42.599481" lon="-0.127966">
        <ele>976.236</ele>
        <time>2019-08-13T09:38:21Z</time>
      </trkpt>
      <trkpt lat="42.59951" lon="-0.127919">
        <ele>976.429</ele>
        <time>2019-08-13T09:38:43Z</time>
      </trkpt>
      <trkpt lat="42.599477" lon="-0.127851">
        <ele>979.773</ele>
        <time>2019-08-13T09:38:48Z</time>
      </trkpt>
      <trkpt lat="42.599456" lon="-0.127787">
        <ele>979.586</ele>
        <time>2019-08-13T09:38:53Z</time>
      </trkpt>
      <trkpt lat="42.599442" lon="-0.127749">
        <ele>980.006</ele>
        <time>2019-08-13T09:39:02Z</time>
      </trkpt>
      <trkpt lat="42.59943" lon="-0.127721">
        <ele>979.274</ele>
        <time>2019-08-13T09:39:05Z</time>
      </trkpt>
      <trkpt lat="42.59943" lon="-0.127721">
        <ele>979.274</ele>
        <time>2019-08-13T09:39:12Z</time>
      </trkpt>
      <trkpt lat="42.59943" lon="-0.127721">
        <ele>979.274</ele>
        <time>2019-08-13T09:39:14Z</time>
      </trkpt>
      <trkpt lat="42.599386" lon="-0.127661">
        <ele>973.594</ele>
        <time>2019-08-13T09:39:31Z</time>
      </trkpt>
      <trkpt lat="42.599362" lon="-0.12763">
        <ele>965.803</ele>
        <time>2019-08-13T09:39:39Z</time>
      </trkpt>
      <trkpt lat="42.599353" lon="-0.127558">
        <ele>970.717</ele>
        <time>2019-08-13T09:39:44Z</time>
      </trkpt>
      <trkpt lat="42.599353" lon="-0.127558">
        <ele>970.717</ele>
        <time>2019-08-13T09:39:51Z</time>
      </trkpt>
      <trkpt lat="42.599353" lon="-0.127558">
        <ele>970.717</ele>
        <time>2019-08-13T09:39:52Z</time>
      </trkpt>
      <trkpt lat="42.59919" lon="-0.127567">
        <ele>967.426</ele>
        <time>2019-08-13T09:42:04Z</time>
      </trkpt>
      <trkpt lat="42.599155" lon="-0.127639">
        <ele>968.08</ele>
        <time>2019-08-13T09:42:18Z</time>
      </trkpt>
      <trkpt lat="42.599139" lon="-0.127705">
        <ele>965.465</ele>
        <time>2019-08-13T09:42:23Z</time>
      </trkpt>
      <trkpt lat="42.599131" lon="-0.127742">
        <ele>961.886</ele>
        <time>2019-08-13T09:42:30Z</time>
      </trkpt>
      <trkpt lat="42.599165" lon="-0.127759">
        <ele>961.557</ele>
        <time>2019-08-13T09:42:39Z</time>
      </trkpt>
      <trkpt lat="42.599113" lon="-0.127788">
        <ele>964.798</ele>
        <time>2019-08-13T09:42:50Z</time>
      </trkpt>
      <trkpt lat="42.59905" lon="-0.127828">
        <ele>965.899</ele>
        <time>2019-08-13T09:42:57Z</time>
      </trkpt>
      <trkpt lat="42.599016" lon="-0.127895">
        <ele>965.376</ele>
        <time>2019-08-13T09:43:00Z</time>
      </trkpt>
      <trkpt lat="42.598998" lon="-0.127931">
        <ele>962.715</ele>
        <time>2019-08-13T09:43:02Z</time>
      </trkpt>
      <trkpt lat="42.598965" lon="-0.127987">
        <ele>963.968</ele>
        <time>2019-08-13T09:43:05Z</time>
      </trkpt>
      <trkpt lat="42.59894" lon="-0.128024">
        <ele>964.994</ele>
        <time>2019-08-13T09:43:08Z</time>
      </trkpt>
      <trkpt lat="42.598901" lon="-0.128063">
        <ele>962.17</ele>
        <time>2019-08-13T09:43:12Z</time>
      </trkpt>
      <trkpt lat="42.598872" lon="-0.128089">
        <ele>963.293</ele>
        <time>2019-08-13T09:43:14Z</time>
      </trkpt>
      <trkpt lat="42.59882" lon="-0.128102">
        <ele>963.211</ele>
        <time>2019-08-13T09:43:18Z</time>
      </trkpt>
      <trkpt lat="42.598768" lon="-0.128114">
        <ele>964.047</ele>
        <time>2019-08-13T09:43:23Z</time>
      </trkpt>
      <trkpt lat="42.598738" lon="-0.128118">
        <ele>959.766</ele>
        <time>2019-08-13T09:43:29Z</time>
      </trkpt>
      <trkpt lat="42.598768" lon="-0.128114">
        <ele>964.047</ele>
        <time>2019-08-13T09:43:38Z</time>
      </trkpt>
      <trkpt lat="42.59871" lon="-0.128276">
        <ele>953.568</ele>
        <time>2019-08-13T09:44:09Z</time>
      </trkpt>
      <trkpt lat="42.598698" lon="-0.128307">
        <ele>955.411</ele>
        <time>2019-08-13T09:44:13Z</time>
      </trkpt>
      <trkpt lat="42.598686" lon="-0.128336">
        <ele>955.483</ele>
        <time>2019-08-13T09:44:15Z</time>
      </trkpt>
      <trkpt lat="42.598673" lon="-0.128367">
        <ele>952.995</ele>
        <time>2019-08-13T09:44:18Z</time>
      </trkpt>
      <trkpt lat="42.598657" lon="-0.128403">
        <ele>948.516</ele>
        <time>2019-08-13T09:44:21Z</time>
      </trkpt>
      <trkpt lat="42.598632" lon="-0.12846">
        <ele>953.434</ele>
        <time>2019-08-13T09:44:28Z</time>
      </trkpt>
      <trkpt lat="42.598586" lon="-0.128485">
        <ele>956.36</ele>
        <time>2019-08-13T09:45:22Z</time>
      </trkpt>
      <trkpt lat="42.598523" lon="-0.128505">
        <ele>954.361</ele>
        <time>2019-08-13T09:45:31Z</time>
      </trkpt>
      <trkpt lat="42.59848" lon="-0.128546">
        <ele>957.794</ele>
        <time>2019-08-13T09:45:37Z</time>
      </trkpt>
      <trkpt lat="42.598447" lon="-0.128597">
        <ele>956.852</ele>
        <time>2019-08-13T09:45:40Z</time>
      </trkpt>
      <trkpt lat="42.598416" lon="-0.128658">
        <ele>951.532</ele>
        <time>2019-08-13T09:45:43Z</time>
      </trkpt>
      <trkpt lat="42.598397" lon="-0.128698">
        <ele>951.79</ele>
        <time>2019-08-13T09:45:45Z</time>
      </trkpt>
      <trkpt lat="42.598376" lon="-0.128764">
        <ele>947.764</ele>
        <time>2019-08-13T09:45:49Z</time>
      </trkpt>
      <trkpt lat="42.598351" lon="-0.128851">
        <ele>948.973</ele>
        <time>2019-08-13T09:45:56Z</time>
      </trkpt>
      <trkpt lat="42.598291" lon="-0.128909">
        <ele>955.494</ele>
        <time>2019-08-13T09:46:07Z</time>
      </trkpt>
      <trkpt lat="42.598245" lon="-0.128932">
        <ele>956.979</ele>
        <time>2019-08-13T09:46:10Z</time>
      </trkpt>
      <trkpt lat="42.598213" lon="-0.128864">
        <ele>958.018</ele>
        <time>2019-08-13T09:46:16Z</time>
      </trkpt>
      <trkpt lat="42.598179" lon="-0.128823">
        <ele>955.422</ele>
        <time>2019-08-13T09:46:21Z</time>
      </trkpt>
      <trkpt lat="42.59817" lon="-0.128752">
        <ele>958.114</ele>
        <time>2019-08-13T09:46:25Z</time>
      </trkpt>
      <trkpt lat="42.598167" lon="-0.128715">
        <ele>961.04</ele>
        <time>2019-08-13T09:46:27Z</time>
      </trkpt>
      <trkpt lat="42.598192" lon="-0.128656">
        <ele>959.164</ele>
        <time>2019-08-13T09:46:34Z</time>
      </trkpt>
      <trkpt lat="42.598192" lon="-0.128656">
        <ele>959.164</ele>
        <time>2019-08-13T09:50:55Z</time>
      </trkpt>
      <trkpt lat="42.598219" lon="-0.128387">
        <ele>964.672</ele>
        <time>2019-08-13T09:52:53Z</time>
      </trkpt>
      <trkpt lat="42.598228" lon="-0.128324">
        <ele>964.14</ele>
        <time>2019-08-13T09:52:56Z</time>
      </trkpt>
      <trkpt lat="42.598236" lon="-0.128274">
        <ele>963.004</ele>
        <time>2019-08-13T09:52:58Z</time>
      </trkpt>
      <trkpt lat="42.598244" lon="-0.128243">
        <ele>963.492</ele>
        <time>2019-08-13T09:53:00Z</time>
      </trkpt>
      <trkpt lat="42.598257" lon="-0.128177">
        <ele>964.025</ele>
        <time>2019-08-13T09:53:04Z</time>
      </trkpt>
      <trkpt lat="42.598267" lon="-0.128138">
        <ele>963.97</ele>
        <time>2019-08-13T09:53:06Z</time>
      </trkpt>
      <trkpt lat="42.598306" lon="-0.12805">
        <ele>963.577</ele>
        <time>2019-08-13T09:53:10Z</time>
      </trkpt>
      <trkpt lat="42.598297" lon="-0.127979">
        <ele>961.342</ele>
        <time>2019-08-13T09:53:16Z</time>
      </trkpt>
      <trkpt lat="42.598306" lon="-0.127909">
        <ele>962.206</ele>
        <time>2019-08-13T09:53:18Z</time>
      </trkpt>
      <trkpt lat="42.598304" lon="-0.127848">
        <ele>960.805</ele>
        <time>2019-08-13T09:53:20Z</time>
      </trkpt>
      <trkpt lat="42.598261" lon="-0.127804">
        <ele>961.928</ele>
        <time>2019-08-13T09:53:25Z</time>
      </trkpt>
      <trkpt lat="42.598206" lon="-0.127846">
        <ele>962.048</ele>
        <time>2019-08-13T09:53:28Z</time>
      </trkpt>
      <trkpt lat="42.598169" lon="-0.127877">
        <ele>963.72</ele>
        <time>2019-08-13T09:53:30Z</time>
      </trkpt>
      <trkpt lat="42.598162" lon="-0.127925">
        <ele>961.416</ele>
        <time>2019-08-13T09:53:39Z</time>
      </trkpt>
      <trkpt lat="42.598165" lon="-0.128026">
        <ele>951.231</ele>
        <time>2019-08-13T10:00:54Z</time>
      </trkpt>
      <trkpt lat="42.598263" lon="-0.127998">
        <ele>952.541</ele>
        <time>2019-08-13T10:01:11Z</time>
      </trkpt>
      <trkpt lat="42.598314" lon="-0.128028">
        <ele>952.29</ele>
        <time>2019-08-13T10:01:14Z</time>
      </trkpt>
      <trkpt lat="42.598364" lon="-0.128014">
        <ele>961.229</ele>
        <time>2019-08-13T10:01:18Z</time>
      </trkpt>
      <trkpt lat="42.598418" lon="-0.127967">
        <ele>960.161</ele>
        <time>2019-08-13T10:01:23Z</time>
      </trkpt>
      <trkpt lat="42.598417" lon="-0.128019">
        <ele>956.135</ele>
        <time>2019-08-13T10:01:33Z</time>
      </trkpt>
      <trkpt lat="42.598455" lon="-0.128054">
        <ele>956.888</ele>
        <time>2019-08-13T10:01:37Z</time>
      </trkpt>
      <trkpt lat="42.598501" lon="-0.12803">
        <ele>954.638</ele>
        <time>2019-08-13T10:01:45Z</time>
      </trkpt>
      <trkpt lat="42.598519" lon="-0.127973">
        <ele>955.828</ele>
        <time>2019-08-13T10:01:50Z</time>
      </trkpt>
      <trkpt lat="42.598528" lon="-0.127939">
        <ele>952.05</ele>
        <time>2019-08-13T10:01:52Z</time>
      </trkpt>
      <trkpt lat="42.598568" lon="-0.127886">
        <ele>950.585</ele>
        <time>2019-08-13T10:01:56Z</time>
      </trkpt>
      <trkpt lat="42.598591" lon="-0.127856">
        <ele>953.135</ele>
        <time>2019-08-13T10:02:00Z</time>
      </trkpt>
      <trkpt lat="42.598657" lon="-0.127923">
        <ele>945.318</ele>
        <time>2019-08-13T10:02:03Z</time>
      </trkpt>
      <trkpt lat="42.598727" lon="-0.127964">
        <ele>952.519</ele>
        <time>2019-08-13T10:02:07Z</time>
      </trkpt>
      <trkpt lat="42.59873" lon="-0.128003">
        <ele>958.417</ele>
        <time>2019-08-13T10:02:15Z</time>
      </trkpt>
      <trkpt lat="42.598785" lon="-0.128018">
        <ele>954.006</ele>
        <time>2019-08-13T10:02:41Z</time>
      </trkpt>
      <trkpt lat="42.598832" lon="-0.127969">
        <ele>950.794</ele>
        <time>2019-08-13T10:02:47Z</time>
      </trkpt>
      <trkpt lat="42.598886" lon="-0.127946">
        <ele>951.638</ele>
        <time>2019-08-13T10:02:51Z</time>
      </trkpt>
      <trkpt lat="42.598933" lon="-0.127922">
        <ele>952.569</ele>
        <time>2019-08-13T10:02:57Z</time>
      </trkpt>
      <trkpt lat="42.598968" lon="-0.1279">
        <ele>952.793</ele>
        <time>2019-08-13T10:03:02Z</time>
      </trkpt>
      <trkpt lat="42.599004" lon="-0.127845">
        <ele>941.795</ele>
        <time>2019-08-13T10:03:17Z</time>
      </trkpt>
      <trkpt lat="42.599029" lon="-0.127793">
        <ele>947.564</ele>
        <time>2019-08-13T10:03:22Z</time>
      </trkpt>
      <trkpt lat="42.599085" lon="-0.127778">
        <ele>947.429</ele>
        <time>2019-08-13T10:03:26Z</time>
      </trkpt>
      <trkpt lat="42.599119" lon="-0.127768">
        <ele>947.284</ele>
        <time>2019-08-13T10:03:28Z</time>
      </trkpt>
      <trkpt lat="42.599131" lon="-0.127702">
        <ele>955.187</ele>
        <time>2019-08-13T10:03:34Z</time>
      </trkpt>
      <trkpt lat="42.599135" lon="-0.127665">
        <ele>958.153</ele>
        <time>2019-08-13T10:03:39Z</time>
      </trkpt>
      <trkpt lat="42.59918" lon="-0.127624">
        <ele>958.552</ele>
        <time>2019-08-13T10:03:50Z</time>
      </trkpt>
      <trkpt lat="42.599234" lon="-0.127596">
        <ele>954.166</ele>
        <time>2019-08-13T10:03:54Z</time>
      </trkpt>
      <trkpt lat="42.599288" lon="-0.127576">
        <ele>952.484</ele>
        <time>2019-08-13T10:03:58Z</time>
      </trkpt>
      <trkpt lat="42.599351" lon="-0.127545">
        <ele>950.534</ele>
        <time>2019-08-13T10:04:02Z</time>
      </trkpt>
      <trkpt lat="42.599395" lon="-0.127564">
        <ele>949.676</ele>
        <time>2019-08-13T10:04:05Z</time>
      </trkpt>
      <trkpt lat="42.599443" lon="-0.127574">
        <ele>948.508</ele>
        <time>2019-08-13T10:04:08Z</time>
      </trkpt>
      <trkpt lat="42.599481" lon="-0.127535">
        <ele>951.138</ele>
        <time>2019-08-13T10:04:13Z</time>
      </trkpt>
      <trkpt lat="42.599481" lon="-0.127535">
        <ele>951.138</ele>
        <time>2019-08-13T10:04:21Z</time>
      </trkpt>
      <trkpt lat="42.599481" lon="-0.127535">
        <ele>951.138</ele>
        <time>2019-08-13T10:04:22Z</time>
      </trkpt>
      <trkpt lat="42.599525" lon="-0.127523">
        <ele>955.037</ele>
        <time>2019-08-13T10:04:35Z</time>
      </trkpt>
      <trkpt lat="42.599573" lon="-0.127536">
        <ele>950.564</ele>
        <time>2019-08-13T10:04:39Z</time>
      </trkpt>
      <trkpt lat="42.599609" lon="-0.127545">
        <ele>950.739</ele>
        <time>2019-08-13T10:04:41Z</time>
      </trkpt>
      <trkpt lat="42.599661" lon="-0.127537">
        <ele>953.086</ele>
        <time>2019-08-13T10:04:44Z</time>
      </trkpt>
      <trkpt lat="42.599706" lon="-0.127518">
        <ele>951.829</ele>
        <time>2019-08-13T10:04:47Z</time>
      </trkpt>
      <trkpt lat="42.599732" lon="-0.127509">
        <ele>951.555</ele>
        <time>2019-08-13T10:04:49Z</time>
      </trkpt>
      <trkpt lat="42.599783" lon="-0.127482">
        <ele>952.792</ele>
        <time>2019-08-13T10:04:52Z</time>
      </trkpt>
      <trkpt lat="42.599837" lon="-0.127465">
        <ele>952.004</ele>
        <time>2019-08-13T10:04:55Z</time>
      </trkpt>
      <trkpt lat="42.599903" lon="-0.12746">
        <ele>953.962</ele>
        <time>2019-08-13T10:05:01Z</time>
      </trkpt>
      <trkpt lat="42.599958" lon="-0.12747">
        <ele>954.051</ele>
        <time>2019-08-13T10:05:07Z</time>
      </trkpt>
      <trkpt lat="42.600005" lon="-0.127418">
        <ele>951.916</ele>
        <time>2019-08-13T10:05:13Z</time>
      </trkpt>
      <trkpt lat="42.600037" lon="-0.127372">
        <ele>951.299</ele>
        <time>2019-08-13T10:05:17Z</time>
      </trkpt>
      <trkpt lat="42.600078" lon="-0.127338">
        <ele>951.023</ele>
        <time>2019-08-13T10:05:20Z</time>
      </trkpt>
      <trkpt lat="42.600138" lon="-0.127324">
        <ele>948.393</ele>
        <time>2019-08-13T10:05:24Z</time>
      </trkpt>
      <trkpt lat="42.600166" lon="-0.127314">
        <ele>951.227</ele>
        <time>2019-08-13T10:05:28Z</time>
      </trkpt>
      <trkpt lat="42.600197" lon="-0.127304">
        <ele>948.303</ele>
        <time>2019-08-13T10:05:31Z</time>
      </trkpt>
      <trkpt lat="42.600248" lon="-0.127293">
        <ele>1038.01</ele>
        <time>2019-08-13T10:05:36Z</time>
      </trkpt>
      <trkpt lat="42.600299" lon="-0.127273">
        <ele>996.238</ele>
        <time>2019-08-13T10:05:39Z</time>
      </trkpt>
      <trkpt lat="42.600347" lon="-0.12727">
        <ele>979.845</ele>
        <time>2019-08-13T10:05:42Z</time>
      </trkpt>
      <trkpt lat="42.600403" lon="-0.127274">
        <ele>962.603</ele>
        <time>2019-08-13T10:05:46Z</time>
      </trkpt>
      <trkpt lat="42.600454" lon="-0.127251">
        <ele>958.086</ele>
        <time>2019-08-13T10:05:51Z</time>
      </trkpt>
      <trkpt lat="42.600496" lon="-0.127226">
        <ele>953.129</ele>
        <time>2019-08-13T10:05:54Z</time>
      </trkpt>
      <trkpt lat="42.600517" lon="-0.127214">
        <ele>948.519</ele>
        <time>2019-08-13T10:05:56Z</time>
      </trkpt>
      <trkpt lat="42.600566" lon="-0.127178">
        <ele>947.393</ele>
        <time>2019-08-13T10:06:01Z</time>
      </trkpt>
      <trkpt lat="42.600599" lon="-0.12713">
        <ele>951.378</ele>
        <time>2019-08-13T10:06:05Z</time>
      </trkpt>
      <trkpt lat="42.600634" lon="-0.127071">
        <ele>951.767</ele>
        <time>2019-08-13T10:06:11Z</time>
      </trkpt>
      <trkpt lat="42.600678" lon="-0.127048">
        <ele>952.138</ele>
        <time>2019-08-13T10:06:15Z</time>
      </trkpt>
      <trkpt lat="42.600707" lon="-0.126998">
        <ele>951.586</ele>
        <time>2019-08-13T10:06:20Z</time>
      </trkpt>
      <trkpt lat="42.600734" lon="-0.126943">
        <ele>953.163</ele>
        <time>2019-08-13T10:06:26Z</time>
      </trkpt>
      <trkpt lat="42.600781" lon="-0.126906">
        <ele>955.331</ele>
        <time>2019-08-13T10:06:31Z</time>
      </trkpt>
      <trkpt lat="42.6008" lon="-0.126847">
        <ele>958.349</ele>
        <time>2019-08-13T10:06:34Z</time>
      </trkpt>
      <trkpt lat="42.600825" lon="-0.126793">
        <ele>960.174</ele>
        <time>2019-08-13T10:06:39Z</time>
      </trkpt>
      <trkpt lat="42.600857" lon="-0.126759">
        <ele>962.477</ele>
        <time>2019-08-13T10:06:48Z</time>
      </trkpt>
      <trkpt lat="42.600879" lon="-0.126718">
        <ele>963.489</ele>
        <time>2019-08-13T10:06:52Z</time>
      </trkpt>
      <trkpt lat="42.600906" lon="-0.126655">
        <ele>965.242</ele>
        <time>2019-08-13T10:06:55Z</time>
      </trkpt>
      <trkpt lat="42.600926" lon="-0.12659">
        <ele>968.912</ele>
        <time>2019-08-13T10:06:59Z</time>
      </trkpt>
      <trkpt lat="42.600953" lon="-0.126529">
        <ele>969.078</ele>
        <time>2019-08-13T10:07:03Z</time>
      </trkpt>
      <trkpt lat="42.600962" lon="-0.126464">
        <ele>969.527</ele>
        <time>2019-08-13T10:07:07Z</time>
      </trkpt>
      <trkpt lat="42.600981" lon="-0.126406">
        <ele>1035.23</ele>
        <time>2019-08-13T10:07:11Z</time>
      </trkpt>
      <trkpt lat="42.600969" lon="-0.126325">
        <ele>986.521</ele>
        <time>2019-08-13T10:07:16Z</time>
      </trkpt>
      <trkpt lat="42.600976" lon="-0.12626">
        <ele>968.044</ele>
        <time>2019-08-13T10:07:22Z</time>
      </trkpt>
      <trkpt lat="42.601009" lon="-0.126198">
        <ele>967.639</ele>
        <time>2019-08-13T10:07:26Z</time>
      </trkpt>
      <trkpt lat="42.601028" lon="-0.126156">
        <ele>968.705</ele>
        <time>2019-08-13T10:07:29Z</time>
      </trkpt>
      <trkpt lat="42.601042" lon="-0.126084">
        <ele>968.597</ele>
        <time>2019-08-13T10:07:35Z</time>
      </trkpt>
      <trkpt lat="42.601063" lon="-0.12602">
        <ele>969.161</ele>
        <time>2019-08-13T10:07:41Z</time>
      </trkpt>
      <trkpt lat="42.601116" lon="-0.12597">
        <ele>967.854</ele>
        <time>2019-08-13T10:07:47Z</time>
      </trkpt>
      <trkpt lat="42.601123" lon="-0.125908">
        <ele>966.978</ele>
        <time>2019-08-13T10:07:50Z</time>
      </trkpt>
      <trkpt lat="42.601164" lon="-0.125872">
        <ele>965.688</ele>
        <time>2019-08-13T10:07:55Z</time>
      </trkpt>
      <trkpt lat="42.601169" lon="-0.125805">
        <ele>964.943</ele>
        <time>2019-08-13T10:07:59Z</time>
      </trkpt>
      <trkpt lat="42.601155" lon="-0.125721">
        <ele>965.91</ele>
        <time>2019-08-13T10:08:02Z</time>
      </trkpt>
      <trkpt lat="42.601152" lon="-0.125647">
        <ele>967.727</ele>
        <time>2019-08-13T10:08:05Z</time>
      </trkpt>
      <trkpt lat="42.601148" lon="-0.125607">
        <ele>968.318</ele>
        <time>2019-08-13T10:08:07Z</time>
      </trkpt>
      <trkpt lat="42.601179" lon="-0.125556">
        <ele>965.572</ele>
        <time>2019-08-13T10:08:12Z</time>
      </trkpt>
      <trkpt lat="42.601207" lon="-0.125495">
        <ele>965.769</ele>
        <time>2019-08-13T10:08:17Z</time>
      </trkpt>
      <trkpt lat="42.601221" lon="-0.125461">
        <ele>964.193</ele>
        <time>2019-08-13T10:08:19Z</time>
      </trkpt>
      <trkpt lat="42.601249" lon="-0.125397">
        <ele>965.479</ele>
        <time>2019-08-13T10:08:25Z</time>
      </trkpt>
      <trkpt lat="42.601266" lon="-0.125327">
        <ele>965.651</ele>
        <time>2019-08-13T10:08:29Z</time>
      </trkpt>
      <trkpt lat="42.60128" lon="-0.125264">
        <ele>969.37</ele>
        <time>2019-08-13T10:08:33Z</time>
      </trkpt>
      <trkpt lat="42.601288" lon="-0.125221">
        <ele>970.015</ele>
        <time>2019-08-13T10:08:35Z</time>
      </trkpt>
      <trkpt lat="42.6013" lon="-0.125153">
        <ele>971.116</ele>
        <time>2019-08-13T10:08:39Z</time>
      </trkpt>
      <trkpt lat="42.601329" lon="-0.125091">
        <ele>971.107</ele>
        <time>2019-08-13T10:08:47Z</time>
      </trkpt>
      <trkpt lat="42.601367" lon="-0.125037">
        <ele>973.075</ele>
        <time>2019-08-13T10:08:52Z</time>
      </trkpt>
      <trkpt lat="42.601389" lon="-0.124963">
        <ele>970.993</ele>
        <time>2019-08-13T10:08:56Z</time>
      </trkpt>
      <trkpt lat="42.601428" lon="-0.124919">
        <ele>968.834</ele>
        <time>2019-08-13T10:09:01Z</time>
      </trkpt>
      <trkpt lat="42.60146" lon="-0.124866">
        <ele>970.398</ele>
        <time>2019-08-13T10:09:06Z</time>
      </trkpt>
      <trkpt lat="42.60148" lon="-0.124834">
        <ele>971.012</ele>
        <time>2019-08-13T10:09:08Z</time>
      </trkpt>
      <trkpt lat="42.601521" lon="-0.124803">
        <ele>968.407</ele>
        <time>2019-08-13T10:09:12Z</time>
      </trkpt>
      <trkpt lat="42.601564" lon="-0.12477">
        <ele>968.989</ele>
        <time>2019-08-13T10:09:16Z</time>
      </trkpt>
      <trkpt lat="42.601595" lon="-0.12468">
        <ele>966.381</ele>
        <time>2019-08-13T10:09:20Z</time>
      </trkpt>
      <trkpt lat="42.601595" lon="-0.12468">
        <ele>966.381</ele>
        <time>2019-08-13T10:09:25Z</time>
      </trkpt>
      <trkpt lat="42.601642" lon="-0.124665">
        <ele>971.352</ele>
        <time>2019-08-13T10:09:26Z</time>
      </trkpt>
      <trkpt lat="42.601693" lon="-0.124685">
        <ele>973.329</ele>
        <time>2019-08-13T10:09:31Z</time>
      </trkpt>
      <trkpt lat="42.601721" lon="-0.124696">
        <ele>971.287</ele>
        <time>2019-08-13T10:09:36Z</time>
      </trkpt>
      <trkpt lat="42.601801" lon="-0.124706">
        <ele>966.446</ele>
        <time>2019-08-13T10:09:44Z</time>
      </trkpt>
      <trkpt lat="42.601845" lon="-0.124713">
        <ele>961.196</ele>
        <time>2019-08-13T10:09:46Z</time>
      </trkpt>
      <trkpt lat="42.601889" lon="-0.124724">
        <ele>963.71</ele>
        <time>2019-08-13T10:09:49Z</time>
      </trkpt>
      <trkpt lat="42.60192" lon="-0.124731">
        <ele>964.458</ele>
        <time>2019-08-13T10:09:54Z</time>
      </trkpt>
      <trkpt lat="42.601975" lon="-0.124724">
        <ele>964.094</ele>
        <time>2019-08-13T10:09:59Z</time>
      </trkpt>
      <trkpt lat="42.602016" lon="-0.124696">
        <ele>963.898</ele>
        <time>2019-08-13T10:10:02Z</time>
      </trkpt>
      <trkpt lat="42.602048" lon="-0.124673">
        <ele>963.174</ele>
        <time>2019-08-13T10:10:04Z</time>
      </trkpt>
      <trkpt lat="42.602094" lon="-0.124662">
        <ele>961.296</ele>
        <time>2019-08-13T10:10:08Z</time>
      </trkpt>
      <trkpt lat="42.602119" lon="-0.124653">
        <ele>960.663</ele>
        <time>2019-08-13T10:10:11Z</time>
      </trkpt>
      <trkpt lat="42.602156" lon="-0.124639">
        <ele>960.144</ele>
        <time>2019-08-13T10:10:17Z</time>
      </trkpt>
      <trkpt lat="42.602206" lon="-0.12466">
        <ele>956.886</ele>
        <time>2019-08-13T10:10:23Z</time>
      </trkpt>
      <trkpt lat="42.602245" lon="-0.124702">
        <ele>953.636</ele>
        <time>2019-08-13T10:10:32Z</time>
      </trkpt>
      <trkpt lat="42.602295" lon="-0.12471">
        <ele>955.741</ele>
        <time>2019-08-13T10:10:37Z</time>
      </trkpt>
      <trkpt lat="42.602322" lon="-0.124714">
        <ele>957.64</ele>
        <time>2019-08-13T10:10:40Z</time>
      </trkpt>
      <trkpt lat="42.602358" lon="-0.124716">
        <ele>958.335</ele>
        <time>2019-08-13T10:10:43Z</time>
      </trkpt>
      <trkpt lat="42.602412" lon="-0.124732">
        <ele>956.339</ele>
        <time>2019-08-13T10:10:48Z</time>
      </trkpt>
      <trkpt lat="42.602457" lon="-0.124718">
        <ele>955.281</ele>
        <time>2019-08-13T10:10:52Z</time>
      </trkpt>
      <trkpt lat="42.602503" lon="-0.124711">
        <ele>954.024</ele>
        <time>2019-08-13T10:10:55Z</time>
      </trkpt>
      <trkpt lat="42.60255" lon="-0.124694">
        <ele>955.275</ele>
        <time>2019-08-13T10:10:58Z</time>
      </trkpt>
      <trkpt lat="42.60259" lon="-0.124681">
        <ele>954.668</ele>
        <time>2019-08-13T10:11:02Z</time>
      </trkpt>
      <trkpt lat="42.602641" lon="-0.124663">
        <ele>950.592</ele>
        <time>2019-08-13T10:11:08Z</time>
      </trkpt>
      <trkpt lat="42.602677" lon="-0.124652">
        <ele>953.002</ele>
        <time>2019-08-13T10:11:12Z</time>
      </trkpt>
      <trkpt lat="42.602732" lon="-0.124616">
        <ele>948.662</ele>
        <time>2019-08-13T10:11:17Z</time>
      </trkpt>
      <trkpt lat="42.602769" lon="-0.124562">
        <ele>952.143</ele>
        <time>2019-08-13T10:11:21Z</time>
      </trkpt>
      <trkpt lat="42.602813" lon="-0.124536">
        <ele>952.446</ele>
        <time>2019-08-13T10:11:24Z</time>
      </trkpt>
      <trkpt lat="42.60286" lon="-0.12452">
        <ele>952.203</ele>
        <time>2019-08-13T10:11:30Z</time>
      </trkpt>
      <trkpt lat="42.602901" lon="-0.124489">
        <ele>950.819</ele>
        <time>2019-08-13T10:11:35Z</time>
      </trkpt>
      <trkpt lat="42.602922" lon="-0.124476">
        <ele>950.151</ele>
        <time>2019-08-13T10:11:37Z</time>
      </trkpt>
      <trkpt lat="42.60297" lon="-0.124469">
        <ele>950.116</ele>
        <time>2019-08-13T10:11:42Z</time>
      </trkpt>
      <trkpt lat="42.603013" lon="-0.124486">
        <ele>944.058</ele>
        <time>2019-08-13T10:11:51Z</time>
      </trkpt>
      <trkpt lat="42.603064" lon="-0.124471">
        <ele>941.492</ele>
        <time>2019-08-13T10:12:00Z</time>
      </trkpt>
      <trkpt lat="42.603116" lon="-0.124464">
        <ele>941.506</ele>
        <time>2019-08-13T10:12:03Z</time>
      </trkpt>
      <trkpt lat="42.603185" lon="-0.12443">
        <ele>944.255</ele>
        <time>2019-08-13T10:12:07Z</time>
      </trkpt>
      <trkpt lat="42.603211" lon="-0.12442">
        <ele>944.2</ele>
        <time>2019-08-13T10:12:09Z</time>
      </trkpt>
      <trkpt lat="42.603252" lon="-0.124376">
        <ele>947.189</ele>
        <time>2019-08-13T10:12:12Z</time>
      </trkpt>
      <trkpt lat="42.603278" lon="-0.124321">
        <ele>947.854</ele>
        <time>2019-08-13T10:12:15Z</time>
      </trkpt>
      <trkpt lat="42.603319" lon="-0.12427">
        <ele>947.927</ele>
        <time>2019-08-13T10:12:19Z</time>
      </trkpt>
      <trkpt lat="42.603316" lon="-0.124209">
        <ele>948.404</ele>
        <time>2019-08-13T10:12:25Z</time>
      </trkpt>
      <trkpt lat="42.603269" lon="-0.124181">
        <ele>953.504</ele>
        <time>2019-08-13T10:12:32Z</time>
      </trkpt>
      <trkpt lat="42.603257" lon="-0.124162">
        <ele>951.031</ele>
        <time>2019-08-13T10:12:40Z</time>
      </trkpt>
      <trkpt lat="42.603319" lon="-0.124185">
        <ele>949.016</ele>
        <time>2019-08-13T10:13:16Z</time>
      </trkpt>
      <trkpt lat="42.603376" lon="-0.124236">
        <ele>946.203</ele>
        <time>2019-08-13T10:13:19Z</time>
      </trkpt>
      <trkpt lat="42.603443" lon="-0.124275">
        <ele>945.008</ele>
        <time>2019-08-13T10:13:23Z</time>
      </trkpt>
      <trkpt lat="42.603475" lon="-0.12429">
        <ele>942.859</ele>
        <time>2019-08-13T10:13:25Z</time>
      </trkpt>
      <trkpt lat="42.603534" lon="-0.124337">
        <ele>938.511</ele>
        <time>2019-08-13T10:13:29Z</time>
      </trkpt>
      <trkpt lat="42.603574" lon="-0.124378">
        <ele>942.119</ele>
        <time>2019-08-13T10:13:33Z</time>
      </trkpt>
      <trkpt lat="42.603617" lon="-0.124409">
        <ele>939.251</ele>
        <time>2019-08-13T10:13:39Z</time>
      </trkpt>
      <trkpt lat="42.603667" lon="-0.124434">
        <ele>940.118</ele>
        <time>2019-08-13T10:13:43Z</time>
      </trkpt>
      <trkpt lat="42.603713" lon="-0.124443">
        <ele>939.905</ele>
        <time>2019-08-13T10:13:47Z</time>
      </trkpt>
      <trkpt lat="42.603781" lon="-0.124412">
        <ele>939.911</ele>
        <time>2019-08-13T10:13:52Z</time>
      </trkpt>
      <trkpt lat="42.603822" lon="-0.124373">
        <ele>942.126</ele>
        <time>2019-08-13T10:13:56Z</time>
      </trkpt>
      <trkpt lat="42.603867" lon="-0.124356">
        <ele>936.638</ele>
        <time>2019-08-13T10:14:00Z</time>
      </trkpt>
      <trkpt lat="42.603913" lon="-0.124312">
        <ele>934.155</ele>
        <time>2019-08-13T10:14:04Z</time>
      </trkpt>
      <trkpt lat="42.603938" lon="-0.124285">
        <ele>934.928</ele>
        <time>2019-08-13T10:14:06Z</time>
      </trkpt>
      <trkpt lat="42.60396" lon="-0.124265">
        <ele>934.504</ele>
        <time>2019-08-13T10:14:08Z</time>
      </trkpt>
      <trkpt lat="42.604014" lon="-0.124253">
        <ele>931.975</ele>
        <time>2019-08-13T10:14:12Z</time>
      </trkpt>
      <trkpt lat="42.604014" lon="-0.124253">
        <ele>931.975</ele>
        <time>2019-08-13T10:14:19Z</time>
      </trkpt>
      <trkpt lat="42.604014" lon="-0.124253">
        <ele>931.975</ele>
        <time>2019-08-13T10:14:20Z</time>
      </trkpt>
      <trkpt lat="42.604059" lon="-0.124242">
        <ele>934.142</ele>
        <time>2019-08-13T10:14:28Z</time>
      </trkpt>
      <trkpt lat="42.604115" lon="-0.124223">
        <ele>924.355</ele>
        <time>2019-08-13T10:14:32Z</time>
      </trkpt>
      <trkpt lat="42.604148" lon="-0.12421">
        <ele>924.705</ele>
        <time>2019-08-13T10:14:34Z</time>
      </trkpt>
      <trkpt lat="42.604194" lon="-0.124179">
        <ele>927.27</ele>
        <time>2019-08-13T10:14:37Z</time>
      </trkpt>
      <trkpt lat="42.604246" lon="-0.124141">
        <ele>920.802</ele>
        <time>2019-08-13T10:14:40Z</time>
      </trkpt>
      <trkpt lat="42.604295" lon="-0.124124">
        <ele>918.208</ele>
        <time>2019-08-13T10:14:44Z</time>
      </trkpt>
      <trkpt lat="42.604344" lon="-0.124113">
        <ele>920.78</ele>
        <time>2019-08-13T10:14:49Z</time>
      </trkpt>
      <trkpt lat="42.604344" lon="-0.124113">
        <ele>920.78</ele>
        <time>2019-08-13T10:14:57Z</time>
      </trkpt>
      <trkpt lat="42.604344" lon="-0.124113">
        <ele>920.78</ele>
        <time>2019-08-13T10:14:58Z</time>
      </trkpt>
      <trkpt lat="42.604412" lon="-0.124078">
        <ele>963.86</ele>
        <time>2019-08-13T10:15:16Z</time>
      </trkpt>
      <trkpt lat="42.604469" lon="-0.12407">
        <ele>956.853</ele>
        <time>2019-08-13T10:15:19Z</time>
      </trkpt>
      <trkpt lat="42.604518" lon="-0.124014">
        <ele>945.484</ele>
        <time>2019-08-13T10:15:22Z</time>
      </trkpt>
      <trkpt lat="42.604541" lon="-0.123961">
        <ele>944.593</ele>
        <time>2019-08-13T10:15:24Z</time>
      </trkpt>
      <trkpt lat="42.604558" lon="-0.123886">
        <ele>939.618</ele>
        <time>2019-08-13T10:15:27Z</time>
      </trkpt>
      <trkpt lat="42.604584" lon="-0.123828">
        <ele>935.643</ele>
        <time>2019-08-13T10:15:30Z</time>
      </trkpt>
      <trkpt lat="42.604646" lon="-0.123809">
        <ele>936.997</ele>
        <time>2019-08-13T10:15:34Z</time>
      </trkpt>
      <trkpt lat="42.604688" lon="-0.123779">
        <ele>930.793</ele>
        <time>2019-08-13T10:15:39Z</time>
      </trkpt>
      <trkpt lat="42.604727" lon="-0.123728">
        <ele>931.439</ele>
        <time>2019-08-13T10:15:45Z</time>
      </trkpt>
      <trkpt lat="42.604746" lon="-0.123707">
        <ele>930.369</ele>
        <time>2019-08-13T10:15:47Z</time>
      </trkpt>
      <trkpt lat="42.604788" lon="-0.123673">
        <ele>931.397</ele>
        <time>2019-08-13T10:15:53Z</time>
      </trkpt>
      <trkpt lat="42.604785" lon="-0.123608">
        <ele>941.291</ele>
        <time>2019-08-13T10:15:58Z</time>
      </trkpt>
      <trkpt lat="42.604782" lon="-0.123569">
        <ele>932.902</ele>
        <time>2019-08-13T10:16:01Z</time>
      </trkpt>
      <trkpt lat="42.604798" lon="-0.123491">
        <ele>928.964</ele>
        <time>2019-08-13T10:16:07Z</time>
      </trkpt>
      <trkpt lat="42.604798" lon="-0.123384">
        <ele>930.897</ele>
        <time>2019-08-13T10:16:13Z</time>
      </trkpt>
      <trkpt lat="42.604824" lon="-0.123317">
        <ele>991.276</ele>
        <time>2019-08-13T10:16:17Z</time>
      </trkpt>
      <trkpt lat="42.604846" lon="-0.123268">
        <ele>956.782</ele>
        <time>2019-08-13T10:16:21Z</time>
      </trkpt>
      <trkpt lat="42.604852" lon="-0.123188">
        <ele>944.175</ele>
        <time>2019-08-13T10:16:27Z</time>
      </trkpt>
      <trkpt lat="42.604853" lon="-0.123124">
        <ele>940.338</ele>
        <time>2019-08-13T10:16:34Z</time>
      </trkpt>
      <trkpt lat="42.604854" lon="-0.123092">
        <ele>943.516</ele>
        <time>2019-08-13T10:16:36Z</time>
      </trkpt>
      <trkpt lat="42.60485" lon="-0.123072">
        <ele>941.723</ele>
        <time>2019-08-13T10:16:44Z</time>
      </trkpt>
      <trkpt lat="42.604841" lon="-0.122996">
        <ele>937.051</ele>
        <time>2019-08-13T10:16:49Z</time>
      </trkpt>
      <trkpt lat="42.604841" lon="-0.122996">
        <ele>937.051</ele>
        <time>2019-08-13T10:16:56Z</time>
      </trkpt>
      <trkpt lat="42.604841" lon="-0.122996">
        <ele>937.051</ele>
        <time>2019-08-13T10:16:57Z</time>
      </trkpt>
      <trkpt lat="42.604877" lon="-0.122926">
        <ele>933.503</ele>
        <time>2019-08-13T10:17:38Z</time>
      </trkpt>
      <trkpt lat="42.60489" lon="-0.122896">
        <ele>935.191</ele>
        <time>2019-08-13T10:17:42Z</time>
      </trkpt>
      <trkpt lat="42.604899" lon="-0.122834">
        <ele>936.111</ele>
        <time>2019-08-13T10:17:46Z</time>
      </trkpt>
      <trkpt lat="42.604899" lon="-0.122834">
        <ele>936.111</ele>
        <time>2019-08-13T10:17:53Z</time>
      </trkpt>
      <trkpt lat="42.604899" lon="-0.122834">
        <ele>936.111</ele>
        <time>2019-08-13T10:17:55Z</time>
      </trkpt>
      <trkpt lat="42.60496" lon="-0.122797">
        <ele>942.61</ele>
        <time>2019-08-13T10:18:53Z</time>
      </trkpt>
      <trkpt lat="42.604993" lon="-0.122746">
        <ele>941.012</ele>
        <time>2019-08-13T10:18:58Z</time>
      </trkpt>
      <trkpt lat="42.605035" lon="-0.122698">
        <ele>940.135</ele>
        <time>2019-08-13T10:19:04Z</time>
      </trkpt>
      <trkpt lat="42.605077" lon="-0.12266">
        <ele>944.613</ele>
        <time>2019-08-13T10:19:08Z</time>
      </trkpt>
      <trkpt lat="42.605132" lon="-0.122672">
        <ele>942.107</ele>
        <time>2019-08-13T10:19:13Z</time>
      </trkpt>
      <trkpt lat="42.605178" lon="-0.122689">
        <ele>942.878</ele>
        <time>2019-08-13T10:19:16Z</time>
      </trkpt>
      <trkpt lat="42.605225" lon="-0.122661">
        <ele>942.164</ele>
        <time>2019-08-13T10:19:23Z</time>
      </trkpt>
      <trkpt lat="42.605254" lon="-0.122639">
        <ele>940.84</ele>
        <time>2019-08-13T10:19:26Z</time>
      </trkpt>
      <trkpt lat="42.605304" lon="-0.122601">
        <ele>938.168</ele>
        <time>2019-08-13T10:19:32Z</time>
      </trkpt>
      <trkpt lat="42.605341" lon="-0.122571">
        <ele>940.119</ele>
        <time>2019-08-13T10:19:37Z</time>
      </trkpt>
      <trkpt lat="42.605341" lon="-0.122571">
        <ele>940.119</ele>
        <time>2019-08-13T10:24:52Z</time>
      </trkpt>
      <trkpt lat="42.605348" lon="-0.122638">
        <ele>941.536</ele>
        <time>2019-08-13T10:24:57Z</time>
      </trkpt>
      <trkpt lat="42.60526" lon="-0.12272">
        <ele>940.69</ele>
        <time>2019-08-13T10:25:21Z</time>
      </trkpt>
      <trkpt lat="42.605206" lon="-0.122732">
        <ele>941.019</ele>
        <time>2019-08-13T10:25:26Z</time>
      </trkpt>
      <trkpt lat="42.605189" lon="-0.122878">
        <ele>937.812</ele>
        <time>2019-08-13T10:25:39Z</time>
      </trkpt>
      <trkpt lat="42.605179" lon="-0.122959">
        <ele>930.682</ele>
        <time>2019-08-13T10:25:43Z</time>
      </trkpt>
      <trkpt lat="42.605095" lon="-0.123065">
        <ele>930.838</ele>
        <time>2019-08-13T10:25:49Z</time>
      </trkpt>
      <trkpt lat="42.60507" lon="-0.123098">
        <ele>931.104</ele>
        <time>2019-08-13T10:25:52Z</time>
      </trkpt>
      <trkpt lat="42.605026" lon="-0.123092">
        <ele>931.598</ele>
        <time>2019-08-13T10:26:01Z</time>
      </trkpt>
      <trkpt lat="42.605007" lon="-0.123159">
        <ele>928.458</ele>
        <time>2019-08-13T10:26:05Z</time>
      </trkpt>
      <trkpt lat="42.604978" lon="-0.123217">
        <ele>929.078</ele>
        <time>2019-08-13T10:26:09Z</time>
      </trkpt>
      <trkpt lat="42.604936" lon="-0.123254">
        <ele>931.35</ele>
        <time>2019-08-13T10:26:13Z</time>
      </trkpt>
      <trkpt lat="42.604918" lon="-0.123268">
        <ele>935.122</ele>
        <time>2019-08-13T10:26:22Z</time>
      </trkpt>
      <trkpt lat="42.604857" lon="-0.123266">
        <ele>933.059</ele>
        <time>2019-08-13T10:26:44Z</time>
      </trkpt>
      <trkpt lat="42.604813" lon="-0.123242">
        <ele>934.47</ele>
        <time>2019-08-13T10:26:48Z</time>
      </trkpt>
      <trkpt lat="42.604769" lon="-0.123206">
        <ele>935.867</ele>
        <time>2019-08-13T10:26:52Z</time>
      </trkpt>
      <trkpt lat="42.604748" lon="-0.123188">
        <ele>936.074</ele>
        <time>2019-08-13T10:26:54Z</time>
      </trkpt>
      <trkpt lat="42.604715" lon="-0.123142">
        <ele>935.923</ele>
        <time>2019-08-13T10:26:58Z</time>
      </trkpt>
      <trkpt lat="42.604695" lon="-0.123116">
        <ele>935.326</ele>
        <time>2019-08-13T10:27:00Z</time>
      </trkpt>
      <trkpt lat="42.604676" lon="-0.123092">
        <ele>935.926</ele>
        <time>2019-08-13T10:27:02Z</time>
      </trkpt>
      <trkpt lat="42.60463" lon="-0.123018">
        <ele>934.41</ele>
        <time>2019-08-13T10:27:07Z</time>
      </trkpt>
      <trkpt lat="42.60461" lon="-0.122991">
        <ele>935.682</ele>
        <time>2019-08-13T10:27:09Z</time>
      </trkpt>
      <trkpt lat="42.604582" lon="-0.122937">
        <ele>936.324</ele>
        <time>2019-08-13T10:27:13Z</time>
      </trkpt>
      <trkpt lat="42.604544" lon="-0.122891">
        <ele>937.583</ele>
        <time>2019-08-13T10:27:17Z</time>
      </trkpt>
      <trkpt lat="42.604516" lon="-0.122842">
        <ele>937.84</ele>
        <time>2019-08-13T10:27:21Z</time>
      </trkpt>
      <trkpt lat="42.604489" lon="-0.122799">
        <ele>937.734</ele>
        <time>2019-08-13T10:27:25Z</time>
      </trkpt>
      <trkpt lat="42.604447" lon="-0.122728">
        <ele>938.18</ele>
        <time>2019-08-13T10:27:32Z</time>
      </trkpt>
      <trkpt lat="42.604395" lon="-0.122711">
        <ele>942.492</ele>
        <time>2019-08-13T10:27:37Z</time>
      </trkpt>
      <trkpt lat="42.604348" lon="-0.122675">
        <ele>944.017</ele>
        <time>2019-08-13T10:27:42Z</time>
      </trkpt>
      <trkpt lat="42.604307" lon="-0.12263">
        <ele>946.813</ele>
        <time>2019-08-13T10:27:46Z</time>
      </trkpt>
      <trkpt lat="42.604279" lon="-0.122579">
        <ele>947.598</ele>
        <time>2019-08-13T10:27:50Z</time>
      </trkpt>
      <trkpt lat="42.604251" lon="-0.122529">
        <ele>948.584</ele>
        <time>2019-08-13T10:27:54Z</time>
      </trkpt>
      <trkpt lat="42.604225" lon="-0.122492">
        <ele>948.433</ele>
        <time>2019-08-13T10:27:58Z</time>
      </trkpt>
      <trkpt lat="42.6042" lon="-0.122455">
        <ele>948.22</ele>
        <time>2019-08-13T10:28:01Z</time>
      </trkpt>
      <trkpt lat="42.604186" lon="-0.122394">
        <ele>947.807</ele>
        <time>2019-08-13T10:28:05Z</time>
      </trkpt>
      <trkpt lat="42.60418" lon="-0.122328">
        <ele>946.029</ele>
        <time>2019-08-13T10:28:10Z</time>
      </trkpt>
      <trkpt lat="42.604178" lon="-0.122277">
        <ele>947.389</ele>
        <time>2019-08-13T10:28:13Z</time>
      </trkpt>
      <trkpt lat="42.604174" lon="-0.122216">
        <ele>947.915</ele>
        <time>2019-08-13T10:28:18Z</time>
      </trkpt>
      <trkpt lat="42.604139" lon="-0.122163">
        <ele>948.885</ele>
        <time>2019-08-13T10:28:22Z</time>
      </trkpt>
      <trkpt lat="42.604118" lon="-0.122093">
        <ele>951.232</ele>
        <time>2019-08-13T10:28:26Z</time>
      </trkpt>
      <trkpt lat="42.604107" lon="-0.122047">
        <ele>951.472</ele>
        <time>2019-08-13T10:28:29Z</time>
      </trkpt>
      <trkpt lat="42.604068" lon="-0.121998">
        <ele>947.194</ele>
        <time>2019-08-13T10:28:34Z</time>
      </trkpt>
      <trkpt lat="42.60405" lon="-0.121973">
        <ele>946.922</ele>
        <time>2019-08-13T10:28:36Z</time>
      </trkpt>
      <trkpt lat="42.604016" lon="-0.121929">
        <ele>950.332</ele>
        <time>2019-08-13T10:28:40Z</time>
      </trkpt>
      <trkpt lat="42.604009" lon="-0.121864">
        <ele>945.663</ele>
        <time>2019-08-13T10:28:45Z</time>
      </trkpt>
      <trkpt lat="42.604002" lon="-0.121803">
        <ele>941.118</ele>
        <time>2019-08-13T10:28:49Z</time>
      </trkpt>
      <trkpt lat="42.604005" lon="-0.121739">
        <ele>940.667</ele>
        <time>2019-08-13T10:28:53Z</time>
      </trkpt>
      <trkpt lat="42.60403" lon="-0.121694">
        <ele>942.398</ele>
        <time>2019-08-13T10:29:02Z</time>
      </trkpt>
      <trkpt lat="42.604051" lon="-0.121613">
        <ele>943.27</ele>
        <time>2019-08-13T10:29:05Z</time>
      </trkpt>
      <trkpt lat="42.604079" lon="-0.121554">
        <ele>946.771</ele>
        <time>2019-08-13T10:29:08Z</time>
      </trkpt>
      <trkpt lat="42.604151" lon="-0.121636">
        <ele>946.486</ele>
        <time>2019-08-13T10:29:15Z</time>
      </trkpt>
      <trkpt lat="42.60418" lon="-0.121685">
        <ele>943.486</ele>
        <time>2019-08-13T10:29:19Z</time>
      </trkpt>
      <trkpt lat="42.604191" lon="-0.121749">
        <ele>942.351</ele>
        <time>2019-08-13T10:29:24Z</time>
      </trkpt>
      <trkpt lat="42.60427" lon="-0.121755">
        <ele>943.219</ele>
        <time>2019-08-13T10:29:31Z</time>
      </trkpt>
      <trkpt lat="42.604202" lon="-0.12184">
        <ele>948.978</ele>
        <time>2019-08-13T10:29:40Z</time>
      </trkpt>
      <trkpt lat="42.604187" lon="-0.12192">
        <ele>949.346</ele>
        <time>2019-08-13T10:29:53Z</time>
      </trkpt>
      <trkpt lat="42.604206" lon="-0.121987">
        <ele>945.593</ele>
        <time>2019-08-13T10:30:00Z</time>
      </trkpt>
      <trkpt lat="42.604249" lon="-0.122015">
        <ele>948.162</ele>
        <time>2019-08-13T10:30:03Z</time>
      </trkpt>
      <trkpt lat="42.60429" lon="-0.122068">
        <ele>948.73</ele>
        <time>2019-08-13T10:30:06Z</time>
      </trkpt>
      <trkpt lat="42.604339" lon="-0.122082">
        <ele>950.217</ele>
        <time>2019-08-13T10:30:09Z</time>
      </trkpt>
      <trkpt lat="42.604384" lon="-0.122056">
        <ele>950.371</ele>
        <time>2019-08-13T10:30:12Z</time>
      </trkpt>
      <trkpt lat="42.604404" lon="-0.122042">
        <ele>950.518</ele>
        <time>2019-08-13T10:30:14Z</time>
      </trkpt>
      <trkpt lat="42.604406" lon="-0.122036">
        <ele>952.78</ele>
        <time>2019-08-13T10:30:22Z</time>
      </trkpt>
      <trkpt lat="42.604407" lon="-0.12196">
        <ele>941.27</ele>
        <time>2019-08-13T10:30:44Z</time>
      </trkpt>
      <trkpt lat="42.604382" lon="-0.121896">
        <ele>943.885</ele>
        <time>2019-08-13T10:30:48Z</time>
      </trkpt>
      <trkpt lat="42.604362" lon="-0.12185">
        <ele>944.557</ele>
        <time>2019-08-13T10:30:51Z</time>
      </trkpt>
      <trkpt lat="42.604348" lon="-0.121822">
        <ele>945.251</ele>
        <time>2019-08-13T10:30:55Z</time>
      </trkpt>
      <trkpt lat="42.604339" lon="-0.121801">
        <ele>946.795</ele>
        <time>2019-08-13T10:31:04Z</time>
      </trkpt>
      <trkpt lat="42.604371" lon="-0.121744">
        <ele>950.586</ele>
        <time>2019-08-13T10:31:13Z</time>
      </trkpt>
      <trkpt lat="42.604374" lon="-0.121672">
        <ele>955.309</ele>
        <time>2019-08-13T10:31:29Z</time>
      </trkpt>
      <trkpt lat="42.604365" lon="-0.121608">
        <ele>954.045</ele>
        <time>2019-08-13T10:31:32Z</time>
      </trkpt>
      <trkpt lat="42.604349" lon="-0.121542">
        <ele>953.89</ele>
        <time>2019-08-13T10:31:35Z</time>
      </trkpt>
      <trkpt lat="42.604343" lon="-0.121511">
        <ele>951.572</ele>
        <time>2019-08-13T10:31:42Z</time>
      </trkpt>
      <trkpt lat="42.604316" lon="-0.121462">
        <ele>953.958</ele>
        <time>2019-08-13T10:31:54Z</time>
      </trkpt>
      <trkpt lat="42.604287" lon="-0.121411">
        <ele>951.612</ele>
        <time>2019-08-13T10:31:57Z</time>
      </trkpt>
      <trkpt lat="42.604271" lon="-0.121354">
        <ele>951.551</ele>
        <time>2019-08-13T10:32:00Z</time>
      </trkpt>
      <trkpt lat="42.604263" lon="-0.121318">
        <ele>952.057</ele>
        <time>2019-08-13T10:32:03Z</time>
      </trkpt>
      <trkpt lat="42.604257" lon="-0.121285">
        <ele>955.258</ele>
        <time>2019-08-13T10:32:05Z</time>
      </trkpt>
      <trkpt lat="42.604252" lon="-0.121251">
        <ele>954.521</ele>
        <time>2019-08-13T10:32:07Z</time>
      </trkpt>
      <trkpt lat="42.604248" lon="-0.121213">
        <ele>957.253</ele>
        <time>2019-08-13T10:32:09Z</time>
      </trkpt>
      <trkpt lat="42.604245" lon="-0.121179">
        <ele>958.321</ele>
        <time>2019-08-13T10:32:11Z</time>
      </trkpt>
      <trkpt lat="42.60424" lon="-0.12114">
        <ele>960.552</ele>
        <time>2019-08-13T10:32:18Z</time>
      </trkpt>
      <trkpt lat="42.604237" lon="-0.121115">
        <ele>963.026</ele>
        <time>2019-08-13T10:32:26Z</time>
      </trkpt>
      <trkpt lat="42.604252" lon="-0.121183">
        <ele>961.394</ele>
        <time>2019-08-13T10:33:22Z</time>
      </trkpt>
      <trkpt lat="42.604282" lon="-0.121241">
        <ele>960.742</ele>
        <time>2019-08-13T10:33:27Z</time>
      </trkpt>
      <trkpt lat="42.604306" lon="-0.121309">
        <ele>960.642</ele>
        <time>2019-08-13T10:33:32Z</time>
      </trkpt>
      <trkpt lat="42.604314" lon="-0.121337">
        <ele>960.492</ele>
        <time>2019-08-13T10:33:34Z</time>
      </trkpt>
      <trkpt lat="42.604325" lon="-0.121419">
        <ele>962.086</ele>
        <time>2019-08-13T10:33:39Z</time>
      </trkpt>
      <trkpt lat="42.604349" lon="-0.121483">
        <ele>959.969</ele>
        <time>2019-08-13T10:33:43Z</time>
      </trkpt>
      <trkpt lat="42.604363" lon="-0.121521">
        <ele>959.705</ele>
        <time>2019-08-13T10:33:45Z</time>
      </trkpt>
      <trkpt lat="42.604394" lon="-0.121568">
        <ele>960.121</ele>
        <time>2019-08-13T10:33:48Z</time>
      </trkpt>
      <trkpt lat="42.604395" lon="-0.121631">
        <ele>960.989</ele>
        <time>2019-08-13T10:33:52Z</time>
      </trkpt>
      <trkpt lat="42.604397" lon="-0.121675">
        <ele>958.865</ele>
        <time>2019-08-13T10:33:56Z</time>
      </trkpt>
      <trkpt lat="42.604356" lon="-0.121724">
        <ele>959.12</ele>
        <time>2019-08-13T10:34:01Z</time>
      </trkpt>
      <trkpt lat="42.604326" lon="-0.121764">
        <ele>957.827</ele>
        <time>2019-08-13T10:34:05Z</time>
      </trkpt>
      <trkpt lat="42.604312" lon="-0.121742">
        <ele>956.101</ele>
        <time>2019-08-13T10:34:13Z</time>
      </trkpt>
      <trkpt lat="42.604269" lon="-0.121682">
        <ele>955.092</ele>
        <time>2019-08-13T10:34:20Z</time>
      </trkpt>
      <trkpt lat="42.604213" lon="-0.121654">
        <ele>956.094</ele>
        <time>2019-08-13T10:34:25Z</time>
      </trkpt>
      <trkpt lat="42.604208" lon="-0.121585">
        <ele>957.451</ele>
        <time>2019-08-13T10:34:31Z</time>
      </trkpt>
      <trkpt lat="42.604172" lon="-0.121525">
        <ele>959.64</ele>
        <time>2019-08-13T10:34:35Z</time>
      </trkpt>
      <trkpt lat="42.604107" lon="-0.121572">
        <ele>959.661</ele>
        <time>2019-08-13T10:34:43Z</time>
      </trkpt>
      <trkpt lat="42.604294" lon="-0.121622">
        <ele>957.223</ele>
        <time>2019-08-13T10:35:15Z</time>
      </trkpt>
      <trkpt lat="42.604294" lon="-0.121622">
        <ele>957.223</ele>
        <time>2019-08-13T10:37:35Z</time>
      </trkpt>
      <trkpt lat="42.604351" lon="-0.121759">
        <ele>962.406</ele>
        <time>2019-08-13T10:37:43Z</time>
      </trkpt>
      <trkpt lat="42.604395" lon="-0.121839">
        <ele>964.598</ele>
        <time>2019-08-13T10:37:47Z</time>
      </trkpt>
      <trkpt lat="42.60441" lon="-0.121909">
        <ele>965.457</ele>
        <time>2019-08-13T10:37:51Z</time>
      </trkpt>
      <trkpt lat="42.60441" lon="-0.121909">
        <ele>965.457</ele>
        <time>2019-08-13T10:37:59Z</time>
      </trkpt>
      <trkpt lat="42.60441" lon="-0.121909">
        <ele>965.457</ele>
        <time>2019-08-13T10:38:00Z</time>
      </trkpt>
      <trkpt lat="42.604451" lon="-0.121938">
        <ele>964.358</ele>
        <time>2019-08-13T10:38:02Z</time>
      </trkpt>
      <trkpt lat="42.604477" lon="-0.122011">
        <ele>963.799</ele>
        <time>2019-08-13T10:38:05Z</time>
      </trkpt>
      <trkpt lat="42.604488" lon="-0.122095">
        <ele>964.031</ele>
        <time>2019-08-13T10:38:08Z</time>
      </trkpt>
      <trkpt lat="42.604503" lon="-0.122172">
        <ele>962.987</ele>
        <time>2019-08-13T10:38:11Z</time>
      </trkpt>
      <trkpt lat="42.604515" lon="-0.122226">
        <ele>963.355</ele>
        <time>2019-08-13T10:38:13Z</time>
      </trkpt>
      <trkpt lat="42.604553" lon="-0.122281">
        <ele>962.02</ele>
        <time>2019-08-13T10:38:19Z</time>
      </trkpt>
      <trkpt lat="42.604583" lon="-0.122319">
        <ele>961.063</ele>
        <time>2019-08-13T10:38:22Z</time>
      </trkpt>
      <trkpt lat="42.604618" lon="-0.122371">
        <ele>960.45</ele>
        <time>2019-08-13T10:38:26Z</time>
      </trkpt>
      <trkpt lat="42.604651" lon="-0.122392">
        <ele>958.535</ele>
        <time>2019-08-13T10:38:35Z</time>
      </trkpt>
      <trkpt lat="42.604606" lon="-0.122391">
        <ele>961.691</ele>
        <time>2019-08-13T10:40:51Z</time>
      </trkpt>
      <trkpt lat="42.60456" lon="-0.122401">
        <ele>960.572</ele>
        <time>2019-08-13T10:40:53Z</time>
      </trkpt>
      <trkpt lat="42.60452" lon="-0.122441">
        <ele>958.404</ele>
        <time>2019-08-13T10:40:56Z</time>
      </trkpt>
      <trkpt lat="42.604472" lon="-0.122466">
        <ele>957.699</ele>
        <time>2019-08-13T10:40:59Z</time>
      </trkpt>
      <trkpt lat="42.60439" lon="-0.122507">
        <ele>-</ele>
        <time>2019-08-13T10:41:08Z</time>
      </trkpt>
      <trkpt lat="42.604337" lon="-0.122537">
        <ele>956.356</ele>
        <time>2019-08-13T10:41:21Z</time>
      </trkpt>
      <trkpt lat="42.60428" lon="-0.122515">
        <ele>958.209</ele>
        <time>2019-08-13T10:41:24Z</time>
      </trkpt>
      <trkpt lat="42.60428" lon="-0.122515">
        <ele>958.209</ele>
        <time>2019-08-13T10:41:29Z</time>
      </trkpt>
      <trkpt lat="42.604246" lon="-0.122469">
        <ele>959.538</ele>
        <time>2019-08-13T10:41:30Z</time>
      </trkpt>
      <trkpt lat="42.60423" lon="-0.122534">
        <ele>959.016</ele>
        <time>2019-08-13T10:42:30Z</time>
      </trkpt>
      <trkpt lat="42.604262" lon="-0.122581">
        <ele>954.703</ele>
        <time>2019-08-13T10:42:36Z</time>
      </trkpt>
      <trkpt lat="42.604271" lon="-0.122651">
        <ele>953.198</ele>
        <time>2019-08-13T10:42:43Z</time>
      </trkpt>
      <trkpt lat="42.604306" lon="-0.12269">
        <ele>954.057</ele>
        <time>2019-08-13T10:42:46Z</time>
      </trkpt>
      <trkpt lat="42.604334" lon="-0.122742">
        <ele>952.776</ele>
        <time>2019-08-13T10:42:50Z</time>
      </trkpt>
      <trkpt lat="42.60435" lon="-0.122768">
        <ele>951.764</ele>
        <time>2019-08-13T10:42:52Z</time>
      </trkpt>
      <trkpt lat="42.604391" lon="-0.122797">
        <ele>951.707</ele>
        <time>2019-08-13T10:42:56Z</time>
      </trkpt>
      <trkpt lat="42.604391" lon="-0.122797">
        <ele>951.707</ele>
        <time>2019-08-13T10:43:04Z</time>
      </trkpt>
      <trkpt lat="42.604391" lon="-0.122797">
        <ele>951.707</ele>
        <time>2019-08-13T10:43:05Z</time>
      </trkpt>
      <trkpt lat="42.604403" lon="-0.122867">
        <ele>951.533</ele>
        <time>2019-08-13T10:43:28Z</time>
      </trkpt>
      <trkpt lat="42.604442" lon="-0.122923">
        <ele>950.137</ele>
        <time>2019-08-13T10:43:32Z</time>
      </trkpt>
      <trkpt lat="42.604468" lon="-0.122959">
        <ele>950.649</ele>
        <time>2019-08-13T10:43:35Z</time>
      </trkpt>
      <trkpt lat="42.60451" lon="-0.122989">
        <ele>949.483</ele>
        <time>2019-08-13T10:43:38Z</time>
      </trkpt>
      <trkpt lat="42.604532" lon="-0.123008">
        <ele>950.144</ele>
        <time>2019-08-13T10:43:40Z</time>
      </trkpt>
      <trkpt lat="42.604563" lon="-0.123071">
        <ele>950.273</ele>
        <time>2019-08-13T10:43:45Z</time>
      </trkpt>
      <trkpt lat="42.604593" lon="-0.123117">
        <ele>949.745</ele>
        <time>2019-08-13T10:43:49Z</time>
      </trkpt>
      <trkpt lat="42.604612" lon="-0.123141">
        <ele>949.171</ele>
        <time>2019-08-13T10:43:52Z</time>
      </trkpt>
      <trkpt lat="42.604631" lon="-0.123164">
        <ele>949.222</ele>
        <time>2019-08-13T10:43:58Z</time>
      </trkpt>
      <trkpt lat="42.604624" lon="-0.123168">
        <ele>949.4</ele>
        <time>2019-08-13T10:44:07Z</time>
      </trkpt>
      <trkpt lat="42.604648" lon="-0.12311">
        <ele>952.034</ele>
        <time>2019-08-13T10:44:28Z</time>
      </trkpt>
      <trkpt lat="42.604689" lon="-0.123066">
        <ele>949.172</ele>
        <time>2019-08-13T10:44:36Z</time>
      </trkpt>
      <trkpt lat="42.604737" lon="-0.123021">
        <ele>945.982</ele>
        <time>2019-08-13T10:44:50Z</time>
      </trkpt>
      <trkpt lat="42.604765" lon="-0.122972">
        <ele>946.725</ele>
        <time>2019-08-13T10:44:53Z</time>
      </trkpt>
      <trkpt lat="42.60479" lon="-0.122923">
        <ele>946.796</ele>
        <time>2019-08-13T10:44:56Z</time>
      </trkpt>
      <trkpt lat="42.604839" lon="-0.122888">
        <ele>943.75</ele>
        <time>2019-08-13T10:45:01Z</time>
      </trkpt>
      <trkpt lat="42.604859" lon="-0.122874">
        <ele>941.258</ele>
        <time>2019-08-13T10:45:03Z</time>
      </trkpt>
      <trkpt lat="42.604891" lon="-0.122819">
        <ele>943.28</ele>
        <time>2019-08-13T10:45:07Z</time>
      </trkpt>
      <trkpt lat="42.604937" lon="-0.1228">
        <ele>942.612</ele>
        <time>2019-08-13T10:45:12Z</time>
      </trkpt>
      <trkpt lat="42.604984" lon="-0.122793">
        <ele>940.545</ele>
        <time>2019-08-13T10:45:16Z</time>
      </trkpt>
      <trkpt lat="42.60504" lon="-0.122767">
        <ele>942.254</ele>
        <time>2019-08-13T10:45:21Z</time>
      </trkpt>
      <trkpt lat="42.605083" lon="-0.122719">
        <ele>941.773</ele>
        <time>2019-08-13T10:45:25Z</time>
      </trkpt>
      <trkpt lat="42.60513" lon="-0.122704">
        <ele>938.648</ele>
        <time>2019-08-13T10:45:30Z</time>
      </trkpt>
      <trkpt lat="42.605136" lon="-0.12271">
        <ele>939.392</ele>
        <time>2019-08-13T10:45:39Z</time>
      </trkpt>
      <trkpt lat="42.605182" lon="-0.122702">
        <ele>940.463</ele>
        <time>2019-08-13T10:45:46Z</time>
      </trkpt>
      <trkpt lat="42.605221" lon="-0.122664">
        <ele>944.4</ele>
        <time>2019-08-13T10:45:49Z</time>
      </trkpt>
      <trkpt lat="42.605261" lon="-0.12263">
        <ele>944.076</ele>
        <time>2019-08-13T10:45:52Z</time>
      </trkpt>
      <trkpt lat="42.605289" lon="-0.122605">
        <ele>945.782</ele>
        <time>2019-08-13T10:45:54Z</time>
      </trkpt>
      <trkpt lat="42.605343" lon="-0.122575">
        <ele>946.204</ele>
        <time>2019-08-13T10:45:58Z</time>
      </trkpt>
      <trkpt lat="42.605392" lon="-0.122581">
        <ele>946.134</ele>
        <time>2019-08-13T10:46:01Z</time>
      </trkpt>
      <trkpt lat="42.605446" lon="-0.122566">
        <ele>945.695</ele>
        <time>2019-08-13T10:46:05Z</time>
      </trkpt>
      <trkpt lat="42.605479" lon="-0.122558">
        <ele>944.106</ele>
        <time>2019-08-13T10:46:07Z</time>
      </trkpt>
      <trkpt lat="42.605525" lon="-0.122538">
        <ele>944.796</ele>
        <time>2019-08-13T10:46:10Z</time>
      </trkpt>
      <trkpt lat="42.605557" lon="-0.122528">
        <ele>942.657</ele>
        <time>2019-08-13T10:46:13Z</time>
      </trkpt>
      <trkpt lat="42.605605" lon="-0.122503">
        <ele>942.596</ele>
        <time>2019-08-13T10:46:17Z</time>
      </trkpt>
      <trkpt lat="42.605659" lon="-0.122493">
        <ele>939.553</ele>
        <time>2019-08-13T10:46:22Z</time>
      </trkpt>
      <trkpt lat="42.605698" lon="-0.122457">
        <ele>940.247</ele>
        <time>2019-08-13T10:46:25Z</time>
      </trkpt>
      <trkpt lat="42.605717" lon="-0.122439">
        <ele>940.028</ele>
        <time>2019-08-13T10:46:27Z</time>
      </trkpt>
      <trkpt lat="42.605774" lon="-0.122438">
        <ele>938.571</ele>
        <time>2019-08-13T10:46:31Z</time>
      </trkpt>
      <trkpt lat="42.605823" lon="-0.122425">
        <ele>940.666</ele>
        <time>2019-08-13T10:46:35Z</time>
      </trkpt>
      <trkpt lat="42.605858" lon="-0.122419">
        <ele>941.107</ele>
        <time>2019-08-13T10:46:39Z</time>
      </trkpt>
      <trkpt lat="42.605894" lon="-0.12241">
        <ele>944.323</ele>
        <time>2019-08-13T10:46:42Z</time>
      </trkpt>
      <trkpt lat="42.605941" lon="-0.122409">
        <ele>944.284</ele>
        <time>2019-08-13T10:46:46Z</time>
      </trkpt>
      <trkpt lat="42.605992" lon="-0.122394">
        <ele>942.991</ele>
        <time>2019-08-13T10:46:51Z</time>
      </trkpt>
      <trkpt lat="42.606041" lon="-0.122349">
        <ele>943.178</ele>
        <time>2019-08-13T10:46:57Z</time>
      </trkpt>
      <trkpt lat="42.606085" lon="-0.122325">
        <ele>942.798</ele>
        <time>2019-08-13T10:47:00Z</time>
      </trkpt>
      <trkpt lat="42.606131" lon="-0.122285">
        <ele>940.337</ele>
        <time>2019-08-13T10:47:08Z</time>
      </trkpt>
      <trkpt lat="42.606188" lon="-0.122254">
        <ele>939.046</ele>
        <time>2019-08-13T10:47:11Z</time>
      </trkpt>
      <trkpt lat="42.606229" lon="-0.12223">
        <ele>939.55</ele>
        <time>2019-08-13T10:47:14Z</time>
      </trkpt>
      <trkpt lat="42.606271" lon="-0.122208">
        <ele>935.391</ele>
        <time>2019-08-13T10:47:17Z</time>
      </trkpt>
      <trkpt lat="42.606285" lon="-0.122134">
        <ele>939.349</ele>
        <time>2019-08-13T10:47:22Z</time>
      </trkpt>
      <trkpt lat="42.606293" lon="-0.122101">
        <ele>942.177</ele>
        <time>2019-08-13T10:47:24Z</time>
      </trkpt>
      <trkpt lat="42.606325" lon="-0.12204">
        <ele>945.728</ele>
        <time>2019-08-13T10:47:29Z</time>
      </trkpt>
      <trkpt lat="42.606351" lon="-0.121984">
        <ele>946.853</ele>
        <time>2019-08-13T10:47:32Z</time>
      </trkpt>
      <trkpt lat="42.606392" lon="-0.121936">
        <ele>943.859</ele>
        <time>2019-08-13T10:47:36Z</time>
      </trkpt>
      <trkpt lat="42.606434" lon="-0.121906">
        <ele>944.573</ele>
        <time>2019-08-13T10:47:40Z</time>
      </trkpt>
      <trkpt lat="42.606475" lon="-0.121865">
        <ele>944.981</ele>
        <time>2019-08-13T10:47:44Z</time>
      </trkpt>
      <trkpt lat="42.606524" lon="-0.121825">
        <ele>941.072</ele>
        <time>2019-08-13T10:47:48Z</time>
      </trkpt>
      <trkpt lat="42.606567" lon="-0.121803">
        <ele>965.724</ele>
        <time>2019-08-13T10:47:51Z</time>
      </trkpt>
      <trkpt lat="42.606592" lon="-0.12179">
        <ele>954.896</ele>
        <time>2019-08-13T10:47:53Z</time>
      </trkpt>
      <trkpt lat="42.606636" lon="-0.121743">
        <ele>946.99</ele>
        <time>2019-08-13T10:47:58Z</time>
      </trkpt>
      <trkpt lat="42.606682" lon="-0.121709">
        <ele>946.39</ele>
        <time>2019-08-13T10:48:02Z</time>
      </trkpt>
      <trkpt lat="42.606709" lon="-0.121692">
        <ele>944.444</ele>
        <time>2019-08-13T10:48:04Z</time>
      </trkpt>
      <trkpt lat="42.606735" lon="-0.121677">
        <ele>942.518</ele>
        <time>2019-08-13T10:48:06Z</time>
      </trkpt>
      <trkpt lat="42.606779" lon="-0.121634">
        <ele>944.308</ele>
        <time>2019-08-13T10:48:10Z</time>
      </trkpt>
      <trkpt lat="42.606812" lon="-0.121587">
        <ele>947.062</ele>
        <time>2019-08-13T10:48:14Z</time>
      </trkpt>
      <trkpt lat="42.606835" lon="-0.121553">
        <ele>946.856</ele>
        <time>2019-08-13T10:48:17Z</time>
      </trkpt>
      <trkpt lat="42.606886" lon="-0.121516">
        <ele>946.864</ele>
        <time>2019-08-13T10:48:21Z</time>
      </trkpt>
      <trkpt lat="42.606917" lon="-0.121496">
        <ele>946.319</ele>
        <time>2019-08-13T10:48:24Z</time>
      </trkpt>
      <trkpt lat="42.606963" lon="-0.121457">
        <ele>944.159</ele>
        <time>2019-08-13T10:48:29Z</time>
      </trkpt>
      <trkpt lat="42.607005" lon="-0.12143">
        <ele>943.74</ele>
        <time>2019-08-13T10:48:33Z</time>
      </trkpt>
      <trkpt lat="42.607044" lon="-0.1214">
        <ele>946.714</ele>
        <time>2019-08-13T10:48:37Z</time>
      </trkpt>
      <trkpt lat="42.607087" lon="-0.121369">
        <ele>945.704</ele>
        <time>2019-08-13T10:48:41Z</time>
      </trkpt>
      <trkpt lat="42.607121" lon="-0.121321">
        <ele>945.875</ele>
        <time>2019-08-13T10:48:46Z</time>
      </trkpt>
      <trkpt lat="42.607164" lon="-0.121269">
        <ele>946.097</ele>
        <time>2019-08-13T10:48:50Z</time>
      </trkpt>
      <trkpt lat="42.607208" lon="-0.121253">
        <ele>945.131</ele>
        <time>2019-08-13T10:48:54Z</time>
      </trkpt>
      <trkpt lat="42.607258" lon="-0.121242">
        <ele>943.683</ele>
        <time>2019-08-13T10:48:58Z</time>
      </trkpt>
      <trkpt lat="42.607295" lon="-0.121229">
        <ele>944.034</ele>
        <time>2019-08-13T10:49:01Z</time>
      </trkpt>
      <trkpt lat="42.607344" lon="-0.121224">
        <ele>946.695</ele>
        <time>2019-08-13T10:49:06Z</time>
      </trkpt>
      <trkpt lat="42.607391" lon="-0.121201">
        <ele>948.333</ele>
        <time>2019-08-13T10:49:09Z</time>
      </trkpt>
      <trkpt lat="42.607425" lon="-0.121158">
        <ele>945.166</ele>
        <time>2019-08-13T10:49:14Z</time>
      </trkpt>
      <trkpt lat="42.607472" lon="-0.121135">
        <ele>946.417</ele>
        <time>2019-08-13T10:49:18Z</time>
      </trkpt>
      <trkpt lat="42.607531" lon="-0.121125">
        <ele>945.113</ele>
        <time>2019-08-13T10:49:21Z</time>
      </trkpt>
      <trkpt lat="42.607567" lon="-0.121115">
        <ele>945.989</ele>
        <time>2019-08-13T10:49:23Z</time>
      </trkpt>
      <trkpt lat="42.607592" lon="-0.121107">
        <ele>946.436</ele>
        <time>2019-08-13T10:49:25Z</time>
      </trkpt>
      <trkpt lat="42.607632" lon="-0.121072">
        <ele>946.649</ele>
        <time>2019-08-13T10:49:29Z</time>
      </trkpt>
      <trkpt lat="42.607676" lon="-0.121041">
        <ele>947.735</ele>
        <time>2019-08-13T10:49:34Z</time>
      </trkpt>
      <trkpt lat="42.607712" lon="-0.120997">
        <ele>948.565</ele>
        <time>2019-08-13T10:49:37Z</time>
      </trkpt>
      <trkpt lat="42.60775" lon="-0.12093">
        <ele>947.521</ele>
        <time>2019-08-13T10:49:40Z</time>
      </trkpt>
      <trkpt lat="42.607775" lon="-0.120882">
        <ele>947.849</ele>
        <time>2019-08-13T10:49:43Z</time>
      </trkpt>
      <trkpt lat="42.607827" lon="-0.120861">
        <ele>950.011</ele>
        <time>2019-08-13T10:49:48Z</time>
      </trkpt>
      <trkpt lat="42.607868" lon="-0.120829">
        <ele>950.778</ele>
        <time>2019-08-13T10:49:52Z</time>
      </trkpt>
      <trkpt lat="42.607896" lon="-0.120767">
        <ele>951.699</ele>
        <time>2019-08-13T10:49:56Z</time>
      </trkpt>
      <trkpt lat="42.607939" lon="-0.120729">
        <ele>952.547</ele>
        <time>2019-08-13T10:50:01Z</time>
      </trkpt>
      <trkpt lat="42.607986" lon="-0.120693">
        <ele>951.183</ele>
        <time>2019-08-13T10:50:06Z</time>
      </trkpt>
      <trkpt lat="42.608025" lon="-0.120629">
        <ele>950.988</ele>
        <time>2019-08-13T10:50:11Z</time>
      </trkpt>
      <trkpt lat="42.608056" lon="-0.120566">
        <ele>949.636</ele>
        <time>2019-08-13T10:50:14Z</time>
      </trkpt>
      <trkpt lat="42.608088" lon="-0.120517">
        <ele>946.786</ele>
        <time>2019-08-13T10:50:17Z</time>
      </trkpt>
      <trkpt lat="42.60813" lon="-0.120468">
        <ele>945.281</ele>
        <time>2019-08-13T10:50:21Z</time>
      </trkpt>
      <trkpt lat="42.608157" lon="-0.120414">
        <ele>946.648</ele>
        <time>2019-08-13T10:50:25Z</time>
      </trkpt>
      <trkpt lat="42.608176" lon="-0.12038">
        <ele>948.635</ele>
        <time>2019-08-13T10:50:29Z</time>
      </trkpt>
      <trkpt lat="42.608193" lon="-0.120284">
        <ele>951.507</ele>
        <time>2019-08-13T10:50:34Z</time>
      </trkpt>
      <trkpt lat="42.608222" lon="-0.120235">
        <ele>952.498</ele>
        <time>2019-08-13T10:50:38Z</time>
      </trkpt>
      <trkpt lat="42.608264" lon="-0.120187">
        <ele>950.695</ele>
        <time>2019-08-13T10:50:42Z</time>
      </trkpt>
      <trkpt lat="42.608288" lon="-0.12016">
        <ele>950.635</ele>
        <time>2019-08-13T10:50:44Z</time>
      </trkpt>
      <trkpt lat="42.60831" lon="-0.120137">
        <ele>950.894</ele>
        <time>2019-08-13T10:50:46Z</time>
      </trkpt>
      <trkpt lat="42.608363" lon="-0.120104">
        <ele>948.711</ele>
        <time>2019-08-13T10:50:49Z</time>
      </trkpt>
      <trkpt lat="42.608395" lon="-0.120047">
        <ele>948.867</ele>
        <time>2019-08-13T10:50:54Z</time>
      </trkpt>
      <trkpt lat="42.608418" lon="-0.12001">
        <ele>949.733</ele>
        <time>2019-08-13T10:50:59Z</time>
      </trkpt>
      <trkpt lat="42.608458" lon="-0.119979">
        <ele>949.056</ele>
        <time>2019-08-13T10:51:06Z</time>
      </trkpt>
      <trkpt lat="42.608491" lon="-0.119926">
        <ele>950.261</ele>
        <time>2019-08-13T10:51:11Z</time>
      </trkpt>
      <trkpt lat="42.608519" lon="-0.119886">
        <ele>950.445</ele>
        <time>2019-08-13T10:51:15Z</time>
      </trkpt>
      <trkpt lat="42.60854" lon="-0.119858">
        <ele>952.743</ele>
        <time>2019-08-13T10:51:17Z</time>
      </trkpt>
      <trkpt lat="42.608581" lon="-0.119825">
        <ele>953.835</ele>
        <time>2019-08-13T10:51:21Z</time>
      </trkpt>
      <trkpt lat="42.608604" lon="-0.119771">
        <ele>951.981</ele>
        <time>2019-08-13T10:51:24Z</time>
      </trkpt>
      <trkpt lat="42.608649" lon="-0.119725">
        <ele>951.233</ele>
        <time>2019-08-13T10:51:27Z</time>
      </trkpt>
      <trkpt lat="42.608692" lon="-0.119674">
        <ele>948.52</ele>
        <time>2019-08-13T10:51:31Z</time>
      </trkpt>
      <trkpt lat="42.608733" lon="-0.119645">
        <ele>948.171</ele>
        <time>2019-08-13T10:51:35Z</time>
      </trkpt>
      <trkpt lat="42.608787" lon="-0.119613">
        <ele>947.37</ele>
        <time>2019-08-13T10:51:39Z</time>
      </trkpt>
      <trkpt lat="42.608824" lon="-0.119578">
        <ele>947.726</ele>
        <time>2019-08-13T10:51:42Z</time>
      </trkpt>
      <trkpt lat="42.608858" lon="-0.119536">
        <ele>946.651</ele>
        <time>2019-08-13T10:51:46Z</time>
      </trkpt>
      <trkpt lat="42.608906" lon="-0.1195">
        <ele>944.924</ele>
        <time>2019-08-13T10:51:50Z</time>
      </trkpt>
      <trkpt lat="42.608945" lon="-0.119449">
        <ele>945.426</ele>
        <time>2019-08-13T10:51:54Z</time>
      </trkpt>
      <trkpt lat="42.608986" lon="-0.119408">
        <ele>947.633</ele>
        <time>2019-08-13T10:51:57Z</time>
      </trkpt>
      <trkpt lat="42.609024" lon="-0.119352">
        <ele>947.166</ele>
        <time>2019-08-13T10:52:01Z</time>
      </trkpt>
      <trkpt lat="42.60904" lon="-0.119328">
        <ele>948.525</ele>
        <time>2019-08-13T10:52:03Z</time>
      </trkpt>
      <trkpt lat="42.609084" lon="-0.119286">
        <ele>945.736</ele>
        <time>2019-08-13T10:52:08Z</time>
      </trkpt>
      <trkpt lat="42.609122" lon="-0.119254">
        <ele>947.318</ele>
        <time>2019-08-13T10:52:12Z</time>
      </trkpt>
      <trkpt lat="42.609154" lon="-0.11921">
        <ele>947.265</ele>
        <time>2019-08-13T10:52:15Z</time>
      </trkpt>
      <trkpt lat="42.609185" lon="-0.119157">
        <ele>948.742</ele>
        <time>2019-08-13T10:52:19Z</time>
      </trkpt>
      <trkpt lat="42.609218" lon="-0.119119">
        <ele>951.15</ele>
        <time>2019-08-13T10:52:27Z</time>
      </trkpt>
      <trkpt lat="42.609274" lon="-0.1191">
        <ele>953.266</ele>
        <time>2019-08-13T10:52:37Z</time>
      </trkpt>
      <trkpt lat="42.609328" lon="-0.119062">
        <ele>950.618</ele>
        <time>2019-08-13T10:52:40Z</time>
      </trkpt>
      <trkpt lat="42.609374" lon="-0.119018">
        <ele>947.851</ele>
        <time>2019-08-13T10:52:43Z</time>
      </trkpt>
      <trkpt lat="42.60942" lon="-0.118998">
        <ele>948.507</ele>
        <time>2019-08-13T10:52:46Z</time>
      </trkpt>
      <trkpt lat="42.609454" lon="-0.118982">
        <ele>950.31</ele>
        <time>2019-08-13T10:52:48Z</time>
      </trkpt>
      <trkpt lat="42.609504" lon="-0.118943">
        <ele>950.139</ele>
        <time>2019-08-13T10:52:52Z</time>
      </trkpt>
      <trkpt lat="42.609558" lon="-0.118931">
        <ele>949.976</ele>
        <time>2019-08-13T10:52:56Z</time>
      </trkpt>
      <trkpt lat="42.609604" lon="-0.11891">
        <ele>950.212</ele>
        <time>2019-08-13T10:52:59Z</time>
      </trkpt>
      <trkpt lat="42.609656" lon="-0.118912">
        <ele>950.197</ele>
        <time>2019-08-13T10:53:04Z</time>
      </trkpt>
      <trkpt lat="42.609699" lon="-0.118875">
        <ele>952.156</ele>
        <time>2019-08-13T10:53:07Z</time>
      </trkpt>
      <trkpt lat="42.609747" lon="-0.118851">
        <ele>953.824</ele>
        <time>2019-08-13T10:53:10Z</time>
      </trkpt>
      <trkpt lat="42.609801" lon="-0.118833">
        <ele>953.694</ele>
        <time>2019-08-13T10:53:14Z</time>
      </trkpt>
      <trkpt lat="42.609832" lon="-0.118776">
        <ele>953.381</ele>
        <time>2019-08-13T10:53:19Z</time>
      </trkpt>
      <trkpt lat="42.60988" lon="-0.118755">
        <ele>953.268</ele>
        <time>2019-08-13T10:53:22Z</time>
      </trkpt>
      <trkpt lat="42.609921" lon="-0.118723">
        <ele>954.439</ele>
        <time>2019-08-13T10:53:25Z</time>
      </trkpt>
      <trkpt lat="42.609965" lon="-0.118687">
        <ele>953.4</ele>
        <time>2019-08-13T10:53:29Z</time>
      </trkpt>
      <trkpt lat="42.610015" lon="-0.11867">
        <ele>953.856</ele>
        <time>2019-08-13T10:53:33Z</time>
      </trkpt>
      <trkpt lat="42.610055" lon="-0.11864">
        <ele>952.77</ele>
        <time>2019-08-13T10:53:36Z</time>
      </trkpt>
      <trkpt lat="42.610103" lon="-0.118626">
        <ele>951.607</ele>
        <time>2019-08-13T10:53:40Z</time>
      </trkpt>
      <trkpt lat="42.610145" lon="-0.118599">
        <ele>953.205</ele>
        <time>2019-08-13T10:53:44Z</time>
      </trkpt>
      <trkpt lat="42.610192" lon="-0.118556">
        <ele>953.497</ele>
        <time>2019-08-13T10:53:48Z</time>
      </trkpt>
      <trkpt lat="42.610224" lon="-0.118532">
        <ele>951.83</ele>
        <time>2019-08-13T10:53:51Z</time>
      </trkpt>
      <trkpt lat="42.610253" lon="-0.118468">
        <ele>952.306</ele>
        <time>2019-08-13T10:53:55Z</time>
      </trkpt>
      <trkpt lat="42.610263" lon="-0.118416">
        <ele>951.243</ele>
        <time>2019-08-13T10:54:04Z</time>
      </trkpt>
      <trkpt lat="42.610317" lon="-0.11842">
        <ele>959.857</ele>
        <time>2019-08-13T10:55:02Z</time>
      </trkpt>
      <trkpt lat="42.610368" lon="-0.118415">
        <ele>957.951</ele>
        <time>2019-08-13T10:55:05Z</time>
      </trkpt>
      <trkpt lat="42.610412" lon="-0.118392">
        <ele>960.24</ele>
        <time>2019-08-13T10:55:09Z</time>
      </trkpt>
      <trkpt lat="42.610476" lon="-0.118382">
        <ele>960.147</ele>
        <time>2019-08-13T10:55:14Z</time>
      </trkpt>
      <trkpt lat="42.610525" lon="-0.118366">
        <ele>959.003</ele>
        <time>2019-08-13T10:55:17Z</time>
      </trkpt>
      <trkpt lat="42.610556" lon="-0.118352">
        <ele>958.695</ele>
        <time>2019-08-13T10:55:19Z</time>
      </trkpt>
      <trkpt lat="42.610607" lon="-0.118354">
        <ele>961.22</ele>
        <time>2019-08-13T10:55:24Z</time>
      </trkpt>
      <trkpt lat="42.610656" lon="-0.118348">
        <ele>962.311</ele>
        <time>2019-08-13T10:55:28Z</time>
      </trkpt>
      <trkpt lat="42.610701" lon="-0.118366">
        <ele>962.419</ele>
        <time>2019-08-13T10:55:35Z</time>
      </trkpt>
      <trkpt lat="42.61074" lon="-0.118387">
        <ele>962.166</ele>
        <time>2019-08-13T10:55:39Z</time>
      </trkpt>
      <trkpt lat="42.610809" lon="-0.118385">
        <ele>964.129</ele>
        <time>2019-08-13T10:55:44Z</time>
      </trkpt>
      <trkpt lat="42.610842" lon="-0.118381">
        <ele>964.729</ele>
        <time>2019-08-13T10:55:46Z</time>
      </trkpt>
      <trkpt lat="42.610897" lon="-0.11838">
        <ele>961.402</ele>
        <time>2019-08-13T10:55:50Z</time>
      </trkpt>
      <trkpt lat="42.610971" lon="-0.118352">
        <ele>961.721</ele>
        <time>2019-08-13T10:55:55Z</time>
      </trkpt>
      <trkpt lat="42.611" lon="-0.118344">
        <ele>962.323</ele>
        <time>2019-08-13T10:55:57Z</time>
      </trkpt>
      <trkpt lat="42.611048" lon="-0.118352">
        <ele>959.263</ele>
        <time>2019-08-13T10:56:00Z</time>
      </trkpt>
      <trkpt lat="42.611142" lon="-0.118333">
        <ele>958.76</ele>
        <time>2019-08-13T10:56:07Z</time>
      </trkpt>
      <trkpt lat="42.611194" lon="-0.118312">
        <ele>961.446</ele>
        <time>2019-08-13T10:56:11Z</time>
      </trkpt>
      <trkpt lat="42.611239" lon="-0.118328">
        <ele>958.914</ele>
        <time>2019-08-13T10:56:15Z</time>
      </trkpt>
      <trkpt lat="42.61128" lon="-0.118286">
        <ele>960.538</ele>
        <time>2019-08-13T10:56:21Z</time>
      </trkpt>
      <trkpt lat="42.611336" lon="-0.118279">
        <ele>962.156</ele>
        <time>2019-08-13T10:56:26Z</time>
      </trkpt>
      <trkpt lat="42.611375" lon="-0.11827">
        <ele>963.188</ele>
        <time>2019-08-13T10:56:28Z</time>
      </trkpt>
      <trkpt lat="42.611436" lon="-0.11825">
        <ele>966.108</ele>
        <time>2019-08-13T10:56:32Z</time>
      </trkpt>
      <trkpt lat="42.611459" lon="-0.118243">
        <ele>966.473</ele>
        <time>2019-08-13T10:56:33Z</time>
      </trkpt>
      <trkpt lat="42.611482" lon="-0.118236">
        <ele>965.641</ele>
        <time>2019-08-13T10:56:34Z</time>
      </trkpt>
      <trkpt lat="42.611552" lon="-0.11823">
        <ele>964.078</ele>
        <time>2019-08-13T10:56:37Z</time>
      </trkpt>
      <trkpt lat="42.611589" lon="-0.118229">
        <ele>964.201</ele>
        <time>2019-08-13T10:56:39Z</time>
      </trkpt>
      <trkpt lat="42.611615" lon="-0.11823">
        <ele>965.269</ele>
        <time>2019-08-13T10:56:42Z</time>
      </trkpt>
      <trkpt lat="42.611655" lon="-0.118188">
        <ele>965.276</ele>
        <time>2019-08-13T10:56:46Z</time>
      </trkpt>
      <trkpt lat="42.611701" lon="-0.118205">
        <ele>964.286</ele>
        <time>2019-08-13T10:56:50Z</time>
      </trkpt>
      <trkpt lat="42.611759" lon="-0.118191">
        <ele>964.047</ele>
        <time>2019-08-13T10:56:54Z</time>
      </trkpt>
      <trkpt lat="42.611815" lon="-0.118207">
        <ele>964.85</ele>
        <time>2019-08-13T10:56:57Z</time>
      </trkpt>
      <trkpt lat="42.611846" lon="-0.118216">
        <ele>962.509</ele>
        <time>2019-08-13T10:57:00Z</time>
      </trkpt>
      <trkpt lat="42.611896" lon="-0.118173">
        <ele>963.81</ele>
        <time>2019-08-13T10:57:06Z</time>
      </trkpt>
      <trkpt lat="42.611943" lon="-0.118164">
        <ele>960.048</ele>
        <time>2019-08-13T10:57:10Z</time>
      </trkpt>
      <trkpt lat="42.611966" lon="-0.118159">
        <ele>960.939</ele>
        <time>2019-08-13T10:57:12Z</time>
      </trkpt>
      <trkpt lat="42.612013" lon="-0.11817">
        <ele>959.394</ele>
        <time>2019-08-13T10:57:17Z</time>
      </trkpt>
      <trkpt lat="42.612084" lon="-0.118182">
        <ele>957.681</ele>
        <time>2019-08-13T10:57:22Z</time>
      </trkpt>
      <trkpt lat="42.612137" lon="-0.11816">
        <ele>959.185</ele>
        <time>2019-08-13T10:57:27Z</time>
      </trkpt>
      <trkpt lat="42.612186" lon="-0.118158">
        <ele>960.327</ele>
        <time>2019-08-13T10:57:31Z</time>
      </trkpt>
      <trkpt lat="42.612242" lon="-0.118171">
        <ele>962.532</ele>
        <time>2019-08-13T10:57:37Z</time>
      </trkpt>
      <trkpt lat="42.612287" lon="-0.118162">
        <ele>964.467</ele>
        <time>2019-08-13T10:57:43Z</time>
      </trkpt>
      <trkpt lat="42.612336" lon="-0.118176">
        <ele>974.132</ele>
        <time>2019-08-13T10:58:54Z</time>
      </trkpt>
      <trkpt lat="42.612387" lon="-0.118187">
        <ele>975.125</ele>
        <time>2019-08-13T10:58:59Z</time>
      </trkpt>
      <trkpt lat="42.612416" lon="-0.118195">
        <ele>974.694</ele>
        <time>2019-08-13T10:59:03Z</time>
      </trkpt>
      <trkpt lat="42.612462" lon="-0.118159">
        <ele>976.092</ele>
        <time>2019-08-13T10:59:10Z</time>
      </trkpt>
      <trkpt lat="42.612507" lon="-0.118174">
        <ele>978.001</ele>
        <time>2019-08-13T10:59:15Z</time>
      </trkpt>
      <trkpt lat="42.612553" lon="-0.118145">
        <ele>980.386</ele>
        <time>2019-08-13T10:59:20Z</time>
      </trkpt>
      <trkpt lat="42.612612" lon="-0.11812">
        <ele>979.488</ele>
        <time>2019-08-13T10:59:26Z</time>
      </trkpt>
      <trkpt lat="42.612649" lon="-0.118155">
        <ele>978.465</ele>
        <time>2019-08-13T10:59:30Z</time>
      </trkpt>
      <trkpt lat="42.612703" lon="-0.118149">
        <ele>976.43</ele>
        <time>2019-08-13T10:59:34Z</time>
      </trkpt>
      <trkpt lat="42.612751" lon="-0.118162">
        <ele>977.36</ele>
        <time>2019-08-13T10:59:39Z</time>
      </trkpt>
      <trkpt lat="42.612797" lon="-0.118131">
        <ele>976.382</ele>
        <time>2019-08-13T10:59:43Z</time>
      </trkpt>
      <trkpt lat="42.612827" lon="-0.118063">
        <ele>979.042</ele>
        <time>2019-08-13T10:59:46Z</time>
      </trkpt>
      <trkpt lat="42.612846" lon="-0.118001">
        <ele>979.781</ele>
        <time>2019-08-13T10:59:50Z</time>
      </trkpt>
      <trkpt lat="42.612893" lon="-0.11796">
        <ele>980.839</ele>
        <time>2019-08-13T10:59:55Z</time>
      </trkpt>
      <trkpt lat="42.612939" lon="-0.117943">
        <ele>979.028</ele>
        <time>2019-08-13T11:00:01Z</time>
      </trkpt>
      <trkpt lat="42.61298" lon="-0.117901">
        <ele>977.401</ele>
        <time>2019-08-13T11:00:09Z</time>
      </trkpt>
      <trkpt lat="42.613029" lon="-0.117918">
        <ele>974.428</ele>
        <time>2019-08-13T11:00:15Z</time>
      </trkpt>
      <trkpt lat="42.613073" lon="-0.117903">
        <ele>970.28</ele>
        <time>2019-08-13T11:00:20Z</time>
      </trkpt>
      <trkpt lat="42.613096" lon="-0.117894">
        <ele>972.868</ele>
        <time>2019-08-13T11:00:24Z</time>
      </trkpt>
      <trkpt lat="42.61314" lon="-0.117851">
        <ele>975.957</ele>
        <time>2019-08-13T11:00:28Z</time>
      </trkpt>
      <trkpt lat="42.613186" lon="-0.117838">
        <ele>976.175</ele>
        <time>2019-08-13T11:00:31Z</time>
      </trkpt>
      <trkpt lat="42.613226" lon="-0.117801">
        <ele>976.333</ele>
        <time>2019-08-13T11:00:34Z</time>
      </trkpt>
      <trkpt lat="42.613273" lon="-0.11779">
        <ele>975.122</ele>
        <time>2019-08-13T11:00:38Z</time>
      </trkpt>
      <trkpt lat="42.613315" lon="-0.117751">
        <ele>976.117</ele>
        <time>2019-08-13T11:00:44Z</time>
      </trkpt>
      <trkpt lat="42.613342" lon="-0.11768">
        <ele>973.959</ele>
        <time>2019-08-13T11:00:51Z</time>
      </trkpt>
      <trkpt lat="42.613366" lon="-0.117624">
        <ele>975.662</ele>
        <time>2019-08-13T11:00:54Z</time>
      </trkpt>
      <trkpt lat="42.613385" lon="-0.117588">
        <ele>978.58</ele>
        <time>2019-08-13T11:00:57Z</time>
      </trkpt>
      <trkpt lat="42.613424" lon="-0.117552">
        <ele>978.396</ele>
        <time>2019-08-13T11:01:01Z</time>
      </trkpt>
      <trkpt lat="42.613427" lon="-0.117488">
        <ele>982.871</ele>
        <time>2019-08-13T11:01:07Z</time>
      </trkpt>
      <trkpt lat="42.61348" lon="-0.117444">
        <ele>984.551</ele>
        <time>2019-08-13T11:01:13Z</time>
      </trkpt>
      <trkpt lat="42.613521" lon="-0.117404">
        <ele>984.819</ele>
        <time>2019-08-13T11:01:16Z</time>
      </trkpt>
      <trkpt lat="42.61356" lon="-0.117371">
        <ele>986.168</ele>
        <time>2019-08-13T11:01:19Z</time>
      </trkpt>
      <trkpt lat="42.613579" lon="-0.117353">
        <ele>987.888</ele>
        <time>2019-08-13T11:01:21Z</time>
      </trkpt>
      <trkpt lat="42.613608" lon="-0.117328">
        <ele>989.666</ele>
        <time>2019-08-13T11:01:23Z</time>
      </trkpt>
      <trkpt lat="42.613636" lon="-0.117277">
        <ele>989.226</ele>
        <time>2019-08-13T11:01:26Z</time>
      </trkpt>
      <trkpt lat="42.613648" lon="-0.11725">
        <ele>990.595</ele>
        <time>2019-08-13T11:01:28Z</time>
      </trkpt>
      <trkpt lat="42.613692" lon="-0.1172">
        <ele>990.318</ele>
        <time>2019-08-13T11:01:32Z</time>
      </trkpt>
      <trkpt lat="42.613738" lon="-0.117157">
        <ele>991.237</ele>
        <time>2019-08-13T11:01:35Z</time>
      </trkpt>
      <trkpt lat="42.613769" lon="-0.117127">
        <ele>991.147</ele>
        <time>2019-08-13T11:01:42Z</time>
      </trkpt>
      <trkpt lat="42.613789" lon="-0.117109">
        <ele>993.448</ele>
        <time>2019-08-13T11:01:45Z</time>
      </trkpt>
      <trkpt lat="42.613823" lon="-0.117068">
        <ele>992.489</ele>
        <time>2019-08-13T11:01:49Z</time>
      </trkpt>
      <trkpt lat="42.613836" lon="-0.117004">
        <ele>994.14</ele>
        <time>2019-08-13T11:01:53Z</time>
      </trkpt>
      <trkpt lat="42.613866" lon="-0.116949">
        <ele>995.153</ele>
        <time>2019-08-13T11:01:57Z</time>
      </trkpt>
      <trkpt lat="42.61388" lon="-0.116923">
        <ele>995.011</ele>
        <time>2019-08-13T11:01:59Z</time>
      </trkpt>
      <trkpt lat="42.613902" lon="-0.116861">
        <ele>996.843</ele>
        <time>2019-08-13T11:02:04Z</time>
      </trkpt>
      <trkpt lat="42.61394" lon="-0.116818">
        <ele>996.41</ele>
        <time>2019-08-13T11:02:10Z</time>
      </trkpt>
      <trkpt lat="42.613965" lon="-0.116788">
        <ele>993.555</ele>
        <time>2019-08-13T11:02:13Z</time>
      </trkpt>
      <trkpt lat="42.614" lon="-0.116715">
        <ele>995.279</ele>
        <time>2019-08-13T11:02:19Z</time>
      </trkpt>
      <trkpt lat="42.614022" lon="-0.116667">
        <ele>994.79</ele>
        <time>2019-08-13T11:02:23Z</time>
      </trkpt>
      <trkpt lat="42.614078" lon="-0.116636">
        <ele>995.746</ele>
        <time>2019-08-13T11:02:28Z</time>
      </trkpt>
      <trkpt lat="42.614105" lon="-0.116586">
        <ele>996.297</ele>
        <time>2019-08-13T11:02:32Z</time>
      </trkpt>
      <trkpt lat="42.614121" lon="-0.11655">
        <ele>994.539</ele>
        <time>2019-08-13T11:02:34Z</time>
      </trkpt>
      <trkpt lat="42.614167" lon="-0.116514">
        <ele>994.792</ele>
        <time>2019-08-13T11:02:41Z</time>
      </trkpt>
      <trkpt lat="42.61419" lon="-0.116495">
        <ele>994.72</ele>
        <time>2019-08-13T11:02:43Z</time>
      </trkpt>
      <trkpt lat="42.614233" lon="-0.116465">
        <ele>991.704</ele>
        <time>2019-08-13T11:02:47Z</time>
      </trkpt>
      <trkpt lat="42.614272" lon="-0.116434">
        <ele>992.897</ele>
        <time>2019-08-13T11:02:51Z</time>
      </trkpt>
      <trkpt lat="42.614294" lon="-0.116363">
        <ele>996.869</ele>
        <time>2019-08-13T11:02:56Z</time>
      </trkpt>
      <trkpt lat="42.614332" lon="-0.116325">
        <ele>998.035</ele>
        <time>2019-08-13T11:03:00Z</time>
      </trkpt>
      <trkpt lat="42.614361" lon="-0.1163">
        <ele>998.533</ele>
        <time>2019-08-13T11:03:04Z</time>
      </trkpt>
      <trkpt lat="42.614408" lon="-0.116279">
        <ele>999.126</ele>
        <time>2019-08-13T11:03:08Z</time>
      </trkpt>
      <trkpt lat="42.614462" lon="-0.116261">
        <ele>1002.06</ele>
        <time>2019-08-13T11:03:12Z</time>
      </trkpt>
      <trkpt lat="42.614497" lon="-0.116249">
        <ele>1001.74</ele>
        <time>2019-08-13T11:03:15Z</time>
      </trkpt>
      <trkpt lat="42.614534" lon="-0.116231">
        <ele>1001.41</ele>
        <time>2019-08-13T11:03:19Z</time>
      </trkpt>
      <trkpt lat="42.614579" lon="-0.11624">
        <ele>1002.79</ele>
        <time>2019-08-13T11:03:23Z</time>
      </trkpt>
      <trkpt lat="42.614628" lon="-0.116204">
        <ele>1001.22</ele>
        <time>2019-08-13T11:03:28Z</time>
      </trkpt>
      <trkpt lat="42.614655" lon="-0.116185">
        <ele>1001.73</ele>
        <time>2019-08-13T11:03:31Z</time>
      </trkpt>
      <trkpt lat="42.614714" lon="-0.116151">
        <ele>1001.83</ele>
        <time>2019-08-13T11:03:37Z</time>
      </trkpt>
      <trkpt lat="42.614745" lon="-0.116134">
        <ele>1000.26</ele>
        <time>2019-08-13T11:03:40Z</time>
      </trkpt>
      <trkpt lat="42.614773" lon="-0.116117">
        <ele>1003.12</ele>
        <time>2019-08-13T11:03:43Z</time>
      </trkpt>
      <trkpt lat="42.614815" lon="-0.116076">
        <ele>1006.73</ele>
        <time>2019-08-13T11:03:48Z</time>
      </trkpt>
      <trkpt lat="42.614836" lon="-0.116061">
        <ele>1007.61</ele>
        <time>2019-08-13T11:03:57Z</time>
      </trkpt>
      <trkpt lat="42.614889" lon="-0.116074">
        <ele>998.619</ele>
        <time>2019-08-13T11:04:05Z</time>
      </trkpt>
      <trkpt lat="42.61492" lon="-0.116082">
        <ele>1001.8</ele>
        <time>2019-08-13T11:04:07Z</time>
      </trkpt>
      <trkpt lat="42.61497" lon="-0.116104">
        <ele>1005.01</ele>
        <time>2019-08-13T11:04:11Z</time>
      </trkpt>
      <trkpt lat="42.615018" lon="-0.116131">
        <ele>1003.45</ele>
        <time>2019-08-13T11:04:15Z</time>
      </trkpt>
      <trkpt lat="42.615072" lon="-0.116132">
        <ele>1005.58</ele>
        <time>2019-08-13T11:04:19Z</time>
      </trkpt>
      <trkpt lat="42.615144" lon="-0.116127">
        <ele>1007.14</ele>
        <time>2019-08-13T11:04:23Z</time>
      </trkpt>
      <trkpt lat="42.615191" lon="-0.116152">
        <ele>1009.17</ele>
        <time>2019-08-13T11:04:30Z</time>
      </trkpt>
      <trkpt lat="42.61524" lon="-0.116169">
        <ele>1009.35</ele>
        <time>2019-08-13T11:04:37Z</time>
      </trkpt>
      <trkpt lat="42.615294" lon="-0.116196">
        <ele>1010.93</ele>
        <time>2019-08-13T11:04:40Z</time>
      </trkpt>
      <trkpt lat="42.615342" lon="-0.11618">
        <ele>1012.27</ele>
        <time>2019-08-13T11:04:43Z</time>
      </trkpt>
      <trkpt lat="42.615383" lon="-0.116144">
        <ele>1014.01</ele>
        <time>2019-08-13T11:04:46Z</time>
      </trkpt>
      <trkpt lat="42.615465" lon="-0.116116">
        <ele>1013.71</ele>
        <time>2019-08-13T11:04:50Z</time>
      </trkpt>
      <trkpt lat="42.615505" lon="-0.116105">
        <ele>1014.18</ele>
        <time>2019-08-13T11:04:52Z</time>
      </trkpt>
      <trkpt lat="42.615548" lon="-0.116091">
        <ele>1013.61</ele>
        <time>2019-08-13T11:04:56Z</time>
      </trkpt>
      <trkpt lat="42.61559" lon="-0.116114">
        <ele>1013.47</ele>
        <time>2019-08-13T11:04:58Z</time>
      </trkpt>
      <trkpt lat="42.615656" lon="-0.116109">
        <ele>1013.71</ele>
        <time>2019-08-13T11:05:02Z</time>
      </trkpt>
      <trkpt lat="42.615694" lon="-0.116104">
        <ele>1006.45</ele>
        <time>2019-08-13T11:05:09Z</time>
      </trkpt>
      <trkpt lat="42.615749" lon="-0.116138">
        <ele>1005.13</ele>
        <time>2019-08-13T11:05:13Z</time>
      </trkpt>
      <trkpt lat="42.615801" lon="-0.116154">
        <ele>1004.79</ele>
        <time>2019-08-13T11:05:17Z</time>
      </trkpt>
      <trkpt lat="42.615857" lon="-0.116157">
        <ele>1004.99</ele>
        <time>2019-08-13T11:05:20Z</time>
      </trkpt>
      <trkpt lat="42.615888" lon="-0.116159">
        <ele>1004.5</ele>
        <time>2019-08-13T11:05:22Z</time>
      </trkpt>
      <trkpt lat="42.615941" lon="-0.116176">
        <ele>1004.15</ele>
        <time>2019-08-13T11:05:26Z</time>
      </trkpt>
      <trkpt lat="42.615988" lon="-0.1162">
        <ele>1004.15</ele>
        <time>2019-08-13T11:05:28Z</time>
      </trkpt>
      <trkpt lat="42.616028" lon="-0.116223">
        <ele>1005.14</ele>
        <time>2019-08-13T11:05:31Z</time>
      </trkpt>
      <trkpt lat="42.616071" lon="-0.116189">
        <ele>1003.17</ele>
        <time>2019-08-13T11:05:36Z</time>
      </trkpt>
      <trkpt lat="42.616128" lon="-0.116161">
        <ele>1001.69</ele>
        <time>2019-08-13T11:05:41Z</time>
      </trkpt>
      <trkpt lat="42.616175" lon="-0.116109">
        <ele>1001.42</ele>
        <time>2019-08-13T11:05:44Z</time>
      </trkpt>
      <trkpt lat="42.616217" lon="-0.116056">
        <ele>1001.34</ele>
        <time>2019-08-13T11:05:47Z</time>
      </trkpt>
      <trkpt lat="42.616245" lon="-0.116022">
        <ele>1001.49</ele>
        <time>2019-08-13T11:05:49Z</time>
      </trkpt>
      <trkpt lat="42.616277" lon="-0.115969">
        <ele>1007.25</ele>
        <time>2019-08-13T11:05:52Z</time>
      </trkpt>
      <trkpt lat="42.616297" lon="-0.115912">
        <ele>1007.03</ele>
        <time>2019-08-13T11:05:55Z</time>
      </trkpt>
      <trkpt lat="42.616333" lon="-0.115855">
        <ele>1006.49</ele>
        <time>2019-08-13T11:05:57Z</time>
      </trkpt>
      <trkpt lat="42.616371" lon="-0.115812">
        <ele>1006.82</ele>
        <time>2019-08-13T11:06:00Z</time>
      </trkpt>
      <trkpt lat="42.616414" lon="-0.115773">
        <ele>1007.5</ele>
        <time>2019-08-13T11:06:02Z</time>
      </trkpt>
      <trkpt lat="42.616481" lon="-0.115755">
        <ele>1005.24</ele>
        <time>2019-08-13T11:06:04Z</time>
      </trkpt>
      <trkpt lat="42.616481" lon="-0.115755">
        <ele>1005.24</ele>
        <time>2019-08-13T11:06:09Z</time>
      </trkpt>
      <trkpt lat="42.616481" lon="-0.115755">
        <ele>1005.24</ele>
        <time>2019-08-13T11:06:11Z</time>
      </trkpt>
      <trkpt lat="42.616521" lon="-0.115803">
        <ele>1008.32</ele>
        <time>2019-08-13T11:06:13Z</time>
      </trkpt>
      <trkpt lat="42.61657" lon="-0.115789">
        <ele>1008.73</ele>
        <time>2019-08-13T11:06:19Z</time>
      </trkpt>
      <trkpt lat="42.616612" lon="-0.115778">
        <ele>1006.15</ele>
        <time>2019-08-13T11:06:23Z</time>
      </trkpt>
      <trkpt lat="42.61667" lon="-0.115754">
        <ele>1004.88</ele>
        <time>2019-08-13T11:06:26Z</time>
      </trkpt>
      <trkpt lat="42.616703" lon="-0.1157">
        <ele>1006.13</ele>
        <time>2019-08-13T11:06:29Z</time>
      </trkpt>
      <trkpt lat="42.616722" lon="-0.115671">
        <ele>1005.27</ele>
        <time>2019-08-13T11:06:31Z</time>
      </trkpt>
      <trkpt lat="42.616744" lon="-0.115618">
        <ele>1007.51</ele>
        <time>2019-08-13T11:06:40Z</time>
      </trkpt>
      <trkpt lat="42.616791" lon="-0.115611">
        <ele>1008.54</ele>
        <time>2019-08-13T11:06:47Z</time>
      </trkpt>
      <trkpt lat="42.616839" lon="-0.115612">
        <ele>1009.82</ele>
        <time>2019-08-13T11:06:51Z</time>
      </trkpt>
      <trkpt lat="42.61689" lon="-0.115591">
        <ele>1008.53</ele>
        <time>2019-08-13T11:06:54Z</time>
      </trkpt>
      <trkpt lat="42.616957" lon="-0.115533">
        <ele>1008.02</ele>
        <time>2019-08-13T11:06:58Z</time>
      </trkpt>
      <trkpt lat="42.617037" lon="-0.115505">
        <ele>1009.41</ele>
        <time>2019-08-13T11:07:01Z</time>
      </trkpt>
      <trkpt lat="42.617063" lon="-0.115497">
        <ele>1009.68</ele>
        <time>2019-08-13T11:07:02Z</time>
      </trkpt>
      <trkpt lat="42.617097" lon="-0.115486">
        <ele>1007.99</ele>
        <time>2019-08-13T11:07:03Z</time>
      </trkpt>
      <trkpt lat="42.617163" lon="-0.115471">
        <ele>1006.57</ele>
        <time>2019-08-13T11:07:05Z</time>
      </trkpt>
      <trkpt lat="42.617191" lon="-0.115466">
        <ele>1006.2</ele>
        <time>2019-08-13T11:07:06Z</time>
      </trkpt>
      <trkpt lat="42.61724" lon="-0.115437">
        <ele>1004.3</ele>
        <time>2019-08-13T11:07:08Z</time>
      </trkpt>
      <trkpt lat="42.617269" lon="-0.115421">
        <ele>1005.37</ele>
        <time>2019-08-13T11:07:10Z</time>
      </trkpt>
      <trkpt lat="42.617299" lon="-0.115373">
        <ele>1004.3</ele>
        <time>2019-08-13T11:07:14Z</time>
      </trkpt>
      <trkpt lat="42.617342" lon="-0.115342">
        <ele>1002.02</ele>
        <time>2019-08-13T11:07:22Z</time>
      </trkpt>
      <trkpt lat="42.617375" lon="-0.115299">
        <ele>1002.64</ele>
        <time>2019-08-13T11:07:25Z</time>
      </trkpt>
      <trkpt lat="42.617398" lon="-0.115263">
        <ele>1001.69</ele>
        <time>2019-08-13T11:07:27Z</time>
      </trkpt>
      <trkpt lat="42.617422" lon="-0.11521">
        <ele>1004.79</ele>
        <time>2019-08-13T11:07:30Z</time>
      </trkpt>
      <trkpt lat="42.617437" lon="-0.115172">
        <ele>1004.24</ele>
        <time>2019-08-13T11:07:32Z</time>
      </trkpt>
      <trkpt lat="42.617472" lon="-0.115121">
        <ele>1001.74</ele>
        <time>2019-08-13T11:07:35Z</time>
      </trkpt>
      <trkpt lat="42.617485" lon="-0.115058">
        <ele>1003.9</ele>
        <time>2019-08-13T11:07:39Z</time>
      </trkpt>
      <trkpt lat="42.617521" lon="-0.115018">
        <ele>1005.34</ele>
        <time>2019-08-13T11:07:43Z</time>
      </trkpt>
      <trkpt lat="42.617571" lon="-0.115004">
        <ele>1006.45</ele>
        <time>2019-08-13T11:07:46Z</time>
      </trkpt>
      <trkpt lat="42.617624" lon="-0.115">
        <ele>1005.94</ele>
        <time>2019-08-13T11:07:49Z</time>
      </trkpt>
      <trkpt lat="42.617665" lon="-0.114993">
        <ele>1005.12</ele>
        <time>2019-08-13T11:07:52Z</time>
      </trkpt>
      <trkpt lat="42.617708" lon="-0.114976">
        <ele>1004.27</ele>
        <time>2019-08-13T11:07:55Z</time>
      </trkpt>
      <trkpt lat="42.617753" lon="-0.114976">
        <ele>1003.04</ele>
        <time>2019-08-13T11:08:00Z</time>
      </trkpt>
      <trkpt lat="42.617793" lon="-0.114972">
        <ele>1000.21</ele>
        <time>2019-08-13T11:08:05Z</time>
      </trkpt>
      <trkpt lat="42.617838" lon="-0.11497">
        <ele>997.459</ele>
        <time>2019-08-13T11:08:08Z</time>
      </trkpt>
      <trkpt lat="42.61787" lon="-0.114967">
        <ele>997.04</ele>
        <time>2019-08-13T11:08:10Z</time>
      </trkpt>
      <trkpt lat="42.617916" lon="-0.114966">
        <ele>996.104</ele>
        <time>2019-08-13T11:08:13Z</time>
      </trkpt>
      <trkpt lat="42.617916" lon="-0.114966">
        <ele>996.104</ele>
        <time>2019-08-13T11:08:18Z</time>
      </trkpt>
      <trkpt lat="42.617961" lon="-0.114975">
        <ele>995.449</ele>
        <time>2019-08-13T11:08:19Z</time>
      </trkpt>
      <trkpt lat="42.618005" lon="-0.114947">
        <ele>994.151</ele>
        <time>2019-08-13T11:08:22Z</time>
      </trkpt>
      <trkpt lat="42.618054" lon="-0.114939">
        <ele>993.624</ele>
        <time>2019-08-13T11:08:25Z</time>
      </trkpt>
      <trkpt lat="42.618114" lon="-0.114943">
        <ele>993.867</ele>
        <time>2019-08-13T11:08:29Z</time>
      </trkpt>
      <trkpt lat="42.618161" lon="-0.11494">
        <ele>992.661</ele>
        <time>2019-08-13T11:08:32Z</time>
      </trkpt>
      <trkpt lat="42.618209" lon="-0.114947">
        <ele>992.436</ele>
        <time>2019-08-13T11:08:35Z</time>
      </trkpt>
      <trkpt lat="42.618237" lon="-0.114949">
        <ele>993.876</ele>
        <time>2019-08-13T11:08:37Z</time>
      </trkpt>
      <trkpt lat="42.618286" lon="-0.11493">
        <ele>994.86</ele>
        <time>2019-08-13T11:08:40Z</time>
      </trkpt>
      <trkpt lat="42.618323" lon="-0.114912">
        <ele>995.061</ele>
        <time>2019-08-13T11:08:42Z</time>
      </trkpt>
      <trkpt lat="42.618351" lon="-0.114901">
        <ele>994.848</ele>
        <time>2019-08-13T11:08:44Z</time>
      </trkpt>
      <trkpt lat="42.6184" lon="-0.114914">
        <ele>995.513</ele>
        <time>2019-08-13T11:08:48Z</time>
      </trkpt>
      <trkpt lat="42.618445" lon="-0.114919">
        <ele>993.507</ele>
        <time>2019-08-13T11:08:52Z</time>
      </trkpt>
      <trkpt lat="42.618495" lon="-0.114948">
        <ele>992.508</ele>
        <time>2019-08-13T11:08:55Z</time>
      </trkpt>
      <trkpt lat="42.618541" lon="-0.114919">
        <ele>994.02</ele>
        <time>2019-08-13T11:08:59Z</time>
      </trkpt>
      <trkpt lat="42.618567" lon="-0.114905">
        <ele>991.915</ele>
        <time>2019-08-13T11:09:01Z</time>
      </trkpt>
      <trkpt lat="42.618623" lon="-0.114853">
        <ele>990.835</ele>
        <time>2019-08-13T11:09:04Z</time>
      </trkpt>
      <trkpt lat="42.618663" lon="-0.114805">
        <ele>992.408</ele>
        <time>2019-08-13T11:09:07Z</time>
      </trkpt>
      <trkpt lat="42.618716" lon="-0.114776">
        <ele>991.777</ele>
        <time>2019-08-13T11:09:11Z</time>
      </trkpt>
      <trkpt lat="42.618771" lon="-0.114785">
        <ele>989.916</ele>
        <time>2019-08-13T11:09:14Z</time>
      </trkpt>
      <trkpt lat="42.618821" lon="-0.114758">
        <ele>990.911</ele>
        <time>2019-08-13T11:09:22Z</time>
      </trkpt>
      <trkpt lat="42.618848" lon="-0.114742">
        <ele>990.355</ele>
        <time>2019-08-13T11:09:25Z</time>
      </trkpt>
      <trkpt lat="42.618877" lon="-0.114726">
        <ele>987.896</ele>
        <time>2019-08-13T11:09:27Z</time>
      </trkpt>
      <trkpt lat="42.618933" lon="-0.114707">
        <ele>987.219</ele>
        <time>2019-08-13T11:09:30Z</time>
      </trkpt>
      <trkpt lat="42.618969" lon="-0.114663">
        <ele>987.628</ele>
        <time>2019-08-13T11:09:36Z</time>
      </trkpt>
      <trkpt lat="42.619014" lon="-0.11463">
        <ele>986.12</ele>
        <time>2019-08-13T11:09:42Z</time>
      </trkpt>
      <trkpt lat="42.61905" lon="-0.114585">
        <ele>985.128</ele>
        <time>2019-08-13T11:09:46Z</time>
      </trkpt>
      <trkpt lat="42.619095" lon="-0.114577">
        <ele>983.419</ele>
        <time>2019-08-13T11:09:49Z</time>
      </trkpt>
      <trkpt lat="42.619146" lon="-0.114575">
        <ele>984.021</ele>
        <time>2019-08-13T11:09:53Z</time>
      </trkpt>
      <trkpt lat="42.61923" lon="-0.114535">
        <ele>982.653</ele>
        <time>2019-08-13T11:09:58Z</time>
      </trkpt>
      <trkpt lat="42.619269" lon="-0.114495">
        <ele>981.236</ele>
        <time>2019-08-13T11:10:01Z</time>
      </trkpt>
      <trkpt lat="42.619294" lon="-0.114469">
        <ele>983.329</ele>
        <time>2019-08-13T11:10:03Z</time>
      </trkpt>
      <trkpt lat="42.619321" lon="-0.114434">
        <ele>986.474</ele>
        <time>2019-08-13T11:10:05Z</time>
      </trkpt>
      <trkpt lat="42.619355" lon="-0.114377">
        <ele>987.985</ele>
        <time>2019-08-13T11:10:08Z</time>
      </trkpt>
      <trkpt lat="42.619396" lon="-0.11433">
        <ele>988.349</ele>
        <time>2019-08-13T11:10:11Z</time>
      </trkpt>
      <trkpt lat="42.619449" lon="-0.114286">
        <ele>987.858</ele>
        <time>2019-08-13T11:10:16Z</time>
      </trkpt>
      <trkpt lat="42.619492" lon="-0.114266">
        <ele>986.296</ele>
        <time>2019-08-13T11:10:20Z</time>
      </trkpt>
      <trkpt lat="42.619516" lon="-0.114257">
        <ele>987.54</ele>
        <time>2019-08-13T11:10:23Z</time>
      </trkpt>
      <trkpt lat="42.619538" lon="-0.114247">
        <ele>987.392</ele>
        <time>2019-08-13T11:10:25Z</time>
      </trkpt>
      <trkpt lat="42.619576" lon="-0.11423">
        <ele>988.897</ele>
        <time>2019-08-13T11:10:28Z</time>
      </trkpt>
      <trkpt lat="42.619597" lon="-0.114218">
        <ele>989.916</ele>
        <time>2019-08-13T11:10:31Z</time>
      </trkpt>
      <trkpt lat="42.619644" lon="-0.11417">
        <ele>989.872</ele>
        <time>2019-08-13T11:10:35Z</time>
      </trkpt>
      <trkpt lat="42.619669" lon="-0.114145">
        <ele>989.846</ele>
        <time>2019-08-13T11:10:37Z</time>
      </trkpt>
      <trkpt lat="42.619689" lon="-0.114123">
        <ele>990.29</ele>
        <time>2019-08-13T11:10:39Z</time>
      </trkpt>
      <trkpt lat="42.619724" lon="-0.114073">
        <ele>989.369</ele>
        <time>2019-08-13T11:10:44Z</time>
      </trkpt>
      <trkpt lat="42.619772" lon="-0.114037">
        <ele>990.134</ele>
        <time>2019-08-13T11:10:48Z</time>
      </trkpt>
      <trkpt lat="42.619798" lon="-0.114016">
        <ele>989.041</ele>
        <time>2019-08-13T11:10:50Z</time>
      </trkpt>
      <trkpt lat="42.619846" lon="-0.114003">
        <ele>989.105</ele>
        <time>2019-08-13T11:10:54Z</time>
      </trkpt>
      <trkpt lat="42.619885" lon="-0.113992">
        <ele>989.89</ele>
        <time>2019-08-13T11:10:56Z</time>
      </trkpt>
      <trkpt lat="42.619926" lon="-0.113964">
        <ele>989.616</ele>
        <time>2019-08-13T11:10:58Z</time>
      </trkpt>
      <trkpt lat="42.619966" lon="-0.113923">
        <ele>989.808</ele>
        <time>2019-08-13T11:11:01Z</time>
      </trkpt>
      <trkpt lat="42.619988" lon="-0.113837">
        <ele>990.076</ele>
        <time>2019-08-13T11:11:05Z</time>
      </trkpt>
      <trkpt lat="42.620029" lon="-0.113787">
        <ele>991.428</ele>
        <time>2019-08-13T11:11:10Z</time>
      </trkpt>
      <trkpt lat="42.620065" lon="-0.113747">
        <ele>992.568</ele>
        <time>2019-08-13T11:11:15Z</time>
      </trkpt>
      <trkpt lat="42.620116" lon="-0.113745">
        <ele>996.23</ele>
        <time>2019-08-13T11:11:19Z</time>
      </trkpt>
      <trkpt lat="42.620158" lon="-0.113712">
        <ele>995.155</ele>
        <time>2019-08-13T11:11:22Z</time>
      </trkpt>
      <trkpt lat="42.620206" lon="-0.113715">
        <ele>995.303</ele>
        <time>2019-08-13T11:11:24Z</time>
      </trkpt>
      <trkpt lat="42.620257" lon="-0.113693">
        <ele>998.25</ele>
        <time>2019-08-13T11:11:28Z</time>
      </trkpt>
      <trkpt lat="42.620296" lon="-0.113656">
        <ele>1000.7</ele>
        <time>2019-08-13T11:11:31Z</time>
      </trkpt>
      <trkpt lat="42.620343" lon="-0.113635">
        <ele>1000.78</ele>
        <time>2019-08-13T11:11:34Z</time>
      </trkpt>
      <trkpt lat="42.620371" lon="-0.113623">
        <ele>1000.84</ele>
        <time>2019-08-13T11:11:36Z</time>
      </trkpt>
      <trkpt lat="42.620394" lon="-0.113561">
        <ele>1001.81</ele>
        <time>2019-08-13T11:11:40Z</time>
      </trkpt>
      <trkpt lat="42.620436" lon="-0.11352">
        <ele>1006.66</ele>
        <time>2019-08-13T11:11:44Z</time>
      </trkpt>
      <trkpt lat="42.620482" lon="-0.113517">
        <ele>1005.97</ele>
        <time>2019-08-13T11:11:46Z</time>
      </trkpt>
      <trkpt lat="42.620529" lon="-0.113514">
        <ele>1004.8</ele>
        <time>2019-08-13T11:11:48Z</time>
      </trkpt>
      <trkpt lat="42.62057" lon="-0.113516">
        <ele>1008.1</ele>
        <time>2019-08-13T11:11:50Z</time>
      </trkpt>
      <trkpt lat="42.620622" lon="-0.113494">
        <ele>1007.84</ele>
        <time>2019-08-13T11:11:54Z</time>
      </trkpt>
      <trkpt lat="42.620669" lon="-0.113473">
        <ele>1007.84</ele>
        <time>2019-08-13T11:11:58Z</time>
      </trkpt>
      <trkpt lat="42.620701" lon="-0.113417">
        <ele>1005.87</ele>
        <time>2019-08-13T11:12:02Z</time>
      </trkpt>
      <trkpt lat="42.620742" lon="-0.113384">
        <ele>1006.19</ele>
        <time>2019-08-13T11:12:05Z</time>
      </trkpt>
      <trkpt lat="42.620787" lon="-0.113336">
        <ele>1007.7</ele>
        <time>2019-08-13T11:12:09Z</time>
      </trkpt>
      <trkpt lat="42.620846" lon="-0.113313">
        <ele>1008.53</ele>
        <time>2019-08-13T11:12:15Z</time>
      </trkpt>
      <trkpt lat="42.62089" lon="-0.113276">
        <ele>1005.91</ele>
        <time>2019-08-13T11:12:18Z</time>
      </trkpt>
      <trkpt lat="42.620932" lon="-0.113239">
        <ele>1003.52</ele>
        <time>2019-08-13T11:12:21Z</time>
      </trkpt>
      <trkpt lat="42.620971" lon="-0.113206">
        <ele>1001.9</ele>
        <time>2019-08-13T11:12:25Z</time>
      </trkpt>
      <trkpt lat="42.621008" lon="-0.113167">
        <ele>998.321</ele>
        <time>2019-08-13T11:12:30Z</time>
      </trkpt>
      <trkpt lat="42.621056" lon="-0.113141">
        <ele>994.662</ele>
        <time>2019-08-13T11:12:34Z</time>
      </trkpt>
      <trkpt lat="42.621105" lon="-0.113134">
        <ele>1000.38</ele>
        <time>2019-08-13T11:12:42Z</time>
      </trkpt>
      <trkpt lat="42.621153" lon="-0.113108">
        <ele>998.155</ele>
        <time>2019-08-13T11:12:45Z</time>
      </trkpt>
      <trkpt lat="42.621192" lon="-0.113069">
        <ele>997.307</ele>
        <time>2019-08-13T11:12:48Z</time>
      </trkpt>
      <trkpt lat="42.621218" lon="-0.113007">
        <ele>998.784</ele>
        <time>2019-08-13T11:12:51Z</time>
      </trkpt>
      <trkpt lat="42.62126" lon="-0.11297">
        <ele>995.926</ele>
        <time>2019-08-13T11:12:54Z</time>
      </trkpt>
      <trkpt lat="42.621308" lon="-0.11295">
        <ele>996.668</ele>
        <time>2019-08-13T11:12:57Z</time>
      </trkpt>
      <trkpt lat="42.621378" lon="-0.112899">
        <ele>998.206</ele>
        <time>2019-08-13T11:13:01Z</time>
      </trkpt>
      <trkpt lat="42.621433" lon="-0.112887">
        <ele>996.968</ele>
        <time>2019-08-13T11:13:05Z</time>
      </trkpt>
      <trkpt lat="42.62147" lon="-0.112848">
        <ele>998.95</ele>
        <time>2019-08-13T11:13:09Z</time>
      </trkpt>
      <trkpt lat="42.621505" lon="-0.112792">
        <ele>997.918</ele>
        <time>2019-08-13T11:13:14Z</time>
      </trkpt>
      <trkpt lat="42.621551" lon="-0.112757">
        <ele>1000.05</ele>
        <time>2019-08-13T11:13:19Z</time>
      </trkpt>
      <trkpt lat="42.621594" lon="-0.112704">
        <ele>1002.68</ele>
        <time>2019-08-13T11:13:23Z</time>
      </trkpt>
      <trkpt lat="42.621635" lon="-0.112669">
        <ele>1002.1</ele>
        <time>2019-08-13T11:13:27Z</time>
      </trkpt>
      <trkpt lat="42.621673" lon="-0.112615">
        <ele>998.197</ele>
        <time>2019-08-13T11:13:32Z</time>
      </trkpt>
      <trkpt lat="42.621709" lon="-0.112572">
        <ele>999.893</ele>
        <time>2019-08-13T11:13:35Z</time>
      </trkpt>
      <trkpt lat="42.621749" lon="-0.112537">
        <ele>1003.12</ele>
        <time>2019-08-13T11:13:38Z</time>
      </trkpt>
      <trkpt lat="42.62177" lon="-0.112516">
        <ele>1005.48</ele>
        <time>2019-08-13T11:13:40Z</time>
      </trkpt>
      <trkpt lat="42.62181" lon="-0.11246">
        <ele>1006.43</ele>
        <time>2019-08-13T11:13:44Z</time>
      </trkpt>
      <trkpt lat="42.621874" lon="-0.112421">
        <ele>1009.55</ele>
        <time>2019-08-13T11:13:47Z</time>
      </trkpt>
      <trkpt lat="42.6219" lon="-0.112408">
        <ele>1009.0</ele>
        <time>2019-08-13T11:13:48Z</time>
      </trkpt>
      <trkpt lat="42.621923" lon="-0.112396">
        <ele>1007.56</ele>
        <time>2019-08-13T11:13:49Z</time>
      </trkpt>
      <trkpt lat="42.621947" lon="-0.112382">
        <ele>1006.68</ele>
        <time>2019-08-13T11:13:50Z</time>
      </trkpt>
      <trkpt lat="42.621968" lon="-0.11237">
        <ele>1004.88</ele>
        <time>2019-08-13T11:13:51Z</time>
      </trkpt>
      <trkpt lat="42.622006" lon="-0.112342">
        <ele>1007.1</ele>
        <time>2019-08-13T11:13:53Z</time>
      </trkpt>
      <trkpt lat="42.622036" lon="-0.112319">
        <ele>1007.66</ele>
        <time>2019-08-13T11:13:56Z</time>
      </trkpt>
      <trkpt lat="42.622095" lon="-0.11232">
        <ele>1007.91</ele>
        <time>2019-08-13T11:14:00Z</time>
      </trkpt>
      <trkpt lat="42.622144" lon="-0.112334">
        <ele>1007.52</ele>
        <time>2019-08-13T11:14:02Z</time>
      </trkpt>
      <trkpt lat="42.622179" lon="-0.112344">
        <ele>1006.13</ele>
        <time>2019-08-13T11:14:04Z</time>
      </trkpt>
      <trkpt lat="42.622231" lon="-0.112384">
        <ele>1005.91</ele>
        <time>2019-08-13T11:14:11Z</time>
      </trkpt>
      <trkpt lat="42.622281" lon="-0.112378">
        <ele>1005.04</ele>
        <time>2019-08-13T11:14:14Z</time>
      </trkpt>
      <trkpt lat="42.622332" lon="-0.112372">
        <ele>1003.83</ele>
        <time>2019-08-13T11:14:17Z</time>
      </trkpt>
      <trkpt lat="42.622358" lon="-0.112371">
        <ele>1001.81</ele>
        <time>2019-08-13T11:14:20Z</time>
      </trkpt>
      <trkpt lat="42.622411" lon="-0.112408">
        <ele>1002.0</ele>
        <time>2019-08-13T11:14:25Z</time>
      </trkpt>
      <trkpt lat="42.622482" lon="-0.112439">
        <ele>1002.91</ele>
        <time>2019-08-13T11:14:28Z</time>
      </trkpt>
      <trkpt lat="42.622536" lon="-0.112436">
        <ele>1005.85</ele>
        <time>2019-08-13T11:14:31Z</time>
      </trkpt>
      <trkpt lat="42.622565" lon="-0.112437">
        <ele>1006.58</ele>
        <time>2019-08-13T11:14:35Z</time>
      </trkpt>
      <trkpt lat="42.622616" lon="-0.112462">
        <ele>1006.22</ele>
        <time>2019-08-13T11:14:41Z</time>
      </trkpt>
      <trkpt lat="42.622669" lon="-0.112481">
        <ele>1010.7</ele>
        <time>2019-08-13T11:14:46Z</time>
      </trkpt>
      <trkpt lat="42.622717" lon="-0.11252">
        <ele>1012.04</ele>
        <time>2019-08-13T11:14:50Z</time>
      </trkpt>
      <trkpt lat="42.622777" lon="-0.11255">
        <ele>1014.51</ele>
        <time>2019-08-13T11:14:53Z</time>
      </trkpt>
      <trkpt lat="42.622841" lon="-0.112547">
        <ele>1016.06</ele>
        <time>2019-08-13T11:14:55Z</time>
      </trkpt>
      <trkpt lat="42.622893" lon="-0.112541">
        <ele>1016.77</ele>
        <time>2019-08-13T11:14:59Z</time>
      </trkpt>
      <trkpt lat="42.622937" lon="-0.112589">
        <ele>1015.9</ele>
        <time>2019-08-13T11:15:04Z</time>
      </trkpt>
      <trkpt lat="42.622993" lon="-0.112607">
        <ele>1017.51</ele>
        <time>2019-08-13T11:15:10Z</time>
      </trkpt>
      <trkpt lat="42.623051" lon="-0.112635">
        <ele>1016.45</ele>
        <time>2019-08-13T11:15:14Z</time>
      </trkpt>
      <trkpt lat="42.623085" lon="-0.112654">
        <ele>1020.47</ele>
        <time>2019-08-13T11:15:20Z</time>
      </trkpt>
      <trkpt lat="42.623134" lon="-0.112694">
        <ele>1019.64</ele>
        <time>2019-08-13T11:15:23Z</time>
      </trkpt>
      <trkpt lat="42.623176" lon="-0.112728">
        <ele>1019.64</ele>
        <time>2019-08-13T11:15:30Z</time>
      </trkpt>
      <trkpt lat="42.623205" lon="-0.11278">
        <ele>1022.42</ele>
        <time>2019-08-13T11:15:35Z</time>
      </trkpt>
      <trkpt lat="42.62325" lon="-0.112842">
        <ele>1023.14</ele>
        <time>2019-08-13T11:15:39Z</time>
      </trkpt>
      <trkpt lat="42.623268" lon="-0.112866">
        <ele>1024.33</ele>
        <time>2019-08-13T11:15:41Z</time>
      </trkpt>
      <trkpt lat="42.623315" lon="-0.112883">
        <ele>1029.26</ele>
        <time>2019-08-13T11:15:44Z</time>
      </trkpt>
      <trkpt lat="42.623362" lon="-0.1129">
        <ele>1031.19</ele>
        <time>2019-08-13T11:15:46Z</time>
      </trkpt>
      <trkpt lat="42.623409" lon="-0.112926">
        <ele>1029.79</ele>
        <time>2019-08-13T11:15:49Z</time>
      </trkpt>
      <trkpt lat="42.623448" lon="-0.112993">
        <ele>1028.59</ele>
        <time>2019-08-13T11:15:55Z</time>
      </trkpt>
      <trkpt lat="42.623486" lon="-0.113034">
        <ele>1029.73</ele>
        <time>2019-08-13T11:16:00Z</time>
      </trkpt>
      <trkpt lat="42.623532" lon="-0.11296">
        <ele>1031.98</ele>
        <time>2019-08-13T11:16:08Z</time>
      </trkpt>
      <trkpt lat="42.623568" lon="-0.112922">
        <ele>1031.91</ele>
        <time>2019-08-13T11:16:13Z</time>
      </trkpt>
      <trkpt lat="42.623599" lon="-0.112868">
        <ele>1035.66</ele>
        <time>2019-08-13T11:16:19Z</time>
      </trkpt>
      <trkpt lat="42.62361" lon="-0.112805">
        <ele>1032.39</ele>
        <time>2019-08-13T11:16:24Z</time>
      </trkpt>
      <trkpt lat="42.623653" lon="-0.112781">
        <ele>1034.19</ele>
        <time>2019-08-13T11:16:28Z</time>
      </trkpt>
      <trkpt lat="42.62368" lon="-0.112764">
        <ele>1033.09</ele>
        <time>2019-08-13T11:16:30Z</time>
      </trkpt>
      <trkpt lat="42.623717" lon="-0.112715">
        <ele>1032.58</ele>
        <time>2019-08-13T11:16:37Z</time>
      </trkpt>
      <trkpt lat="42.623758" lon="-0.112689">
        <ele>1038.46</ele>
        <time>2019-08-13T11:16:45Z</time>
      </trkpt>
      <trkpt lat="42.623807" lon="-0.112708">
        <ele>1040.28</ele>
        <time>2019-08-13T11:16:52Z</time>
      </trkpt>
      <trkpt lat="42.62386" lon="-0.112701">
        <ele>1042.82</ele>
        <time>2019-08-13T11:16:57Z</time>
      </trkpt>
      <trkpt lat="42.623893" lon="-0.112648">
        <ele>1040.78</ele>
        <time>2019-08-13T11:17:02Z</time>
      </trkpt>
      <trkpt lat="42.623893" lon="-0.112648">
        <ele>1040.78</ele>
        <time>2019-08-13T11:17:11Z</time>
      </trkpt>
      <trkpt lat="42.623893" lon="-0.112648">
        <ele>1040.78</ele>
        <time>2019-08-13T11:17:12Z</time>
      </trkpt>
      <trkpt lat="42.623846" lon="-0.112689">
        <ele>1041.15</ele>
        <time>2019-08-13T11:17:19Z</time>
      </trkpt>
      <trkpt lat="42.62381" lon="-0.112746">
        <ele>1038.81</ele>
        <time>2019-08-13T11:17:24Z</time>
      </trkpt>
      <trkpt lat="42.623794" lon="-0.112772">
        <ele>1036.99</ele>
        <time>2019-08-13T11:17:26Z</time>
      </trkpt>
      <trkpt lat="42.623768" lon="-0.112849">
        <ele>1039.62</ele>
        <time>2019-08-13T11:17:30Z</time>
      </trkpt>
      <trkpt lat="42.623741" lon="-0.112919">
        <ele>1041.85</ele>
        <time>2019-08-13T11:17:35Z</time>
      </trkpt>
      <trkpt lat="42.623731" lon="-0.112983">
        <ele>1019.46</ele>
        <time>2019-08-13T11:17:39Z</time>
      </trkpt>
      <trkpt lat="42.623737" lon="-0.113055">
        <ele>1032.86</ele>
        <time>2019-08-13T11:17:43Z</time>
      </trkpt>
      <trkpt lat="42.62372" lon="-0.113118">
        <ele>1038.69</ele>
        <time>2019-08-13T11:17:48Z</time>
      </trkpt>
      <trkpt lat="42.623724" lon="-0.113205">
        <ele>1042.26</ele>
        <time>2019-08-13T11:17:53Z</time>
      </trkpt>
      <trkpt lat="42.62372" lon="-0.113118">
        <ele>1038.69</ele>
        <time>2019-08-13T11:18:03Z</time>
      </trkpt>
      <trkpt lat="42.623779" lon="-0.113123">
        <ele>1053.5</ele>
        <time>2019-08-13T11:18:05Z</time>
      </trkpt>
      <trkpt lat="42.623821" lon="-0.113076">
        <ele>1057.75</ele>
        <time>2019-08-13T11:18:15Z</time>
      </trkpt>
      <trkpt lat="42.623848" lon="-0.113011">
        <ele>1059.55</ele>
        <time>2019-08-13T11:18:23Z</time>
      </trkpt>
      <trkpt lat="42.623865" lon="-0.112962">
        <ele>1060.47</ele>
        <time>2019-08-13T11:18:26Z</time>
      </trkpt>
      <trkpt lat="42.623909" lon="-0.11294">
        <ele>1062.41</ele>
        <time>2019-08-13T11:18:31Z</time>
      </trkpt>
      <trkpt lat="42.623953" lon="-0.112903">
        <ele>1062.26</ele>
        <time>2019-08-13T11:18:36Z</time>
      </trkpt>
      <trkpt lat="42.623988" lon="-0.11286">
        <ele>1064.44</ele>
        <time>2019-08-13T11:18:41Z</time>
      </trkpt>
      <trkpt lat="42.624007" lon="-0.112876">
        <ele>1064.42</ele>
        <time>2019-08-13T11:18:50Z</time>
      </trkpt>
      <trkpt lat="42.624058" lon="-0.112877">
        <ele>1061.94</ele>
        <time>2019-08-13T11:18:55Z</time>
      </trkpt>
      <trkpt lat="42.624106" lon="-0.112841">
        <ele>1063.52</ele>
        <time>2019-08-13T11:19:01Z</time>
      </trkpt>
      <trkpt lat="42.624153" lon="-0.112801">
        <ele>1061.72</ele>
        <time>2019-08-13T11:19:05Z</time>
      </trkpt>
      <trkpt lat="42.62421" lon="-0.112804">
        <ele>1058.92</ele>
        <time>2019-08-13T11:19:09Z</time>
      </trkpt>
      <trkpt lat="42.62426" lon="-0.112772">
        <ele>1059.77</ele>
        <time>2019-08-13T11:19:13Z</time>
      </trkpt>
      <trkpt lat="42.6243" lon="-0.112752">
        <ele>1059.91</ele>
        <time>2019-08-13T11:19:16Z</time>
      </trkpt>
      <trkpt lat="42.624336" lon="-0.1127">
        <ele>1058.99</ele>
        <time>2019-08-13T11:19:20Z</time>
      </trkpt>
      <trkpt lat="42.624379" lon="-0.112663">
        <ele>1060.1</ele>
        <time>2019-08-13T11:19:25Z</time>
      </trkpt>
      <trkpt lat="42.62442" lon="-0.112621">
        <ele>1062.16</ele>
        <time>2019-08-13T11:19:29Z</time>
      </trkpt>
      <trkpt lat="42.624466" lon="-0.112595">
        <ele>1063.06</ele>
        <time>2019-08-13T11:19:34Z</time>
      </trkpt>
      <trkpt lat="42.624512" lon="-0.112558">
        <ele>1064.84</ele>
        <time>2019-08-13T11:19:39Z</time>
      </trkpt>
      <trkpt lat="42.624572" lon="-0.112546">
        <ele>1065.8</ele>
        <time>2019-08-13T11:19:43Z</time>
      </trkpt>
      <trkpt lat="42.624621" lon="-0.112545">
        <ele>1063.87</ele>
        <time>2019-08-13T11:19:47Z</time>
      </trkpt>
      <trkpt lat="42.624665" lon="-0.112546">
        <ele>1061.86</ele>
        <time>2019-08-13T11:19:50Z</time>
      </trkpt>
      <trkpt lat="42.624709" lon="-0.112572">
        <ele>1060.75</ele>
        <time>2019-08-13T11:19:53Z</time>
      </trkpt>
      <trkpt lat="42.624763" lon="-0.112574">
        <ele>1060.4</ele>
        <time>2019-08-13T11:19:58Z</time>
      </trkpt>
      <trkpt lat="42.62481" lon="-0.112569">
        <ele>1062.83</ele>
        <time>2019-08-13T11:20:02Z</time>
      </trkpt>
      <trkpt lat="42.624845" lon="-0.112565">
        <ele>1061.25</ele>
        <time>2019-08-13T11:20:04Z</time>
      </trkpt>
      <trkpt lat="42.624894" lon="-0.112555">
        <ele>1061.4</ele>
        <time>2019-08-13T11:20:08Z</time>
      </trkpt>
      <trkpt lat="42.624939" lon="-0.112592">
        <ele>1061.14</ele>
        <time>2019-08-13T11:20:14Z</time>
      </trkpt>
      <trkpt lat="42.624985" lon="-0.112611">
        <ele>1031.2</ele>
        <time>2019-08-13T11:20:17Z</time>
      </trkpt>
      <trkpt lat="42.625036" lon="-0.112616">
        <ele>1047.35</ele>
        <time>2019-08-13T11:20:20Z</time>
      </trkpt>
      <trkpt lat="42.625064" lon="-0.112618">
        <ele>1054.42</ele>
        <time>2019-08-13T11:20:22Z</time>
      </trkpt>
      <trkpt lat="42.625102" lon="-0.112607">
        <ele>1063.51</ele>
        <time>2019-08-13T11:20:31Z</time>
      </trkpt>
      <trkpt lat="42.625131" lon="-0.112609">
        <ele>1066.17</ele>
        <time>2019-08-13T11:20:33Z</time>
      </trkpt>
      <trkpt lat="42.625179" lon="-0.112625">
        <ele>1070.13</ele>
        <time>2019-08-13T11:20:37Z</time>
      </trkpt>
      <trkpt lat="42.625216" lon="-0.112661">
        <ele>1073.09</ele>
        <time>2019-08-13T11:20:45Z</time>
      </trkpt>
      <trkpt lat="42.625262" lon="-0.112679">
        <ele>1075.09</ele>
        <time>2019-08-13T11:20:49Z</time>
      </trkpt>
      <trkpt lat="42.625292" lon="-0.112692">
        <ele>1074.18</ele>
        <time>2019-08-13T11:20:51Z</time>
      </trkpt>
      <trkpt lat="42.625339" lon="-0.11271">
        <ele>1070.48</ele>
        <time>2019-08-13T11:20:58Z</time>
      </trkpt>
      <trkpt lat="42.625312" lon="-0.112719">
        <ele>1069.58</ele>
        <time>2019-08-13T11:21:06Z</time>
      </trkpt>
      <trkpt lat="42.62534" lon="-0.11274">
        <ele>1068.45</ele>
        <time>2019-08-13T11:21:14Z</time>
      </trkpt>
      <trkpt lat="42.625383" lon="-0.112788">
        <ele>1070.56</ele>
        <time>2019-08-13T11:21:18Z</time>
      </trkpt>
      <trkpt lat="42.625426" lon="-0.112827">
        <ele>1071.04</ele>
        <time>2019-08-13T11:21:21Z</time>
      </trkpt>
      <trkpt lat="42.625456" lon="-0.11286">
        <ele>1071.6</ele>
        <time>2019-08-13T11:21:24Z</time>
      </trkpt>
      <trkpt lat="42.625511" lon="-0.112898">
        <ele>1072.83</ele>
        <time>2019-08-13T11:21:28Z</time>
      </trkpt>
      <trkpt lat="42.625541" lon="-0.112916">
        <ele>1072.15</ele>
        <time>2019-08-13T11:21:30Z</time>
      </trkpt>
      <trkpt lat="42.625574" lon="-0.112949">
        <ele>1071.85</ele>
        <time>2019-08-13T11:21:38Z</time>
      </trkpt>
      <trkpt lat="42.625627" lon="-0.11297">
        <ele>1070.06</ele>
        <time>2019-08-13T11:22:00Z</time>
      </trkpt>
      <trkpt lat="42.625674" lon="-0.112975">
        <ele>1074.66</ele>
        <time>2019-08-13T11:22:03Z</time>
      </trkpt>
      <trkpt lat="42.625733" lon="-0.11299">
        <ele>1074.67</ele>
        <time>2019-08-13T11:22:07Z</time>
      </trkpt>
      <trkpt lat="42.625766" lon="-0.113001">
        <ele>1075.09</ele>
        <time>2019-08-13T11:22:09Z</time>
      </trkpt>
      <trkpt lat="42.625813" lon="-0.113009">
        <ele>1075.4</ele>
        <time>2019-08-13T11:22:12Z</time>
      </trkpt>
      <trkpt lat="42.625846" lon="-0.113014">
        <ele>1075.25</ele>
        <time>2019-08-13T11:22:14Z</time>
      </trkpt>
      <trkpt lat="42.625871" lon="-0.113017">
        <ele>1074.68</ele>
        <time>2019-08-13T11:22:16Z</time>
      </trkpt>
      <trkpt lat="42.625924" lon="-0.113035">
        <ele>1075.25</ele>
        <time>2019-08-13T11:22:24Z</time>
      </trkpt>
      <trkpt lat="42.625978" lon="-0.113025">
        <ele>1077.5</ele>
        <time>2019-08-13T11:22:29Z</time>
      </trkpt>
      <trkpt lat="42.626024" lon="-0.113004">
        <ele>1077.48</ele>
        <time>2019-08-13T11:22:32Z</time>
      </trkpt>
      <trkpt lat="42.626077" lon="-0.112984">
        <ele>1080.51</ele>
        <time>2019-08-13T11:22:37Z</time>
      </trkpt>
      <trkpt lat="42.626103" lon="-0.112975">
        <ele>1080.77</ele>
        <time>2019-08-13T11:22:39Z</time>
      </trkpt>
      <trkpt lat="42.626136" lon="-0.112966">
        <ele>1081.42</ele>
        <time>2019-08-13T11:22:42Z</time>
      </trkpt>
      <trkpt lat="42.626161" lon="-0.112961">
        <ele>1080.97</ele>
        <time>2019-08-13T11:22:44Z</time>
      </trkpt>
      <trkpt lat="42.626209" lon="-0.112945">
        <ele>1080.92</ele>
        <time>2019-08-13T11:22:47Z</time>
      </trkpt>
      <trkpt lat="42.626237" lon="-0.112934">
        <ele>1080.15</ele>
        <time>2019-08-13T11:22:49Z</time>
      </trkpt>
      <trkpt lat="42.626276" lon="-0.112887">
        <ele>1078.3</ele>
        <time>2019-08-13T11:22:53Z</time>
      </trkpt>
      <trkpt lat="42.626326" lon="-0.112855">
        <ele>1078.33</ele>
        <time>2019-08-13T11:22:57Z</time>
      </trkpt>
      <trkpt lat="42.626366" lon="-0.112817">
        <ele>1078.5</ele>
        <time>2019-08-13T11:23:01Z</time>
      </trkpt>
      <trkpt lat="42.626411" lon="-0.112796">
        <ele>1079.09</ele>
        <time>2019-08-13T11:23:03Z</time>
      </trkpt>
      <trkpt lat="42.626444" lon="-0.112782">
        <ele>1079.84</ele>
        <time>2019-08-13T11:23:05Z</time>
      </trkpt>
      <trkpt lat="42.626486" lon="-0.112768">
        <ele>1078.99</ele>
        <time>2019-08-13T11:23:07Z</time>
      </trkpt>
      <trkpt lat="42.626526" lon="-0.112726">
        <ele>1078.66</ele>
        <time>2019-08-13T11:23:10Z</time>
      </trkpt>
      <trkpt lat="42.626552" lon="-0.11266">
        <ele>1078.92</ele>
        <time>2019-08-13T11:23:15Z</time>
      </trkpt>
      <trkpt lat="42.626564" lon="-0.1126">
        <ele>1077.68</ele>
        <time>2019-08-13T11:23:18Z</time>
      </trkpt>
      <trkpt lat="42.626564" lon="-0.1126">
        <ele>1077.68</ele>
        <time>2019-08-13T11:23:26Z</time>
      </trkpt>
      <trkpt lat="42.626564" lon="-0.1126">
        <ele>1077.68</ele>
        <time>2019-08-13T11:23:27Z</time>
      </trkpt>
      <trkpt lat="42.626596" lon="-0.112552">
        <ele>1079.45</ele>
        <time>2019-08-13T11:24:12Z</time>
      </trkpt>
      <trkpt lat="42.626664" lon="-0.112516">
        <ele>1081.41</ele>
        <time>2019-08-13T11:24:14Z</time>
      </trkpt>
      <trkpt lat="42.626727" lon="-0.112467">
        <ele>1076.72</ele>
        <time>2019-08-13T11:24:17Z</time>
      </trkpt>
      <trkpt lat="42.626727" lon="-0.112467">
        <ele>1076.72</ele>
        <time>2019-08-13T11:24:23Z</time>
      </trkpt>
      <trkpt lat="42.626765" lon="-0.112504">
        <ele>1074.96</ele>
        <time>2019-08-13T11:24:24Z</time>
      </trkpt>
      <trkpt lat="42.626815" lon="-0.112454">
        <ele>1077.39</ele>
        <time>2019-08-13T11:24:30Z</time>
      </trkpt>
      <trkpt lat="42.626863" lon="-0.112476">
        <ele>1078.35</ele>
        <time>2019-08-13T11:24:35Z</time>
      </trkpt>
      <trkpt lat="42.626893" lon="-0.112544">
        <ele>1076.02</ele>
        <time>2019-08-13T11:24:39Z</time>
      </trkpt>
      <trkpt lat="42.626935" lon="-0.11257">
        <ele>1078.1</ele>
        <time>2019-08-13T11:24:42Z</time>
      </trkpt>
      <trkpt lat="42.626998" lon="-0.112577">
        <ele>1080.98</ele>
        <time>2019-08-13T11:24:45Z</time>
      </trkpt>
      <trkpt lat="42.627033" lon="-0.112577">
        <ele>1081.67</ele>
        <time>2019-08-13T11:24:47Z</time>
      </trkpt>
      <trkpt lat="42.627078" lon="-0.112566">
        <ele>1082.54</ele>
        <time>2019-08-13T11:24:50Z</time>
      </trkpt>
      <trkpt lat="42.627126" lon="-0.112534">
        <ele>1082.05</ele>
        <time>2019-08-13T11:24:54Z</time>
      </trkpt>
      <trkpt lat="42.627163" lon="-0.11251">
        <ele>1077.49</ele>
        <time>2019-08-13T11:24:57Z</time>
      </trkpt>
      <trkpt lat="42.627195" lon="-0.112457">
        <ele>1078.98</ele>
        <time>2019-08-13T11:25:01Z</time>
      </trkpt>
      <trkpt lat="42.627233" lon="-0.112383">
        <ele>1076.79</ele>
        <time>2019-08-13T11:25:06Z</time>
      </trkpt>
      <trkpt lat="42.627279" lon="-0.112372">
        <ele>1078.09</ele>
        <time>2019-08-13T11:25:13Z</time>
      </trkpt>
      <trkpt lat="42.627311" lon="-0.112304">
        <ele>1076.32</ele>
        <time>2019-08-13T11:26:15Z</time>
      </trkpt>
      <trkpt lat="42.62736" lon="-0.112306">
        <ele>1075.82</ele>
        <time>2019-08-13T11:26:18Z</time>
      </trkpt>
      <trkpt lat="42.627399" lon="-0.112266">
        <ele>1074.62</ele>
        <time>2019-08-13T11:26:24Z</time>
      </trkpt>
      <trkpt lat="42.627432" lon="-0.112202">
        <ele>1075.07</ele>
        <time>2019-08-13T11:26:29Z</time>
      </trkpt>
      <trkpt lat="42.627427" lon="-0.112121">
        <ele>1076.23</ele>
        <time>2019-08-13T11:26:33Z</time>
      </trkpt>
      <trkpt lat="42.627513" lon="-0.112133">
        <ele>1080.09</ele>
        <time>2019-08-13T11:26:42Z</time>
      </trkpt>
      <trkpt lat="42.627553" lon="-0.112087">
        <ele>1079.42</ele>
        <time>2019-08-13T11:26:49Z</time>
      </trkpt>
      <trkpt lat="42.627605" lon="-0.112103">
        <ele>1079.61</ele>
        <time>2019-08-13T11:26:53Z</time>
      </trkpt>
      <trkpt lat="42.627656" lon="-0.112106">
        <ele>1079.6</ele>
        <time>2019-08-13T11:26:56Z</time>
      </trkpt>
      <trkpt lat="42.627701" lon="-0.112067">
        <ele>1082.41</ele>
        <time>2019-08-13T11:27:01Z</time>
      </trkpt>
      <trkpt lat="42.627739" lon="-0.112037">
        <ele>1083.15</ele>
        <time>2019-08-13T11:27:04Z</time>
      </trkpt>
      <trkpt lat="42.627807" lon="-0.112045">
        <ele>1084.69</ele>
        <time>2019-08-13T11:27:07Z</time>
      </trkpt>
      <trkpt lat="42.627847" lon="-0.112045">
        <ele>1084.16</ele>
        <time>2019-08-13T11:27:11Z</time>
      </trkpt>
      <trkpt lat="42.627872" lon="-0.112048">
        <ele>1084.41</ele>
        <time>2019-08-13T11:27:13Z</time>
      </trkpt>
      <trkpt lat="42.627921" lon="-0.112048">
        <ele>1082.74</ele>
        <time>2019-08-13T11:27:17Z</time>
      </trkpt>
      <trkpt lat="42.627975" lon="-0.11207">
        <ele>1082.61</ele>
        <time>2019-08-13T11:27:22Z</time>
      </trkpt>
      <trkpt lat="42.62803" lon="-0.112088">
        <ele>1084.36</ele>
        <time>2019-08-13T11:27:27Z</time>
      </trkpt>
      <trkpt lat="42.628074" lon="-0.11211">
        <ele>1081.11</ele>
        <time>2019-08-13T11:27:32Z</time>
      </trkpt>
      <trkpt lat="42.62812" lon="-0.112104">
        <ele>1080.84</ele>
        <time>2019-08-13T11:27:36Z</time>
      </trkpt>
      <trkpt lat="42.628142" lon="-0.1121">
        <ele>1081.35</ele>
        <time>2019-08-13T11:27:38Z</time>
      </trkpt>
      <trkpt lat="42.628208" lon="-0.11211">
        <ele>1081.34</ele>
        <time>2019-08-13T11:27:42Z</time>
      </trkpt>
      <trkpt lat="42.628197" lon="-0.112202">
        <ele>1079.87</ele>
        <time>2019-08-13T11:27:50Z</time>
      </trkpt>
      <trkpt lat="42.628166" lon="-0.112294">
        <ele>1083.45</ele>
        <time>2019-08-13T11:27:55Z</time>
      </trkpt>
      <trkpt lat="42.628142" lon="-0.112346">
        <ele>1085.28</ele>
        <time>2019-08-13T11:27:58Z</time>
      </trkpt>
      <trkpt lat="42.628158" lon="-0.112413">
        <ele>1087.69</ele>
        <time>2019-08-13T11:28:02Z</time>
      </trkpt>
      <trkpt lat="42.628142" lon="-0.112482">
        <ele>1087.57</ele>
        <time>2019-08-13T11:28:07Z</time>
      </trkpt>
      <trkpt lat="42.628142" lon="-0.112482">
        <ele>1087.57</ele>
        <time>2019-08-13T11:28:15Z</time>
      </trkpt>
      <trkpt lat="42.628142" lon="-0.112482">
        <ele>1087.57</ele>
        <time>2019-08-13T11:28:16Z</time>
      </trkpt>
      <trkpt lat="42.628098" lon="-0.112462">
        <ele>1088.02</ele>
        <time>2019-08-13T11:28:18Z</time>
      </trkpt>
      <trkpt lat="42.628044" lon="-0.112495">
        <ele>1087.94</ele>
        <time>2019-08-13T11:28:22Z</time>
      </trkpt>
      <trkpt lat="42.628033" lon="-0.112561">
        <ele>1088.4</ele>
        <time>2019-08-13T11:28:25Z</time>
      </trkpt>
      <trkpt lat="42.628039" lon="-0.112622">
        <ele>1089.58</ele>
        <time>2019-08-13T11:28:29Z</time>
      </trkpt>
      <trkpt lat="42.628028" lon="-0.11269">
        <ele>1089.72</ele>
        <time>2019-08-13T11:28:33Z</time>
      </trkpt>
      <trkpt lat="42.628003" lon="-0.112759">
        <ele>1086.72</ele>
        <time>2019-08-13T11:28:38Z</time>
      </trkpt>
      <trkpt lat="42.628003" lon="-0.112759">
        <ele>-</ele>
        <time>2019-08-13T11:28:44Z</time>
      </trkpt>
      <trkpt lat="42.628003" lon="-0.112759">
        <ele>-</ele>
        <time>2019-08-13T11:28:48Z</time>
      </trkpt>
    </trkseg>
  </trk>
</gpx>
